[[{"header":{"parameterUnit":"m.s-1","parameterCategory":1,"la1":30.6,"la2":28.766,"lo1":-90.7593,"lo2":-88.6598,"dy":0.0162,"dx":0.0183,"nx":116,"ny":114,"refTime":"2023-05-29T12:00:00:Z","depth":0,"parameterNumber":2,"parameterNumberName":"U-component_of_WINDS"},"data":[0.0,0.0,0.0,0.0,0.0,0.0,0.0,0.0,0.0,0.0,0.0,0.0,0.0,0.0,0.0,0.0,0.0,0.0,0.0,0.0,0.0,0.0,0.0,0.0,0.0,0.0,0.0,0.0,0.0,0.0,0.0,0.0,0.0,0.0,0.0,0.0,0.0,0.0,0.0,0.0,0.0,0.0,0.0,0.0,0.0,0.0,0.0,0.0,0.0,0.0,0.0,0.0,0.0,0.0,0.0,0.0,0.0,0.0,0.0,0.0,0.0,0.0,0.0,0.0,0.0,0.0,0.0,0.0,0.0,0.0,0.0,0.0,0.0,0.0,0.0,0.0,0.0,0.0,0.0,0.0,0.0,0.0,0.0,0.0,0.0,0.0,0.0,0.0,0.0,0.0,0.0,0.0,0.0,0.0,0.0,0.0,0.0,0.0,0.0,0.0,0.0,0.0,0.0,0.0,0.0,0.0,0.0,0.0,0.0,0.0,0.0,0.0,0.0,0.0,0.0,0.0,0.0,0.0,0.0,0.0,0.0,0.0,0.0,0.0,0.0,0.0,0.0,0.0,0.0,0.0,0.0,0.0,0.0,0.0,0.0,0.0,0.0,0.0,0.0,0.0,0.0,0.0,0.0,0.0,0.0,0.0,0.0,0.0,0.0,0.0,0.0,0.0,0.0,0.0,0.0,0.0,0.0,0.0,0.0,0.0,0.0,0.0,0.0,0.0,0.0,0.0,0.0,0.0,0.0,0.0,0.0,0.0,0.0,0.0,0.0,0.0,0.0,0.0,0.0,0.0,0.0,0.0,0.0,0.0,0.0,0.0,0.0,0.0,0.0,0.0,0.0,0.0,0.0,0.0,0.0,0.0,0.0,0.0,0.0,0.0,0.0,0.0,0.0,0.0,0.0,0.0,0.0,0.0,0.0,0.0,0.0,0.0,0.0,0.0,0.0,0.0,0.0,0.0,0.0,0.0,0.0,0.0,0.0,0.0,0.0,0.0,0.0,0.0,0.0,0.0,0.0,0.0,0.0,0.0,0.0,0.0,0.0,0.0,0.0,0.0,0.0,0.0,0.0,0.0,0.0,0.0,0.0,0.0,0.0,0.0,0.0,0.0,0.0,0.0,0.0,0.0,0.0,0.0,0.0,0.0,0.0,0.0,0.0,0.0,0.0,0.0,0.0,0.0,0.0,0.0,0.0,0.0,0.0,0.0,0.0,0.0,0.0,0.0,0.0,0.0,0.0,0.0,0.0,0.0,0.0,0.0,0.0,0.0,0.0,0.0,0.0,0.0,0.0,0.0,0.0,0.0,0.0,0.0,0.0,0.0,0.0,0.0,0.0,0.0,0.0,0.0,0.0,0.0,0.0,0.0,0.0,0.0,0.0,0.0,0.0,0.0,0.0,0.0,0.0,0.0,0.0,0.0,0.0,0.0,0.0,0.0,0.0,0.0,0.0,0.0,0.0,0.0,0.0,0.0,0.0,0.0,0.0,0.0,0.0,0.0,0.0,0.0,0.0,0.0,0.0,0.0,0.0,0.0,0.0,0.0,0.0,0.0,0.0,0.0,0.0,0.0,0.0,0.0,0.0,0.0,0.0,0.0,0.0,0.0,0.0,0.0,0.0,0.0,0.0,0.0,0.0,0.0,0.0,0.0,0.0,0.0,0.0,0.0,0.0,0.0,0.0,0.0,0.0,0.0,0.0,0.0,0.0,0.0,0.0,0.0,0.0,0.0,0.0,0.0,0.0,0.0,0.0,0.0,0.0,0.0,0.0,0.0,0.0,0.0,0.0,0.0,0.0,0.0,0.0,0.0,0.0,0.0,0.0,0.0,0.0,0.0,0.0,0.0,0.0,0.0,0.0,0.0,0.0,0.0,0.0,0.0,0.0,0.0,0.0,0.0,0.0,0.0,0.0,0.0,0.0,0.0,0.0,0.0,0.0,0.0,0.0,0.0,0.0,0.0,0.0,0.0,0.0,0.0,0.0,0.0,0.0,0.0,0.0,0.0,0.0,0.0,0.0,0.0,0.0,0.0,0.0,0.0,0.0,0.0,0.0,0.0,0.0,0.0,0.0,0.0,0.0,0.0,0.0,0.0,0.0,0.0,0.0,0.0,0.0,0.0,0.0,0.0,0.0,0.0,0.0,0.0,0.0,0.0,0.0,0.0,0.0,0.0,0.0,0.0,0.0,0.0,0.0,0.0,0.0,0.0,0.0,0.0,0.0,0.0,0.0,0.0,0.0,0.0,0.0,0.0,0.0,0.0,0.0,0.0,0.0,0.0,0.0,0.0,0.0,0.0,0.0,0.0,0.0,0.0,0.0,0.0,0.0,0.0,0.0,0.0,0.0,0.0,0.0,0.0,0.0,0.0,0.0,0.0,0.0,0.0,0.0,0.0,0.0,0.0,0.0,0.0,0.0,0.0,0.0,0.0,0.0,0.0,0.0,0.0,0.0,0.0,0.0,0.0,0.0,0.0,0.0,0.0,0.0,0.0,0.0,0.0,0.0,0.0,0.0,0.0,0.0,0.0,0.0,0.0,0.0,0.0,0.0,0.0,0.0,0.0,0.0,0.0,0.0,0.0,0.0,0.0,0.0,0.0,0.0,0.0,0.0,0.0,0.0,0.0,0.0,0.0,0.0,0.0,0.0,0.0,0.0,0.0,0.0,0.0,0.0,0.0,0.0,0.0,0.0,0.0,0.0,0.0,0.0,0.0,0.0,0.0,0.0,0.0,0.0,0.0,0.0,0.0,0.0,0.0,0.0,0.0,0.0,0.0,0.0,0.0,0.0,0.0,0.0,0.0,0.0,0.0,0.0,0.0,0.0,0.0,0.0,0.0,0.0,0.0,0.0,0.0,0.0,0.0,0.0,0.0,0.0,0.0,0.0,0.0,0.0,0.0,0.0,0.0,0.0,0.0,0.0,0.0,0.0,0.0,0.0,0.0,0.0,0.0,0.0,0.0,0.0,0.0,0.0,0.0,0.0,0.0,0.0,0.0,0.0,0.0,0.0,0.0,0.0,0.0,0.0,0.0,0.0,0.0,0.0,0.0,0.0,0.0,0.0,0.0,0.0,0.0,0.0,0.0,0.0,0.0,0.0,0.0,0.0,0.0,0.0,0.0,0.0,0.0,0.0,0.0,0.0,0.0,0.0,0.0,0.0,0.0,0.0,0.0,0.0,0.0,0.0,0.0,0.0,0.0,0.0,0.0,0.0,0.0,0.0,0.0,0.0,0.0,0.0,0.0,0.0,0.0,0.0,0.0,0.0,0.0,0.0,0.0,0.0,0.0,0.0,0.0,0.0,0.0,0.0,0.0,0.0,0.0,0.0,0.0,0.0,0.0,0.0,0.0,0.0,0.0,0.0,0.0,0.0,0.0,0.0,0.0,0.0,0.0,0.0,0.0,0.0,0.0,0.0,0.0,0.0,0.0,0.0,0.0,0.0,0.0,0.0,0.0,0.0,0.0,0.0,0.0,0.0,0.0,0.0,0.0,0.0,0.0,0.0,0.0,0.0,0.0,0.0,0.0,0.0,0.0,0.0,0.0,0.0,0.0,0.0,0.0,0.0,0.0,0.0,0.0,0.0,0.0,0.0,0.0,0.0,0.0,0.0,0.0,0.0,0.0,0.0,0.0,0.0,0.0,0.0,0.0,0.0,0.0,0.0,0.0,0.0,0.0,0.0,0.0,0.0,0.0,0.0,0.0,0.0,0.0,0.0,0.0,0.0,0.0,0.0,0.0,0.0,0.0,0.0,0.0,0.0,0.0,0.0,0.0,0.0,0.0,0.0,0.0,0.0,0.0,0.0,0.0,0.0,0.0,0.0,0.0,0.0,0.0,0.0,0.0,0.0,0.0,0.0,0.0,0.0,0.0,0.0,0.0,0.0,0.0,0.0,0.0,0.0,0.0,0.0,0.0,0.0,0.0,0.0,0.0,0.0,0.0,0.0,0.0,0.0,0.0,0.0,0.0,0.0,0.0,0.0,0.0,0.0,0.0,0.0,0.0,0.0,0.0,0.0,0.0,0.0,0.0,0.0,0.0,0.0,0.0,0.0,0.0,0.0,0.0,0.0,0.0,0.0,0.0,0.0,0.0,0.0,0.0,0.0,0.0,0.0,0.0,0.0,0.0,0.0,0.0,0.0,0.0,0.0,0.0,0.0,0.0,0.0,0.0,0.0,0.0,0.0,0.0,0.0,0.0,0.0,0.0,0.0,0.0,0.0,0.0,0.0,0.0,0.0,0.0,0.0,0.0,0.0,0.0,0.0,0.0,0.0,0.0,0.0,0.0,0.0,0.0,0.0,0.0,0.0,0.0,0.0,0.0,0.0,0.0,0.0,0.0,0.0,0.0,0.0,0.0,0.0,0.0,0.0,0.0,0.0,0.0,0.0,0.0,0.0,0.0,0.0,0.0,0.0,0.0,0.0,0.0,0.0,0.0,0.0,0.0,0.0,0.0,0.0,0.0,0.0,0.0,0.0,0.0,0.0,0.0,0.0,0.0,0.0,0.0,0.0,0.0,0.0,0.0,0.0,0.0,0.0,0.0,0.0,0.0,0.0,0.0,0.0,0.0,0.0,0.0,0.0,0.0,0.0,0.0,0.0,0.0,0.0,0.0,0.0,0.0,0.0,0.0,0.0,0.0,0.0,0.0,0.0,0.0,0.0,0.0,0.0,0.0,0.0,0.0,0.0,0.0,0.0,0.0,0.0,0.0,0.0,0.0,0.0,0.0,0.0,0.0,0.0,0.0,0.0,0.0,0.0,0.0,0.0,0.0,0.0,0.0,0.0,0.0,0.0,0.0,0.0,0.0,0.0,0.0,0.0,0.0,0.0,0.0,0.0,0.0,0.0,0.0,0.0,0.0,0.0,0.0,0.0,0.0,0.0,0.0,0.0,0.0,0.0,0.0,0.0,0.0,0.0,0.0,0.0,0.0,0.0,0.0,0.0,0.0,0.0,0.0,0.0,0.0,0.0,0.0,0.0,0.0,0.0,0.0,0.0,0.0,0.0,0.0,0.0,0.0,0.0,0.0,0.0,0.0,0.0,0.0,0.0,0.0,0.0,0.0,0.0,0.0,0.0,0.0,0.0,0.0,0.0,0.0,0.0,0.0,0.0,0.0,0.0,0.0,0.0,0.0,0.0,0.0,0.0,0.0,0.0,0.0,0.0,0.0,0.0,0.0,0.0,0.0,0.0,0.0,0.0,0.0,0.0,0.0,0.0,0.0,0.0,0.0,0.0,0.0,0.0,0.0,0.0,0.0,0.0,0.0,0.0,0.0,0.0,0.0,0.0,0.0,0.0,0.0,0.0,0.0,0.0,0.0,0.0,0.0,0.0,0.0,0.0,0.0,0.0,0.0,0.0,0.0,0.0,0.0,0.0,0.0,0.0,0.0,0.0,0.0,0.0,0.0,0.0,0.0,0.0,0.0,0.0,0.0,0.0,0.0,0.0,0.0,0.0,0.0,0.0,0.0,0.0,0.0,0.0,0.0,0.0,0.0,0.0,0.0,0.0,0.0,0.0,0.0,0.0,0.0,0.0,0.0,0.0,0.0,0.0,0.0,0.0,0.0,0.0,0.0,0.0,0.0,0.0,0.0,0.0,0.0,0.0,0.0,0.0,0.0,0.0,0.0,0.0,0.0,0.0,0.0,0.0,0.0,0.0,0.0,0.0,0.0,0.0,0.0,0.0,0.0,0.0,0.0,0.0,0.0,0.0,0.0,0.0,0.0,0.0,0.0,0.0,0.0,0.0,0.0,0.0,0.0,0.0,0.0,0.0,0.0,0.0,0.0,0.0,0.0,0.0,0.0,0.0,0.0,0.0,0.0,0.0,0.0,0.0,0.0,0.0,0.0,0.0,0.0,0.0,0.0,0.0,0.0,0.0,0.0,0.0,0.0,0.0,0.0,0.0,0.0,0.0,0.0,0.0,0.0,0.0,0.0,0.0,0.0,0.0,0.0,0.0,0.0,0.0,0.0,0.0,0.0,0.0,0.0,0.0,0.0,0.0,0.0,0.0,0.0,0.0,0.0,0.0,0.0,0.0,0.0,0.0,0.0,0.0,0.0,0.0,0.0,0.0,0.0,0.0,0.0,0.0,0.0,0.9612,0.0,0.0,0.0,0.0,0.0,0.0,0.0,0.0,0.0,0.0,0.0,0.0,0.0,0.0,0.0,0.0,0.0,0.0,0.0,0.0,0.0,0.0,0.0,0.0,0.0,0.0,0.0,0.0,0.0,0.0,0.0,0.0,0.0,0.0,0.0,0.0,0.0,0.0,0.0,0.0,0.0,0.0,0.0,0.0,0.0,0.0,0.0,0.0,0.0,0.0,0.0,0.0,0.0,0.0,0.0,0.0,0.0,0.0,0.0,0.0,0.0,0.0,0.0,0.0,0.0,0.0,0.0,0.0,0.0,0.0,0.0,0.0,0.0,0.0,0.0,0.0,0.0,0.0,0.0,0.0,0.0,0.0,0.0,0.0,0.0,0.0,0.0,0.0,0.0,0.0,0.0,0.0,0.0,0.0,0.0,0.0,0.0,0.0,0.0,0.0,0.0,0.0,0.0,0.0,0.0,0.0,0.0,0.0,0.0,0.0,0.0,0.0,0.0,0.0,0.0,0.0,1.0029,0.0,0.0,0.0,0.0,0.0,0.0,0.0,0.0,0.0,0.0,0.0,0.0,0.0,0.0,0.0,0.0,0.0,0.0,0.0,0.0,0.0,0.0,0.0,0.0,0.0,0.0,0.0,0.0,0.0,0.0,0.0,0.0,0.0,0.0,0.0,0.0,0.0,0.0,0.0,0.0,0.0,0.0,0.0,0.0,0.0,0.0,0.0,0.0,0.0,0.0,0.0,0.0,0.0,0.0,0.0,0.0,0.0,0.0,0.0,0.0,0.0,0.0,0.0,0.0,0.0,0.0,0.0,0.0,0.0,0.0,0.0,0.0,0.0,0.0,0.0,0.0,0.0,0.0,0.0,0.0,0.0,0.0,0.0,0.0,0.0,0.0,0.0,0.0,0.0,0.0,0.0,0.0,0.0,0.0,0.0,0.0,0.0,0.0,0.0,0.0,0.0,0.0,0.0,0.0,0.0,0.0,0.0,0.0,0.0144,0.145,0.3083,0.4017,0.5386,0.716,0.9026,0.9572,0.9124,0.894,0.0,0.0,0.0,0.0,0.0,0.0,0.0,0.0,0.0,0.0,0.0,0.0,0.0,0.0,0.0,0.0,0.0,0.0,0.0,0.0,0.0,0.0,0.0,0.0,0.0,0.0,0.0,0.0,0.0,0.0,0.0,0.0,0.0,0.0,0.0,0.0,0.0,0.0,-0.8608,-0.9887,-1.0242,-0.9907,-1.1054,0.0,0.0,0.0,0.0,0.0,0.0,0.0,0.0,0.0,0.0,0.0,0.0,0.0,0.0,0.0,0.0,0.0,0.0,0.0,0.0,0.0,0.0,0.0,0.0,0.0,0.0,0.0,0.0,0.0,0.0,0.0,0.0,0.0,0.0,0.0,0.0,0.0,0.0,0.0,0.0,0.0,0.0,0.0,-0.6597,-0.5995,0.0,0.0,0.0,0.0,0.0,0.0,0.0,0.0,0.0,0.0,0.0,0.0,0.0,-0.3968,-0.4702,-0.4014,-0.3729,-0.3912,-0.2403,-0.0663,0.1188,0.189,0.3598,0.5975,0.6029,0.0,0.8086,0.7751,0.0,0.0,0.0,0.0,0.0,0.0,0.0,0.0,0.0,0.0,0.0,0.0,0.0,0.0,0.0,0.0,0.0,0.0,0.0,0.0,0.0,0.0,0.0,0.0,0.0,0.0,0.0,0.0,0.0,0.0,0.0,0.0,0.0,0.0,0.0,0.0,-0.8298,-0.8313,-0.8631,-0.9212,-0.9581,-0.977,-1.0195,-1.0805,-1.1396,-1.1274,0.0,0.0,0.0,0.0,0.0,0.0,0.0,0.0,0.0,0.0,0.0,0.0,0.0,0.0,0.0,0.0,0.0,0.0,0.0,0.0,0.0,0.0,0.0,0.0,0.0,0.0,0.0,0.0,0.0,0.0,0.0,0.0,0.0,0.0,0.0,0.0,0.0,0.0,0.0,-0.7928,-0.6344,-0.5664,-0.5471,-0.5584,0.0,0.0,0.0,0.0,0.0,0.0,0.0,0.0,0.0,-0.4214,-0.4496,-0.4923,-0.5415,-0.5629,-0.5839,-0.6042,-0.4416,-0.3003,-0.1887,-0.0722,0.1045,0.3199,0.3194,0.4235,0.6023,0.6338,0.691,0.7555,0.0,0.0,0.0,0.0,1.0488,1.0697,0.0,0.0,0.0,0.0,0.0,0.0,0.0,0.0,0.0,0.0,0.0,0.0,0.0,0.0,0.0,-0.8313,0.0,0.0,0.0,0.0,0.0,0.0,0.0,0.0,0.0,0.0,0.0,0.0,-0.8196,-0.8549,-0.9379,-0.9419,-0.9693,-1.0127,-1.0053,-1.0208,-1.0496,-1.0116,-1.036,0.0,0.0,0.0,0.0,0.0,0.0,0.0,0.0,0.0,0.0,0.0,0.0,0.0,0.0,0.0,0.0,0.0,0.0,0.0,0.0,0.0,0.0,0.0,0.0,0.0,0.0,0.0,0.0,0.0,0.0,0.0,0.0,0.0,0.0,0.0,0.0,0.0,0.0,-0.8333,-0.6608,-0.558,-0.5513,-0.5692,0.0,0.0,0.0,0.0,0.0,0.0,-0.4584,-0.4433,-0.448,-0.4861,-0.5374,-0.5859,-0.6284,-0.6882,-0.7359,-0.7654,-0.6231,-0.5081,-0.4234,-0.3148,-0.1753,-0.023,0.0449,0.1748,0.3459,0.4867,0.594,0.6678,0.7062,0.7704,0.8604,0.9952,1.0594,1.0814,0.0,0.0,0.0,0.0,0.0,0.0,0.0,0.0,0.0,0.0,0.0,0.0,0.0,0.0,-0.9123,-0.8029,-0.7961,-0.7715,0.0,0.0,0.0,0.0,0.0,0.0,0.0,0.0,0.0,-0.9599,-0.9052,-0.9512,-1.0889,-1.1142,-1.1281,-1.1329,-1.1049,-1.051,-0.9714,-0.9133,-0.9287,-0.9887,0.0,0.0,0.0,0.0,0.0,0.0,0.0,0.0,0.0,0.0,0.0,0.0,0.0,0.0,0.0,0.0,0.0,0.0,0.0,0.0,0.0,0.0,0.0,0.0,0.0,0.0,0.0,0.0,0.0,0.0,0.0,0.0,0.0,0.0,0.0,0.0,0.0,0.0,0.0,-0.6136,-0.5854,0.0,0.0,0.0,0.0,-0.4782,-0.4789,-0.4731,-0.468,-0.4674,-0.5063,-0.591,-0.5975,-0.6755,-0.8428,-0.7795,-0.7914,-0.8694,-0.7952,-0.6669,-0.5051,-0.4984,-0.4669,-0.4104,-0.2171,-0.0777,0.0442,0.3356,0.4832,0.5341,0.6732,0.7469,0.7814,0.887,0.9713,1.0175,0.0,0.0,0.0,0.0,0.0,0.0,0.0,0.0,0.0,0.0,0.0,0.0,0.0,-0.966,-0.9781,-0.9137,-0.8612,-0.8181,-0.7768,0.0,0.0,0.0,0.0,0.0,0.0,0.0,-0.8677,-0.8133,-0.8329,-0.8743,-0.933,-0.9014,-0.9466,-1.0441,-1.059,-1.0653,-1.0742,-0.978,-0.9309,-0.9197,-0.9438,-0.9753,0.0,0.0,0.0,0.0,0.0,0.0,0.0,0.0,0.0,0.0,0.0,0.0,0.0,0.0,0.0,0.0,0.0,0.0,0.0,0.0,0.0,0.0,0.0,0.0,0.0,0.0,0.0,0.0,0.0,0.0,0.0,0.0,0.0,0.0,0.0,0.0,0.0,-0.7074,-0.6113,0.0,-0.5474,-0.5097,-0.5093,-0.5632,-0.5221,-0.5399,-0.6392,-0.629,-0.7139,-0.9144,-0.8914,-0.9332,-1.0579,-1.0902,-1.0913,-1.0719,-0.9653,-0.8598,-0.7471,-0.6601,-0.567,-0.4652,-0.3805,-0.2104,0.0111,0.115,0.2846,0.4744,0.5315,0.5891,0.6595,0.8078,0.8757,0.9058,0.0,0.0,0.0,0.0,0.0,0.0,0.0,0.0,0.0,0.0,0.0,-0.9083,-0.8944,-0.9703,-0.9834,-0.8995,-0.8469,-0.7821,-0.7095,0.0,0.0,0.0,0.0,0.0,0.0,-0.8481,-0.8606,-0.7642,-0.7936,-0.8317,-0.8734,-0.8435,-0.9055,-1.0475,-1.0644,-1.0948,-1.1236,-1.0432,-0.9646,-0.8818,-0.933,-0.9429,-0.9368,0.0,0.0,0.0,0.0,0.0,0.0,0.0,0.0,0.0,0.0,0.0,0.0,0.0,0.0,0.0,0.0,0.0,0.0,0.0,0.0,0.0,0.0,0.0,0.0,0.0,0.0,0.0,0.0,0.0,0.0,0.0,0.0,0.0,0.0,0.0,-0.8543,-0.7825,-0.6942,-0.6444,-0.6517,-0.6322,-0.6438,-0.6948,-0.6578,-0.6736,-0.7808,-0.8073,-0.9108,-1.1156,-1.1024,-1.1399,-1.2305,-1.2797,-1.2757,-1.2197,-1.0984,-0.9993,-0.9118,-0.7879,-0.652,-0.5035,-0.4919,-0.36,-0.1502,-0.0946,0.0712,0.3108,0.4078,0.486,0.553,0.6939,0.7572,0.7891,0.0,0.0,0.0,0.0,0.0,0.0,0.0,0.0,0.0,0.0,-0.8355,-0.8578,-0.8414,-0.9309,-0.92,-0.7457,-0.726,-0.6563,-0.4861,-0.5054,0.0,0.0,0.0,0.0,-0.7076,-0.7506,-0.7932,-0.8353,-0.7979,-0.834,-0.939,-0.9526,-1.0272,-1.1484,-1.1484,-1.1271,-1.1045,-1.1039,-1.0176,-0.8915,-0.9485,-0.9174,-0.8498,0.0,0.0,0.0,0.0,0.0,0.0,0.0,0.0,0.0,0.0,0.0,0.0,0.0,0.0,0.0,0.0,0.0,0.0,0.0,0.0,0.0,0.0,0.0,0.0,0.0,0.0,0.0,0.0,0.0,0.0,0.0,0.0,0.0,-1.0883,-1.041,-0.9679,-0.8446,-0.8409,-0.8137,-0.7245,-0.794,-0.8498,-0.8586,-0.868,-0.8775,-0.8915,-0.9869,-1.081,-1.1703,-1.2167,-1.2782,-1.3663,-1.3314,-1.3078,-1.3,-1.19,-1.0785,-0.9822,-0.8714,-0.7228,-0.5592,-0.5542,-0.5117,-0.4366,-0.2901,-0.1393,0.0222,0.3274,0.4436,0.4535,0.5458,0.6072,0.6632,0.0,0.0,0.0,0.0,0.0,0.0,0.0,0.0,0.0,0.0,-0.7935,-0.7967,-0.8021,-0.7956,-0.781,-0.7614,-0.675,-0.6021,-0.5657,0.0,0.0,0.0,0.0,0.0,-0.6625,-0.7673,-0.7739,-0.6881,-0.7631,-0.7752,-0.7445,-0.7495,-0.8569,-1.0342,-1.0342,-1.0811,-1.1723,-1.2355,-1.154,-0.9766,-0.953,-0.9151,-0.8737,0.0,0.0,0.0,0.0,0.0,0.0,0.0,0.0,0.0,0.0,0.0,0.0,0.0,0.0,0.0,0.0,0.0,0.0,0.0,0.0,0.0,0.0,0.0,0.0,0.0,0.0,0.0,0.0,0.0,0.0,0.0,0.0,-1.1951,-1.1681,-1.1465,-1.1091,-1.0433,-1.0013,-0.9448,-0.8896,-0.9183,-0.9347,-0.9243,-1.0098,-1.0953,-1.1564,-1.2425,-1.3399,-1.4706,-1.4672,-1.4871,-1.5435,-1.5322,-1.4805,-1.3837,-1.2538,-1.1445,-1.0528,-0.9241,-0.8063,-0.7069,-0.6529,-0.5597,-0.4443,-0.4018,-0.2956,-0.128,0.1671,0.2843,0.2832,0.2749,0.367,0.5155,0.0,0.0,0.0,0.0,0.0,0.0,0.0,0.0,0.0,0.0,-0.7456,-0.7477,-0.7292,-0.709,-0.6936,-0.689,-0.6243,-0.5626,-0.5274,0.0,0.0,0.0,0.0,-0.672,-0.6143,-0.7474,-0.7597,-0.6349,-0.72,-0.7281,-0.6797,-0.7359,-0.856,-1.0221,-1.0714,-1.1377,-1.2093,-1.2624,-1.1893,-1.0414,-1.086,-1.0593,-0.999,-1.0161,-1.0581,-1.0948,-1.1011,-1.1809,-1.2946,-1.3922,0.0,0.0,0.0,0.0,0.0,0.0,0.0,0.0,0.0,0.0,0.0,0.0,0.0,0.0,0.0,0.0,0.0,0.0,0.0,0.0,0.0,0.0,0.0,0.0,-1.2248,-1.2557,-1.2816,-1.2247,-1.1713,-1.1703,-1.13,-1.0886,-1.0521,-1.0925,-1.1354,-1.1719,-1.2259,-1.2962,-1.3954,-1.4783,-1.5517,-1.6156,-1.6409,-1.6579,-1.6621,-1.6311,-1.5747,-1.4999,-1.3029,-1.1872,-1.1335,-0.9599,-0.8209,-0.7235,-0.6804,-0.5819,-0.4501,-0.4525,-0.3968,0.0,0.0,0.0,0.0,0.0,0.1591,0.2795,0.0,0.0,0.0,0.0,0.0,0.0,0.0,0.0,0.0,0.0,0.0,-0.6913,-0.6327,-0.6376,-0.6187,-0.5649,-0.5582,-0.5206,0.0,0.0,0.0,-0.4986,-0.6129,-0.6542,-0.5871,-0.7053,-0.7304,-0.6522,-0.6797,-0.6939,-0.6956,-0.8297,-0.9492,-1.0611,-1.1809,-1.2328,-1.2328,-1.2413,-1.1895,-1.1187,-1.3035,-1.2942,-1.1661,-1.155,-1.1826,-1.2186,-1.2217,-1.2506,-1.3156,-1.465,0.0,0.0,0.0,0.0,0.0,0.0,0.0,0.0,0.0,0.0,0.0,0.0,0.0,0.0,0.0,0.0,0.0,0.0,0.0,0.0,0.0,0.0,0.0,0.0,-1.312,-1.3608,-1.4304,-1.3258,-1.2359,-1.254,-1.2457,-1.229,-1.2165,-1.2843,-1.3715,-1.4777,-1.466,-1.4937,-1.6037,0.0,0.0,0.0,0.0,-1.7881,-1.7461,-1.6694,-1.6223,-1.6045,-1.3575,-1.2307,-1.2081,-1.0009,-0.8296,-0.6937,-0.6768,-0.5986,-0.4927,-0.472,-0.4657,-0.4581,-0.307,-0.2282,-0.1885,-0.105,-0.0607,-0.0,0.0,0.0,0.0,0.0,0.0,0.0,0.0,0.0,0.0,-0.6667,-0.627,-0.5846,-0.5404,-0.469,-0.427,-0.4332,-0.4235,-0.4264,0.0,0.0,-0.505,-0.5443,-0.5908,-0.6214,-0.6335,-0.6708,-0.6881,-0.6841,-0.6898,-0.6987,-0.7102,-0.8348,-0.9492,-1.0611,-1.1809,-1.2328,-1.2328,-1.3379,-1.3613,-1.3471,-1.4774,-1.4296,-1.2953,-1.4083,-1.4296,-1.3916,-1.3611,-1.4604,-1.6103,-1.6229,-1.759,-1.9202,-1.8785,0.0,0.0,0.0,0.0,0.0,0.0,0.0,0.0,0.0,0.0,0.0,0.0,0.0,0.0,0.0,0.0,0.0,0.0,0.0,0.0,-1.3099,-1.3575,-1.4528,-1.6315,-1.6322,-1.5765,-1.4612,-1.4261,-1.3906,-1.3678,-1.3563,-1.3952,-1.512,-1.5905,-1.6798,-1.7737,-1.8817,-1.9168,-1.8817,-1.8621,-1.8311,-1.7891,-1.7383,-1.6768,-1.6055,0.0,0.0,-1.2472,-1.1125,-0.9996,-0.9042,-0.775,-0.7297,-0.7359,-0.6063,-0.5802,-0.6046,-0.4639,-0.447,-0.5062,-0.5242,-0.4207,-0.2524,0.0,0.0,0.0,0.0,0.0,0.0,0.0,0.0,0.0,0.0,-0.6118,-0.5579,-0.5135,-0.4343,-0.386,-0.4009,-0.4019,0.0,0.0,-0.4857,-0.5226,-0.5677,-0.6051,-0.6356,-0.658,-0.6807,-0.6922,-0.6929,-0.7,-0.7071,-0.7139,-0.8882,-1.0009,-1.0697,-1.2425,-1.3529,-1.4015,-1.4629,-1.5206,-1.5741,-1.6903,-1.6661,-1.5715,-1.5815,-1.5766,-1.5659,-1.5492,-1.6214,-1.7368,-1.7566,-1.8435,-1.9335,-1.8778,-1.8601,-1.8375,0.0,0.0,0.0,0.0,0.0,0.0,0.0,0.0,0.0,0.0,0.0,0.0,0.0,0.0,-1.5038,0.0,0.0,-1.4935,-1.5799,-1.5789,-1.6323,-1.8128,-1.8312,-1.8006,-1.7153,-1.6876,-1.6583,-1.6094,-1.5899,-1.6211,-1.7078,-1.7439,-1.8035,-1.906,-1.9601,-1.9727,-1.9297,-1.9277,-1.8965,-1.833,-1.791,-1.7373,-1.6719,-1.5149,-1.3868,-1.2839,-1.1537,-1.0279,-0.9084,-0.8305,-0.7885,-0.7769,-0.6845,-0.6505,-0.6534,-0.5841,-0.5845,-0.6277,-0.6519,-0.5878,-0.4953,0.0,0.0,0.0,0.0,0.0,0.0,0.0,0.0,0.0,0.0,-0.6144,-0.5667,-0.5227,-0.4558,-0.4164,0.0,0.0,0.0,0.0,-0.5009,-0.5376,-0.5827,-0.6274,-0.6586,-0.6742,-0.7004,-0.7085,-0.697,-0.7085,-0.7228,-0.7489,-0.957,-1.0697,-1.1042,-1.3124,-1.4734,-1.5696,-1.5696,-1.6437,-1.7747,-1.863,-1.8903,-1.8637,-1.7384,-1.7106,-1.733,-1.7346,-1.7584,-1.7965,-1.8432,-1.8727,-1.8823,-1.8461,-1.843,-1.8259,-1.6985,-1.6121,0.0,0.0,0.0,0.0,0.0,0.0,0.0,0.0,0.0,-1.6033,-1.7103,-1.7418,-1.7596,-1.8063,-1.7441,-1.7327,-1.8537,-1.8105,-1.8159,-1.9629,-1.9852,-1.9842,-1.9901,-1.9445,-1.8792,-1.8136,-1.8012,-1.8309,-1.8913,-1.8659,-1.8865,-1.9963,-2.0039,-1.9883,-1.9551,-1.9775,-1.958,-1.8896,-1.8379,-1.792,-1.749,-1.5685,-1.4403,-1.3458,-1.2014,-1.0566,-0.9229,-0.9001,-0.8444,-0.7763,-0.76,-0.7422,-0.729,-0.709,-0.7122,-0.7171,-0.6907,-0.6804,-0.6804,0.0,0.0,0.0,0.0,0.0,0.0,0.0,0.0,0.0,0.0,0.0,0.0,0.0,0.0,0.0,0.0,0.0,0.0,-0.4863,-0.5169,-0.5535,-0.5983,-0.6437,-0.6746,-0.6902,-0.7058,-0.7132,-0.7115,-0.7132,-0.7665,-0.8715,-1.0009,-1.1123,-1.2157,-1.347,-1.4734,-1.5696,-1.5696,-1.6919,-1.8798,-1.8957,-1.9573,-2.0267,-1.9665,-1.9137,-1.8829,-1.8717,-1.8621,-1.848,-1.8602,-1.9097,-1.9595,-1.9071,-1.9258,-1.9321,-1.7768,0.0,-1.5545,-1.5786,-1.5342,-1.4848,-1.5166,-1.5303,-1.5947,0.0,0.0,-1.7509,-1.9155,-1.8574,-1.7943,-1.8725,-1.8607,-1.8546,-1.9004,-1.9199,-1.9711,-2.0926,-2.1114,-2.1471,-2.2522,-2.0589,-1.8891,-1.8399,-1.8153,-1.8309,-1.8913,-1.8912,-1.9367,-2.0488,-2.0498,-2.0469,-2.043,-2.0088,-1.9863,-1.9775,-1.8965,-1.8359,-1.793,-1.6893,-1.5798,-1.4665,-1.3371,-1.2271,-1.1399,-1.035,-0.9442,-0.8653,-0.8884,-0.9315,-0.9792,-0.8891,-0.8942,-0.9287,-0.8031,-0.7557,-0.7557,0.0,0.0,0.0,0.0,0.0,0.0,0.0,0.0,0.0,0.0,0.0,0.0,0.0,0.0,0.0,0.0,0.0,0.0,-0.5397,-0.5229,-0.5342,-0.5874,-0.6251,-0.6597,-0.6922,-0.6987,-0.7058,-0.7139,-0.7841,-0.8364,-0.8978,-1.0783,-1.1809,-1.2328,-1.3555,-1.5061,-1.6601,-1.6601,-1.79,-2.0001,-2.0508,-2.0666,-2.0589,-2.0853,-2.0042,-1.8809,-1.8737,-1.8743,0.0,0.0,-1.9058,-1.9309,-1.9079,-1.8923,-1.862,-1.7211,-1.6314,0.0,-1.5698,-1.5575,-1.5693,0.0,-1.7119,-1.8018,-1.9346,-1.9399,-1.9535,-2.08,-2.0727,-2.0662,-2.1249,-2.0685,-2.0421,0.0,-2.0927,-2.0935,-2.2217,-2.2195,-2.2141,-2.2357,-2.1372,-2.0677,-2.0428,-2.0127,-1.9885,-1.9951,-1.9923,-2.0167,-2.0566,-2.0566,-2.0566,-2.0566,-2.0391,-2.0166,-1.9912,-1.9561,-1.9043,-1.8369,-1.7764,-1.6701,-1.5196,-1.4489,-1.326,-1.1764,-1.0788,-1.0082,-0.9583,-0.9485,-0.9834,-1.0223,-0.964,-0.9562,-0.9658,-0.8679,-0.8321,-0.8321,0.0,0.0,0.0,0.0,0.0,0.0,0.0,0.0,0.0,0.0,0.0,0.0,0.0,0.0,0.0,0.0,0.0,0.0,0.0,-0.5081,-0.5111,-0.5538,-0.5928,-0.6305,-0.6675,-0.6763,-0.6875,-0.7017,-0.8269,-0.8983,-0.9325,-1.1283,-1.2397,-1.2734,-1.3771,-1.5331,-1.7177,-1.7326,-1.8677,-2.0801,-2.1205,-2.1129,-2.0717,-2.0761,-1.9823,-1.8466,-1.8466,-1.84,0.0,0.0,-1.8395,-1.8516,-1.8526,-1.838,-1.7999,-1.7027,-1.6428,-1.6073,-1.5914,-1.6158,0.0,-1.783,-1.8893,-1.9785,-2.0332,-2.0791,-2.1318,-2.207,-2.2383,-2.2607,-2.291,-2.2138,-2.183,-2.2766,-2.2233,-2.1998,-2.294,-2.2676,-2.2266,-2.208,-2.1738,-2.1572,-2.1699,-2.1416,-2.1045,-2.0596,-2.0566,-2.0566,-2.0566,-2.0566,-2.0566,-2.0566,-2.0566,-2.041,-2.0098,-1.9971,-1.9541,-1.8809,-1.8271,-1.7207,-1.5835,-1.5058,-1.361,-1.1772,-1.1163,-1.0677,-1.0214,-1.0151,-1.0408,-1.0816,-1.0431,-1.0358,-1.0454,-0.965,-0.9106,-0.8804,0.0,0.0,0.0,0.0,0.0,0.0,0.0,0.0,0.0,0.0,0.0,0.0,0.0,0.0,0.0,0.0,0.0,0.0,0.0,-0.4674,-0.4928,-0.4945,-0.5504,-0.5891,-0.6054,-0.6339,-0.6559,-0.6715,-0.8026,-0.9283,-1.0366,-1.1455,-1.2465,-1.3559,-1.4281,-1.5467,-1.6921,-1.7436,-1.9058,-2.1073,-2.0201,-2.0271,-2.0734,-1.9095,-1.8398,-1.8207,-1.8207,0.0,0.0,0.0,-1.6944,-1.7371,-1.7448,-1.7765,0.0,-1.7775,-1.7057,-1.6479,-1.6986,0.0,-1.7803,-1.9594,-2.0285,-2.0752,-2.1631,-2.2148,-2.2578,-2.3018,-2.2783,-2.2519,-2.2529,-2.2197,-2.2051,-2.2461,-2.2529,-2.258,-2.3076,-2.2432,-2.2051,-2.2441,-2.1377,-2.0781,0.0,-2.124,-2.1045,-2.0596,-2.0566,-2.0566,-2.0566,-2.0566,-2.0566,-2.0566,-2.0566,-2.0557,-2.0547,-2.0127,-1.9697,-1.9258,-1.8408,-1.7559,-1.6636,-1.4967,-1.3364,-1.1834,-1.1764,-1.1344,-1.0647,-1.1044,-1.1678,-1.2257,-1.1693,-1.1834,-1.2279,-1.1158,-0.9917,-0.8804,0.0,0.0,0.0,0.0,0.0,0.0,0.0,0.0,0.0,0.0,0.0,0.0,0.0,0.0,0.0,0.0,0.0,0.0,0.0,-0.4498,-0.4409,-0.4609,-0.4999,-0.5332,-0.5583,-0.5783,-0.5959,-0.6105,-0.7472,-0.8635,-0.9555,-1.0716,-1.2113,-1.3575,-1.3761,-1.5137,-1.7323,-1.7487,-1.8696,-2.0517,-2.0526,-2.0435,-2.0193,-1.9153,-1.8314,-1.7614,0.0,0.0,0.0,0.0,0.0,0.0,-1.7225,0.0,-1.6558,-1.6979,-1.7017,-1.7137,-1.8158,0.0,-1.9817,-2.0652,-2.1342,-2.2012,-2.2588,-2.2607,-2.2471,-2.2334,-2.1728,-2.1133,-2.084,-2.0674,-2.082,-2.1543,-2.1904,-2.2344,-2.3047,-2.2656,-2.2139,-2.1719,-2.1279,0.0,0.0,0.0,0.0,-2.0576,-2.0566,-2.0566,-2.0566,-2.0566,-2.0566,-2.0566,-2.0566,-2.0566,-2.0566,-2.042,-1.999,-1.9268,-1.7842,-1.7012,-1.6636,-1.4948,-1.3906,-1.3356,-1.2818,-1.2458,-1.2189,-1.2139,-1.258,-1.3173,-1.2703,-1.2717,-1.2869,-1.2458,-1.1292,-0.9907,0.0,0.0,0.0,0.0,0.0,0.0,0.0,0.0,0.0,0.0,0.0,0.0,0.0,0.0,0.0,0.0,0.0,0.0,0.0,0.0,-0.4104,-0.4297,-0.4599,-0.4901,-0.5196,-0.5286,-0.543,-0.5644,-0.7136,-0.8178,-0.8744,-1.0441,-1.1915,-1.315,-1.3755,-1.5141,-1.7158,-1.7129,-1.8143,-1.9775,-1.9757,-1.9649,-1.949,-1.8614,-1.7939,0.0,0.0,0.0,0.0,0.0,0.0,0.0,-1.6951,-1.6552,-1.6051,-1.6401,-1.6885,-1.7632,-1.9286,-2.0257,-2.0931,-2.199,-2.2458,-2.2764,-2.2891,-2.2588,-2.2119,-2.1533,-2.0713,-1.9971,-1.9541,-1.9209,-1.9346,-2.0371,-2.0644,-2.1191,-2.251,-2.2187,-2.1787,-2.1699,-2.1426,-2.1074,0.0,0.0,0.0,-2.0576,-2.0566,-2.0566,-2.0566,-2.0566,-2.0566,-2.0566,-2.0566,-2.0566,-2.0566,-2.041,-1.9902,-1.9043,-1.7637,-1.6885,-1.6646,-1.5411,-1.4648,-1.4145,-1.3666,-1.3252,-1.2992,-1.3118,-1.3427,-1.3798,-1.3747,-1.369,-1.3672,-1.3532,-1.2419,-1.0919,0.0,0.0,0.0,0.0,0.0,0.0,0.0,0.0,0.0,0.0,0.0,0.0,0.0,0.0,0.0,0.0,0.0,0.0,0.0,0.0,0.0,-0.3995,-0.4343,-0.4642,-0.4867,-0.4836,-0.5044,-0.538,-0.7122,-0.8024,-0.8099,-1.0434,-1.192,-1.2619,-1.4245,-1.5517,-1.6578,-1.6514,-1.7496,-1.8897,-1.8055,-1.8106,-1.8576,-1.7468,0.0,0.0,0.0,0.0,0.0,0.0,0.0,0.0,0.0,-1.6478,-1.6488,-1.6166,-1.68,-1.8081,-2.0409,-2.0948,-2.1273,-2.3443,-2.3488,-2.2998,-2.2578,-2.21,-2.1504,-2.0615,-1.9717,-1.8965,0.0,0.0,-1.7744,-1.9043,-1.8965,-1.9482,-2.1621,-2.1211,-2.1152,0.0,0.0,0.0,0.0,0.0,0.0,-2.0664,0.0,-2.0596,-2.0596,-2.0596,-2.0586,-2.0566,-2.0566,-2.0566,-2.0566,-2.0107,-1.9463,-1.8623,-1.7783,-1.7168,-1.6748,-1.6279,-1.547,-1.43,-1.4282,-1.3855,-1.3191,-1.3974,-1.4273,-1.4296,-1.4706,-1.4853,-1.4805,-1.4385,-1.3259,-1.1847,0.0,0.0,0.0,0.0,0.0,0.0,0.0,0.0,0.0,0.0,0.0,0.0,0.0,0.0,0.0,0.0,0.0,0.0,0.0,0.0,0.0,0.0,0.0,0.0,0.0,0.0,0.0,0.0,0.0,-0.7937,-0.8934,-1.029,-1.1859,-1.3507,-1.4846,-1.6188,-1.7594,-1.7958,-1.8384,-1.8795,0.0,-1.7747,-1.7351,0.0,0.0,0.0,0.0,0.0,0.0,0.0,0.0,0.0,0.0,-1.5655,-1.6134,-1.7053,-1.8302,-1.9723,-2.1115,-2.232,-2.3135,-2.3318,-2.2985,-2.2568,-2.2139,-2.0957,-1.9707,-1.8838,-1.7451,-1.6367,0.0,0.0,0.0,-1.8535,-1.9521,0.0,-2.2139,-2.2422,0.0,-2.251,0.0,-2.2109,-2.1904,-2.1787,0.0,0.0,-2.124,-2.1064,-2.1064,-2.1064,-2.0908,-2.0576,-2.0566,-2.0566,-2.0566,-1.9824,-1.918,-1.8623,-1.7783,-1.7324,-1.7187,-1.6416,-1.5936,-1.5629,-1.5252,-1.4991,-1.4805,-1.4991,-1.5108,-1.5137,-1.5595,-1.5802,-1.5723,-1.5615,-1.4464,-1.2789,0.0,0.0,0.0,0.0,0.0,0.0,0.0,0.0,0.0,0.0,0.0,0.0,0.0,0.0,0.0,0.0,0.0,0.0,0.0,0.0,0.0,0.0,0.0,0.0,0.0,0.0,0.0,0.0,0.0,0.0,0.0,-1.01,-1.1797,-1.3631,-1.4663,-1.5924,-1.7206,-1.7175,0.0,0.0,0.0,0.0,0.0,0.0,0.0,0.0,0.0,0.0,0.0,0.0,0.0,-1.6094,-1.5786,-1.6067,-1.6698,-1.7622,0.0,-2.047,-2.1292,-2.2514,-2.3458,-2.2928,-2.2549,-2.1973,-2.0977,-1.9697,-1.8369,-1.7129,-1.5947,0.0,-1.4883,0.0,0.0,0.0,0.0,0.0,-2.1396,-2.2031,-2.2422,0.0,-2.2783,0.0,-2.2461,-2.2266,-2.2236,0.0,-2.1865,-2.1435,-2.125,-2.123,-2.1025,-2.0576,-2.0566,-2.0469,-2.0283,-1.9619,-1.9072,-1.8562,-1.7969,-1.7559,-1.7363,-1.6865,-1.6533,-1.6328,0.0,-1.5693,-1.5684,-1.5488,-1.5527,-1.5723,-1.6027,-1.6182,-1.6357,-1.6357,-1.5321,-1.3891,0.0,0.0,0.0,0.0,0.0,0.0,0.0,0.0,0.0,0.0,0.0,0.0,0.0,0.0,0.0,0.0,0.0,0.0,0.0,0.0,0.0,0.0,0.0,0.0,0.0,0.0,0.0,0.0,0.0,0.0,0.0,0.0,0.0,0.0,0.0,0.0,0.0,0.0,0.0,0.0,0.0,0.0,0.0,0.0,0.0,0.0,0.0,0.0,0.0,0.0,-1.5403,-1.612,-1.6331,-1.7051,-1.7795,-1.8065,-1.9355,-2.0752,-2.1201,-2.2207,-2.3037,-2.2617,-2.2109,-2.1269,-1.959,-1.8408,-1.7197,-1.5576,0.0,-1.4434,-1.4111,-1.4087,-1.4639,-1.5937,0.0,-1.7822,-2.0225,-2.1006,-2.1748,-2.291,-2.3183,-2.3299,-2.3299,-2.2965,-2.2992,-2.327,-2.2546,-2.1865,-2.1426,-2.1348,-2.1084,-2.0576,-2.0566,-2.0352,-1.9922,-1.9502,-1.9072,-1.8633,-1.8213,-1.7822,-1.7461,-1.7402,-1.7178,-1.6797,-1.6348,-1.6152,-1.6123,-1.5742,-1.5811,-1.6223,-1.6282,-1.6475,-1.6816,-1.6816,-1.6012,-1.4943,0.0,0.0,0.0,0.0,0.0,0.0,0.0,0.0,0.0,0.0,0.3041,0.263,0.0,0.0,0.0,0.0,0.0,0.0,0.0,0.0,0.0,0.0,0.0,0.0,0.0,0.0,0.0,0.0,0.0,0.0,0.0,0.0,0.0,0.0,0.0,0.0,0.0,0.0,0.0,0.0,0.0,0.0,0.0,0.0,0.0,0.0,0.0,0.0,0.0,0.0,-1.4897,-1.6363,-1.6587,-1.7455,-1.8527,-1.8916,-2.0039,-2.1221,-2.165,-2.2441,-2.3037,-2.2617,-2.165,-2.0439,-1.9062,-1.7246,0.0,0.0,-1.374,-1.3291,-1.3564,-1.4199,-1.5098,-1.6406,0.0,0.0,0.0,0.0,-2.1982,0.0,0.0,0.0,0.0,0.0,0.0,0.0,-2.3497,-2.2734,-2.2314,-2.1963,-2.1406,-2.0586,-2.0566,-2.0352,-1.9922,-1.9502,-1.9072,-1.8633,-1.8213,-1.7969,-1.7891,-1.7539,-1.7344,-1.7246,-1.6807,0.0,-1.6611,-1.6533,-1.6553,-1.665,-1.7012,-1.7207,-1.7275,-1.7275,-1.6512,-1.5369,0.0,0.0,0.0,0.0,0.0,0.0,0.0,0.0,0.3761,0.3961,0.3626,0.3299,0.3124,0.2876,0.0,0.0,0.0,0.0,0.0,0.0,0.0,0.0,0.0,0.0,0.0,0.0,0.0,0.0,0.0,0.0,0.0,0.0,0.0,0.0,0.0,0.0,0.0,0.0,0.0,0.0,0.0,0.0,0.0,0.0,0.0,0.0,0.0,0.0,0.0,0.0,-1.4265,-1.5365,-1.637,-1.7461,-1.8437,-1.9092,-2.0049,-2.1035,-2.1709,-2.2178,-2.2383,-2.1953,-2.0693,-1.916,-1.7646,0.0,0.0,0.0,-1.3164,-1.2939,-1.3145,0.0,0.0,0.0,0.0,0.0,0.0,0.0,0.0,0.0,0.0,0.0,0.0,0.0,0.0,0.0,-2.4296,-2.3533,-2.2529,-2.1904,-2.1348,-2.0928,-2.0684,-2.0469,-2.0254,-1.9609,-1.918,-1.8965,-1.832,-1.8008,-1.8008,-1.7803,-1.7705,-1.7686,-1.7256,-1.707,-1.7051,-1.6826,-1.6865,-1.709,-1.7305,-1.7519,-1.7705,-1.7705,-1.7014,-1.6154,0.0,0.0,0.0,0.0,0.0,0.0,0.0,0.3894,0.3997,0.4242,0.4021,0.3798,0.3611,0.2885,0.1737,0.0,0.0,0.0,0.0,0.0,0.0,0.0,0.0,0.0,0.0,0.0,0.0,0.0,0.0,0.0,0.0,0.0,0.0,0.0,0.0,0.0,0.0,0.0,0.0,0.0,0.0,0.0,0.0,0.0,0.0,0.0,0.0,0.0,0.0,0.0,-1.3369,-1.3941,-1.5488,-1.6885,-1.7988,-1.8564,-1.9541,-2.0576,-2.1279,-2.167,-2.1758,-2.1221,-1.9785,-1.8076,-1.6436,-1.5,0.0,0.0,-1.2881,-1.2881,-1.2881,0.0,-1.3789,0.0,-1.5137,0.0,0.0,0.0,0.0,0.0,0.0,0.0,0.0,0.0,0.0,0.0,-2.4713,-2.3815,-2.2487,-2.165,-2.1191,-2.1094,-2.0752,-2.0566,-2.0566,-1.9805,-1.9448,-1.9558,-1.8775,-1.8484,-1.8529,-1.8687,-1.8602,-1.8388,-1.8218,-1.7984,-1.7764,-1.7422,-1.7432,-1.7656,-1.7656,-1.7927,-1.8269,-1.8269,-1.7714,-1.7086,0.0,0.0,0.0,0.0,0.0,0.0,0.0,0.3898,0.3928,0.5048,0.4108,0.3519,0.3909,0.2428,0.1039,0.0,0.0,0.0,0.0,0.0,0.0,0.0,0.0,0.0,0.0,0.0,0.0,0.0,0.0,0.0,0.0,0.0,0.0,0.0,0.0,0.0,0.0,0.0,0.0,0.0,0.0,0.0,0.0,0.0,0.0,0.0,0.0,0.0,0.0,0.0,0.0,-1.2521,-1.3506,-1.5478,-1.7383,-1.7061,0.0,0.0,-2.0068,-2.0967,-2.1689,-2.084,-1.9336,-1.7715,-1.6367,0.0,0.0,-1.2978,-1.2881,-1.2881,-1.2881,-1.3223,-1.3789,0.0,0.0,-1.5898,0.0,0.0,0.0,0.0,0.0,0.0,0.0,0.0,0.0,0.0,-2.4392,-2.2869,-2.1982,-2.1494,-2.1045,-2.0635,-2.0586,-2.0566,-2.0566,-2.0098,-2.0092,-2.0461,-1.9952,-1.9956,-2.0355,-2.0864,-2.0584,-1.9734,-2.0257,-1.9941,0.0,-1.9072,-1.8848,-1.8525,-1.8525,-1.8773,-1.9177,-1.9177,-1.8657,-1.7996,0.0,0.0,0.0,0.0,0.0,0.0,0.0,0.368,0.4072,0.4782,0.421,0.3723,0.3686,0.2775,0.1575,0.0,0.0,0.0,0.0,0.0,0.0,0.0,0.0,0.0,0.0,0.0,0.0,0.0,0.0,0.0,0.0,0.0,0.0,0.0,0.0,0.0,0.0,0.0,0.0,0.0,0.0,0.0,0.0,0.0,0.0,0.0,0.0,0.0,0.0,0.0,0.0,0.0,-1.2806,-1.3584,0.0,0.0,-1.7305,-1.8613,-1.9639,-2.0293,-2.0615,-2.0264,-1.8701,-1.6973,-1.5908,0.0,-1.3076,-1.291,-1.2881,-1.2881,-1.2881,-1.3018,-1.3461,0.0,0.0,0.0,0.0,0.0,0.0,0.0,0.0,0.0,0.0,0.0,0.0,0.0,-2.3815,-2.2735,-2.2757,-2.2026,-2.1426,-2.0986,-2.1296,-2.1441,-2.1441,-2.1586,-2.1629,-2.1413,-2.1377,-2.1229,-2.1104,-2.1295,-2.1186,-2.0795,-2.1059,-2.0599,0.0,-2.0628,-2.0401,-1.9371,-1.9441,-1.9765,-2.0009,-1.9497,-1.8721,-1.8108,0.0,0.0,0.0,0.0,0.0,0.2704,0.2958,0.3391,0.3919,0.4456,0.4098,0.3702,0.3523,0.2962,0.191,0.0167,0.0,0.0,0.0,0.0,0.0,0.0,0.0,0.0,0.0,0.0,0.0,-0.8311,-0.873,0.0,0.0,0.0,0.0,0.0,0.0,0.0,0.0,0.0,0.0,0.0,0.0,0.0,0.0,0.0,0.0,0.0,0.0,0.0,0.0,0.0,0.0,0.0,0.0,0.0,0.0,0.0,-1.5982,-1.705,-1.8377,-1.9053,-1.9316,-1.9199,-1.7744,-1.6143,0.0,0.0,-1.2881,-1.2881,-1.2881,-1.2881,-1.2881,-1.3065,-1.3427,0.0,0.0,-1.4662,-1.6992,0.0,0.0,0.0,0.0,0.0,0.0,0.0,0.0,-2.5419,-2.4002,-2.3371,-2.3823,-2.2998,-2.2341,-2.1883,-2.2216,-2.2478,-2.2478,-2.2889,-2.2905,-2.2685,-2.2765,-2.2557,-2.2197,-2.2348,-2.2128,-2.1727,-2.1875,-2.1397,0.0,-2.1638,-2.1415,-2.0311,-2.0379,-2.0489,-2.0515,-1.9975,-1.9039,-1.8148,0.0,0.0,0.0,0.0,0.0,0.0,0.0,0.3084,0.3356,0.4284,0.369,0.3271,0.3468,0.2836,0.1767,0.0132,0.0,0.0,0.0,0.0,0.0,0.0,0.0,0.0,0.0,0.0,0.0,-0.7425,-0.8728,-0.9651,-1.0205,0.0,0.0,0.0,0.0,0.0,0.0,0.0,0.0,0.0,0.0,0.0,0.0,0.0,0.0,0.0,0.0,0.0,0.0,0.0,0.0,0.0,0.0,0.0,0.0,0.0,-1.4279,-1.526,-1.5972,-1.7051,-1.793,-1.7519,-1.6406,-1.5312,0.0,0.0,-1.2881,-1.2881,-1.2881,-1.2881,-1.2881,-1.3372,-1.3915,-1.4317,-1.5393,0.0,-1.6732,0.0,0.0,0.0,0.0,0.0,0.0,0.0,0.0,-2.6521,-2.5394,0.0,-2.4993,-2.4457,-2.3966,-2.3475,-2.3452,-2.3514,-2.3514,-2.3514,-2.3701,-2.4151,-2.4151,-2.4099,-2.4017,-2.4505,-2.3956,-2.2533,-2.3053,-2.2728,0.0,-2.1909,-2.162,-2.1174,-2.1174,-2.0951,-2.0662,-2.0895,-1.972,-1.8287,0.0,0.0,0.0,0.0,0.0,0.0,0.0,0.305,0.3438,0.3742,0.3552,0.3442,0.3504,0.2951,0.2408,0.1899,0.0,0.0,0.0,0.0,0.0,0.0,0.0,0.0,0.0,0.0,-0.613,-0.6983,-0.7422,-0.815,-0.9173,-0.9522,-0.9457,0.0,0.0,0.0,0.0,0.0,0.0,0.0,0.0,0.0,0.0,0.0,0.0,0.0,0.0,0.0,0.0,0.0,0.0,0.0,0.0,0.0,0.0,0.0,0.0,0.0,-1.5323,-1.6133,-1.665,-1.6514,-1.5723,-1.4873,-1.4443,0.0,-1.2881,-1.2881,-1.2881,-1.2881,-1.2881,-1.3372,-1.4116,-1.5011,-1.5463,0.0,0.0,0.0,0.0,0.0,0.0,0.0,0.0,0.0,-2.6321,-2.5441,-2.5004,-2.4991,-2.5431,-2.5257,-2.4636,-2.3537,-2.4192,-2.4564,-2.4564,-2.5217,-2.544,-2.5185,-2.5185,-2.4959,-2.4556,-2.4356,-2.3966,-2.3527,-2.37,-2.3236,-2.2376,-2.3424,-2.3191,-2.2108,-2.2185,-2.204,-2.168,-2.12,-2.0217,-1.9171,0.0,0.0,0.0,0.0,0.0,0.0,0.0,0.2755,0.3021,0.3003,0.3131,0.3197,0.321,0.2488,0.2193,0.2662,0.0,0.0,0.0,0.0,0.0,0.0,0.0,0.0,0.0,-0.43,-0.4877,-0.5551,-0.6079,-0.6795,-0.7639,-0.7788,-0.768,-0.7379,-0.7791,0.0,0.0,0.0,0.0,0.0,0.0,0.0,-0.8931,0.0,0.0,0.0,0.0,0.0,0.0,0.0,0.0,0.0,0.0,0.0,0.0,0.0,-1.1875,0.0,0.0,-1.4883,-1.5332,-1.5332,-1.4814,0.0,0.0,0.0,-1.2881,-1.2881,-1.3055,-1.3238,-1.3238,-1.3732,-1.4529,-1.5633,-1.6028,0.0,0.0,0.0,0.0,0.0,0.0,0.0,0.0,-2.6188,-2.6423,-2.5524,-2.5408,-2.5675,-2.6227,-2.6033,-2.5541,-2.4624,-2.5217,-2.5611,-2.5654,-2.6506,-2.6611,-2.6023,-2.6349,-2.5948,-2.4911,-2.4566,-2.4175,-2.3665,-2.3665,-2.3344,0.0,-2.3778,-2.3578,-2.2732,-2.2807,-2.2408,-2.1793,-2.1338,-2.0306,-1.9153,0.0,0.0,0.0,0.0,0.0,0.0,0.0,0.0,0.0,0.2163,0.2455,0.2644,0.2607,0.1655,0.1488,0.2604,0.0,0.0,0.0,0.0,0.0,0.0,0.0,0.0,0.0,-0.3354,-0.3686,-0.3423,-0.4734,-0.5562,-0.5829,-0.5483,-0.5572,-0.5976,-0.6295,-0.6193,-0.5811,-0.6759,-0.728,-0.7439,-0.7948,-0.7723,0.0,0.0,0.0,0.0,0.0,0.0,0.0,0.0,0.0,0.0,0.0,0.0,0.0,0.0,0.0,0.0,0.0,-1.3359,0.0,0.0,0.0,0.0,0.0,0.0,0.0,0.0,-1.3324,-1.3779,-1.3858,-1.4258,-1.5016,-1.6244,0.0,0.0,0.0,0.0,0.0,0.0,0.0,0.0,-2.4933,-2.6291,-2.7061,-2.6506,-2.6522,-2.6735,-2.7201,-2.6854,-2.6595,-2.6536,-2.6612,-2.6652,-2.6711,-2.7353,-2.7327,-2.6696,-2.7488,-2.6904,-2.509,-2.505,-2.4331,0.0,-2.3078,-2.3078,-2.3078,-2.3078,-2.3053,-2.3015,-2.3015,-2.2211,-2.1068,-2.1312,-2.0197,-1.8589,0.0,0.0,0.0,0.0,0.0,0.0,0.0,0.0,0.0,0.0,0.215,0.2132,0.1672,0.2006,0.2385,0.0,0.0,0.0,0.0,0.0,0.0,0.0,0.0,0.0,0.0,-0.1483,-0.2144,-0.2573,-0.313,-0.3965,-0.5157,-0.5545,-0.5396,-0.4829,-0.5558,-0.5611,-0.5311,-0.716,-0.7425,-0.6645,-0.7221,-0.7015,0.0,0.0,0.0,0.0,-0.6996,-0.7721,0.0,0.0,0.0,0.0,0.0,0.0,0.0,0.0,-1.0641,-1.1582,-1.1912,0.0,-1.2628,-1.2628,-1.2852,-1.3027,0.0,0.0,0.0,0.0,0.0,0.0,0.0,0.0,0.0,0.0,0.0,0.0,0.0,0.0,0.0,0.0,0.0,-2.6208,-2.5487,-2.6164,-2.6634,-2.6549,-2.6534,-2.6574,-2.683,-2.7181,-2.7296,-2.712,-2.7448,-2.7367,-2.6711,-2.701,-2.7087,-2.6938,-2.6754,-2.6117,-2.5077,-2.4701,-2.3955,-2.3078,-2.3078,-2.3078,-2.3078,-2.3078,-2.2887,-2.251,-2.251,-2.2053,-2.1399,-2.1053,-2.0583,-2.0194,0.0,0.0,0.0,0.0,0.0,0.0,0.0,0.0,0.0,0.0,0.0,0.0,0.0,0.0,0.0,0.0,0.0,0.0,0.0,0.0,0.0,0.0,0.0,0.0,0.0599,0.0568,-0.0034,-0.1247,-0.179,-0.2454,-0.3276,-0.3878,-0.4687,-0.5599,-0.5603,-0.5452,-0.5297,-0.6293,-0.644,-0.5964,-0.6298,0.0,0.0,0.0,0.0,0.0,-0.553,-0.638,0.0,-0.7377,-0.7648,-0.7938,0.0,0.0,0.0,0.0,-1.0762,-1.1746,-1.1746,-1.2152,-1.261,-1.2927,-1.2963,-1.2968,0.0,0.0,0.0,0.0,0.0,0.0,0.0,0.0,0.0,0.0,-1.7814,0.0,0.0,0.0,0.0,0.0,0.0,-2.605,0.0,0.0,-2.6063,-2.6063,-2.6133,-2.6233,-2.633,-2.6987,-2.7339,-2.7158,-2.7523,-2.7471,-2.6982,-2.7371,-2.7437,-2.7143,-2.7243,-2.6722,-2.5711,-2.5438,-2.4724,-2.3662,-2.3662,-2.3424,-2.3053,-2.2802,-2.2748,-2.2706,-2.2462,-2.2243,-2.1961,-2.1368,-2.0952,-2.0696,0.0,0.0,0.0,0.0,0.0,0.0,0.0,0.0,0.0,0.0,0.0,0.0,0.0,0.0,0.0,0.0,0.0,0.0,0.0,0.0,0.0,0.0,0.0,0.232,0.1538,0.2295,0.1888,0.02,-0.0682,-0.1191,-0.1371,-0.1822,-0.3694,-0.6564,-0.5914,-0.5459,-0.518,-0.5203,-0.5198,-0.519,-0.5394,0.0,0.0,0.0,0.0,0.0,0.0,0.0,0.0,-0.7412,-0.7489,-0.7231,-0.7746,0.0,0.0,0.0,0.0,0.0,-1.2011,-1.2568,-1.3247,-1.3684,-1.3401,-1.3152,0.0,0.0,0.0,0.0,0.0,0.0,0.0,0.0,0.0,0.0,0.0,0.0,0.0,0.0,0.0,0.0,-2.5205,0.0,-2.6429,-2.6161,-2.5932,-2.5843,-2.6044,-2.6209,-2.6223,-2.6951,-2.7335,-2.7356,-2.7438,-2.7509,-2.7461,-2.7987,-2.7932,-2.7368,-2.8083,-2.7764,-2.651,-2.651,-2.5672,-2.4319,0.0,0.0,-2.3234,-2.2571,-2.2716,-2.3252,-2.2562,-2.2335,-2.2364,-2.1623,-2.1116,-2.0683,0.0,0.0,0.0,0.0,0.0,0.0,0.0,0.0,0.0,0.0,0.0,0.0,0.0,0.0,0.0,0.0,0.0,0.0,0.0,0.0,0.0,0.0,0.2481,0.2623,0.248,0.2636,0.2161,0.1103,0.0221,-0.0736,-0.1733,-0.1811,-0.2916,-0.4862,-0.5772,-0.5236,-0.3749,-0.5511,-0.5238,-0.3723,-0.4881,0.0,0.0,0.0,0.0,0.0,0.0,0.0,0.0,-0.6865,-0.7405,-0.7787,-0.787,0.0,0.0,0.0,0.0,0.0,-1.2932,-1.3466,-1.3766,-1.3384,-1.3497,-1.3684,0.0,0.0,0.0,0.0,0.0,0.0,0.0,0.0,0.0,0.0,0.0,-2.006,0.0,0.0,-2.3961,-2.4223,0.0,-2.7244,-2.6335,-2.7067,-2.7379,-2.685,-2.7301,-2.7683,-2.7842,-2.8502,-2.8937,-2.9045,-2.8622,-2.8381,-2.8311,-2.7885,-2.7661,-2.7556,-2.7673,-2.7292,-2.651,-2.651,-2.5717,-2.4327,0.0,-2.3792,-2.4123,-2.2893,-2.2831,-2.3412,-2.2179,-2.177,-2.1705,-2.0513,-2.0373,-2.0631,0.0,0.0,0.0,0.0,0.0,0.0,0.0,0.0,0.0,0.0,0.0,0.0,0.0,0.0,0.0,0.0,0.0,0.0,0.0,0.0,0.0,0.2211,0.2742,0.2911,0.2712,0.2696,0.2243,0.1295,-0.0871,-0.2237,-0.2792,-0.4045,-0.4448,-0.4232,-0.5758,-0.5336,-0.3631,-0.4708,-0.4437,-0.3403,0.0,0.0,0.0,0.0,0.0,0.0,0.0,0.0,0.0,0.0,-0.8103,-0.8439,-0.8973,0.0,0.0,0.0,0.0,0.0,-1.3179,-1.3839,-1.4362,-1.3814,-1.3982,-1.431,0.0,0.0,0.0,0.0,0.0,0.0,0.0,0.0,0.0,0.0,0.0,-2.2091,-2.3237,-2.397,-2.4529,0.0,0.0,-2.7072,-2.7115,-2.7355,-2.7369,-2.7074,-2.771,-2.8032,-2.7757,-2.8752,-2.9358,-2.9377,-2.8854,-2.8511,-2.8527,-2.791,-2.7625,-2.7625,-2.7625,-2.7229,-2.6571,-2.6571,-2.5785,-2.4441,0.0,-2.3961,-2.3763,-2.2498,-2.2569,-2.3421,-2.2142,-2.2102,-2.256,-2.1328,-2.057,-2.0169,0.0,0.0,0.0,0.0,0.0,0.0,0.0,0.0,0.0,0.0,0.0,0.0,0.0,0.0,0.0,0.0,0.0,0.0,0.0,0.0,0.2447,0.2399,0.3096,0.3266,0.2841,0.2747,0.2248,0.1303,-0.1416,-0.3038,-0.3647,-0.5517,-0.5785,-0.474,-0.5833,-0.5465,-0.4042,-0.4026,-0.3755,-0.3303,0.0,0.0,0.0,0.0,0.0,0.0,0.0,0.0,0.0,0.0,0.0,0.0,0.0,0.0,0.0,-1.2079,-1.2685,-1.3037,-1.3173,-1.3963,-1.4639,-1.4349,0.0,0.0,0.0,0.0,0.0,0.0,0.0,0.0,0.0,0.0,0.0,0.0,-2.2677,-2.3714,-2.394,-2.4787,-2.5412,-2.5582,-2.656,-2.7391,-2.7995,-2.792,-2.7756,-2.7394,-2.8102,-2.8171,-2.7448,-2.846,-2.9086,-2.9129,-2.8523,-2.8248,-2.8386,-2.7794,-2.7591,-2.781,-2.751,-2.7165,-2.6799,-2.6519,-2.5686,-2.451,-2.435,-2.4056,-2.3602,-2.2342,-2.2623,-2.362,-2.2386,-2.2331,-2.2846,-2.1852,-2.0756,-1.9786,0.0,0.0,0.0,0.0,0.0,0.0,0.0,0.0,0.0,0.0,0.0,0.0,0.0,0.0,0.0,0.0,0.0,0.0,0.0,0.0,0.2797,0.3035,0.361,0.3723,0.3261,0.2907,0.2225,0.1292,0.0266,-0.1404,-0.3598,-0.4271,-0.5392,-0.6767,-0.6052,-0.5389,-0.4702,-0.4351,-0.372,-0.3038,-0.4371,0.0,0.0,0.0,0.0,0.0,0.0,0.0,0.0,0.0,0.0,0.0,0.0,0.0,-1.1737,-1.1811,-1.2174,-1.2651,-1.3177,-1.3705,-1.4261,-1.4727,0.0,0.0,0.0,0.0,0.0,0.0,0.0,0.0,0.0,0.0,0.0,-2.2748,-2.386,-2.4485,-2.4772,0.0,-2.7588,-2.6396,-2.8508,-2.9674,-2.8537,-2.9469,-2.9594,-2.8294,-2.8816,-2.8591,-2.737,-2.7867,-2.8204,-2.8283,-2.7621,-2.7554,-2.8125,-2.7554,-2.7646,-2.8415,-2.7225,-2.694,-2.7396,-2.6211,-2.5269,-2.4551,-2.3999,-2.406,-2.44,-2.3117,-2.3356,-2.4417,-2.3136,-2.1988,-2.0979,-2.0894,-2.0396,-1.9736,0.0,0.0,0.0,0.0,0.0,0.0,0.0,0.0,0.0,0.0,0.0,0.0,0.0,0.0,0.0,0.0,0.0,0.0,0.0,0.0,0.3797,0.3895,0.4444,0.4424,0.3756,0.3754,0.3251,0.2159,0.0532,-0.0638,-0.137,-0.2321,-0.3711,-0.5437,-0.6405,-0.6179,-0.5078,-0.4471,-0.3854,-0.3421,-0.4286,-0.5019,0.0,0.0,0.0,0.0,0.0,0.0,0.0,0.0,-1.0225,-1.0771,0.0,-1.1678,-1.2282,-1.2579,-1.2803,-1.298,-1.3189,-1.3889,-1.4638,-1.4818,0.0,0.0,0.0,0.0,0.0,0.0,0.0,0.0,0.0,0.0,-2.1594,-2.3273,-2.4349,-2.5171,-2.5728,-2.6581,-2.7055,-2.6896,-2.7498,-2.8002,-2.8212,-2.8692,-2.8753,-2.8217,-2.8704,-2.8721,-2.7858,-2.8362,-2.8682,-2.8682,-2.8096,-2.7858,-2.8112,-2.7476,-2.754,-2.8239,-2.7363,-2.6886,-2.6661,-2.5867,-2.5129,-2.4472,-2.4228,-2.407,-2.3925,-2.3422,-2.3496,-2.391,-2.3437,-2.2725,-2.1988,-2.1988,-2.1534,-2.0962,0.0,0.0,0.0,0.0,0.0,0.0,0.0,0.0,0.0,0.0,0.0,0.0,0.0,0.0,0.0,0.0,0.0,0.0,0.0,0.4457,0.4575,0.4663,0.5001,0.4897,0.4215,0.4314,0.3939,0.2965,0.0786,-0.0195,-0.0,-0.0838,-0.1861,-0.3086,-0.5061,-0.6002,-0.5999,-0.4782,-0.4115,-0.3903,-0.4562,-0.5474,0.0,0.0,0.0,0.0,0.0,0.0,0.0,0.0,-1.1185,0.0,0.0,0.0,0.0,0.0,-1.2854,-1.2753,-1.2842,-1.3727,-1.464,0.0,0.0,0.0,0.0,0.0,0.0,0.0,0.0,0.0,0.0,0.0,0.0,0.0,-2.4806,-2.5751,-2.6199,-2.6814,-2.7173,-2.7113,-2.7166,-2.7435,-2.8017,-2.8268,-2.8301,-2.8014,-2.8367,-2.8266,-2.7476,-2.7978,-2.8228,-2.8068,-2.7814,-2.7649,-2.7649,-2.7251,-2.7251,-2.7649,-2.7234,-2.683,-2.6469,-2.5708,-2.5086,-2.4657,-2.4413,-2.4228,-2.4085,-2.357,-2.3416,-2.3507,-2.3563,-2.3231,-2.2694,-2.2694,-2.23,-2.1669,0.0,0.0,0.0,0.0,0.0,0.0,0.0,0.0,0.0,0.0,0.0,0.0,0.0,0.0,0.0,0.0,0.0,0.0,0.4838,0.481,0.4937,0.5192,0.5206,0.5023,0.4596,0.4456,0.409,0.3484,0.1159,0.0037,0.0039,0.0037,0.0038,-0.0041,-0.1796,-0.4499,-0.7576,-0.5319,-0.4403,-0.4492,-0.5448,-0.6565,-0.784,0.0,0.0,0.0,0.0,0.0,0.0,0.0,-1.1597,-1.2508,0.0,0.0,0.0,-1.2508,-1.214,-1.179,-1.2058,-1.3058,-1.4136,0.0,0.0,0.0,0.0,0.0,0.0,0.0,0.0,-2.2846,-2.3215,0.0,0.0,-2.3844,-2.5326,-2.6218,-2.6023,-2.7674,-2.8437,-2.7043,-2.8089,-2.8723,-2.8102,-2.8611,-2.8636,-2.7858,-2.7755,-2.7259,-2.6082,-2.6419,-2.6488,-2.6033,-2.6454,-2.6674,-2.6674,-2.6674,-2.6674,-2.6674,-2.6691,-2.6838,-2.7069,-2.5788,-2.5205,-2.5173,-2.4425,-2.4505,-2.5054,-2.359,-2.3117,-2.3317,-2.3538,-2.3231,-2.274,-2.274,-2.2285,-2.1661,0.0,0.0,0.0,0.0,0.0,0.0,0.0,0.0,0.0,0.0,0.0,0.0,0.0,0.0,0.0,0.0,0.0,0.0,0.6403,0.6166,0.6155,0.6523,0.6259,0.5643,0.461,0.3033,0.2444,0.2955,0.2241,0.21,0.2548,0.2512,0.2091,0.12,0.0122,-0.1318,-0.2917,-0.2528,-0.3622,-0.5706,-0.6825,-0.7765,-0.8593,0.0,0.0,0.0,0.0,0.0,0.0,0.0,0.0,0.0,0.0,0.0,0.0,-1.2978,-1.3116,-1.3264,-1.335,-1.3942,0.0,0.0,0.0,0.0,0.0,0.0,0.0,0.0,0.0,-2.4138,-2.3065,0.0,0.0,-2.3147,-2.4014,-2.474,-2.468,-2.5015,-2.5263,-2.5213,-2.5263,-2.5346,-2.5547,-2.6185,-2.6638,-2.6671,-2.6622,-2.6819,-2.7296,-2.6399,-2.5935,-2.6133,-2.5716,-2.5398,-2.5167,-2.5659,-2.593,-2.593,-2.6437,-2.6742,-2.6789,-2.6096,-2.5448,-2.4938,-2.5285,-2.4758,-2.3649,-2.3734,-2.3819,-2.3923,-2.4485,-2.4617,-2.4418,-2.3871,-2.3566,-2.3268,0.0,0.0,0.0,0.0,0.0,0.0,0.0,0.0,0.0,0.0,0.0,0.0,0.0,0.0,0.0,0.0,0.0,0.0,0.0,0.0,0.6806,0.6584,0.619,0.5456,0.4371,0.2732,0.1434,0.0564,0.1609,0.2169,0.219,0.3154,0.3226,0.2499,0.2011,0.1472,0.0779,-0.0641,-0.2995,-0.5807,-0.6998,-0.8248,-0.9505,0.0,0.0,0.0,0.0,0.0,0.0,0.0,0.0,0.0,0.0,0.0,0.0,-1.3057,-1.311,-1.3165,-1.3334,0.0,0.0,0.0,0.0,0.0,0.0,0.0,0.0,0.0,0.0,-2.4487,-2.3631,-2.3483,0.0,-2.273,-2.339,-2.3926,-2.3926,-2.3983,-2.4175,-2.4641,-2.4408,-2.4408,-2.4861,-2.5291,-2.5626,-2.5727,-2.5814,-2.6063,-2.6516,-2.5875,-2.5577,-2.5709,-2.539,-2.509,-2.489,-2.5665,-2.6044,-2.6044,-2.6816,-2.7023,-2.6668,-2.6084,-2.5746,-2.5562,-2.5762,-2.4828,-2.321,-2.3721,-2.3854,-2.3762,-2.4152,-2.4393,-2.4406,-2.3887,-2.3649,-2.3538,0.0,0.0,0.0,0.0,0.0,0.0,0.0,0.0,0.0,0.0,0.0,0.0,0.0,0.0,0.0,0.0,0.0,0.0,0.0,0.0,0.7039,0.596,0.5442,0.4776,0.3916,0.3,0.0904,-0.2444,-0.0167,0.06,-0.0,0.2234,0.3355,0.3407,0.3537,0.3499,0.3099,0.0127,-0.2754,-0.5483,-0.6702,-0.8465,-1.044,-1.1415,0.0,0.0,0.0,0.0,0.0,0.0,0.0,0.0,-1.2365,-1.2532,-1.2612,-1.2936,-1.2641,-1.2331,-1.2726,0.0,0.0,0.0,0.0,0.0,0.0,0.0,0.0,0.0,0.0,-2.4213,-2.4398,-2.3201,-2.2245,-2.2508,-2.3161,-2.3638,-2.3638,-2.407,-2.4496,-2.4798,-2.4854,-2.4965,-2.5262,-2.5341,-2.5288,-2.4997,-2.5288,-2.5224,-2.4731,-2.5145,-2.5253,-2.4997,-2.5217,-2.5314,-2.5288,-2.6091,-2.648,-2.6498,-2.7285,-2.7303,-2.6576,-2.5979,-2.6027,-2.6537,-2.5722,-2.4652,-2.3485,-2.3679,-2.3543,-2.3203,-2.3242,-2.3369,-2.3506,-2.3199,-2.3058,-2.2927,0.0,0.0,0.0,0.0,0.0,0.0,0.0,0.0,0.0,0.0,0.0,0.0,0.0,0.0,0.0,0.0,0.0,0.0,0.0,0.0,0.729,0.6832,0.5768,0.4486,0.2999,0.1871,0.0669,-0.0567,-0.141,-0.1363,-0.0448,0.0616,0.1411,0.1997,0.3113,0.256,0.0622,-0.1842,-0.4627,-0.7602,-0.9545,-1.0438,-1.0697,-1.1511,-1.1734,0.0,0.0,0.0,0.0,0.0,0.0,0.0,-1.2473,-1.2719,-1.3116,-1.3856,-1.4006,-1.4058,0.0,-1.5034,0.0,0.0,0.0,0.0,0.0,0.0,0.0,0.0,-2.4016,-2.4049,-2.2812,-2.2994,-2.3062,-2.2261,-2.2733,-2.322,-2.322,-2.3364,-2.3506,-2.358,-2.358,-2.3605,-2.3678,-2.4219,-2.4665,-2.4903,-2.495,-2.529,-2.6103,-2.5074,-2.461,-2.4909,-2.4364,-2.3955,-2.3702,-2.4431,-2.4812,-2.4837,-2.565,-2.595,-2.5764,-2.6244,-2.6195,-2.5659,-2.4314,-2.3858,-2.4112,-2.4156,-2.4121,-2.4104,-2.4726,-2.4821,-2.4577,-2.3942,-2.3549,-2.3193,0.0,0.0,0.0,0.0,0.0,0.0,0.0,0.0,0.0,0.0,0.0,0.0,0.0,0.0,0.0,0.0,0.0,0.0,0.0,0.0,0.0,0.6545,0.4884,0.3593,0.2714,0.2073,0.0916,-0.0869,-0.2086,-0.2385,-0.1778,-0.1436,-0.0758,0.0257,0.1257,0.0676,-0.1179,-0.3124,-0.5975,-0.9243,-1.0293,-1.0764,-1.0895,-1.1226,-1.1453,-1.1547,-1.1131,0.0,0.0,0.0,0.0,0.0,0.0,0.0,-1.3552,-1.4645,-1.5,-1.5037,0.0,0.0,0.0,0.0,0.0,0.0,0.0,0.0,0.0,-2.2801,-2.3346,-2.3755,-2.3029,-2.3083,-2.3068,-2.2647,-2.289,-2.3152,-2.3152,-2.3175,-2.3259,-2.3414,-2.3437,-2.35,-2.3671,-2.4028,-2.4262,-2.4324,-2.4451,-2.4653,-2.4964,-2.4472,-2.4237,-2.4328,-2.4055,-2.3876,-2.3671,-2.4446,-2.482,-2.4838,-2.5649,-2.5805,-2.5463,-2.5904,-2.5676,-2.4882,-2.4078,-2.3936,-2.4264,-2.3919,-2.3856,-2.4028,-2.4293,-2.4378,-2.4317,-2.3761,-2.3467,-2.3257,0.0,0.0,0.0,0.0,0.0,0.0,0.0,0.0,0.0,0.0,0.0,0.0,0.0,0.0,0.0,0.0,0.0,0.0,0.0,0.0,0.0,0.0,0.424,0.3223,0.2921,0.2696,0.1325,-0.1251,-0.2326,0.0,0.0,0.0,-0.2617,-0.175,-0.1753,-0.2291,-0.3305,-0.5134,-0.7594,-1.027,-1.0349,-1.0651,-1.1008,-1.1041,-1.1201,-1.1271,-1.0205,-1.0253,-1.0819,-1.0456,0.0,0.0,0.0,0.0,-1.407,-1.5462,-1.5873,-1.5801,0.0,0.0,0.0,0.0,0.0,0.0,0.0,0.0,0.0,-2.2495,-2.2922,-2.3374,-2.3717,-2.3172,-2.2822,-2.3141,-2.3236,-2.33,-2.33,-2.3346,-2.3477,-2.3735,-2.3795,-2.3896,-2.417,-2.419,-2.4113,-2.386,-2.4095,-2.4018,-2.3464,-2.3981,-2.4154,-2.386,-2.4135,-2.4284,-2.4266,-2.491,-2.524,-2.5201,-2.586,-2.5841,-2.5199,-2.5254,-2.4917,-2.4284,-2.4284,-2.4284,-2.4248,-2.3613,-2.3548,-2.3819,-2.3482,-2.3526,-2.3699,-2.3414,-2.3236,-2.3189,0.0,0.0,0.0,0.0,0.0,0.0,0.0,0.0,0.0,0.0,0.0,0.0,0.0,0.0,0.0,0.0,0.0,0.0,0.0,0.0,0.0,0.5861,0.5937,0.5301,0.3772,0.271,0.1741,0.089,0.0,0.0,0.0,0.0,0.0,-0.4074,0.0,-0.7273,-0.7328,-1.0016,-1.0783,-1.0213,-1.118,-1.1335,-1.1057,-1.1505,-1.0895,-0.9942,-1.1073,-1.0987,-1.0379,-1.0771,-1.1244,0.0,0.0,0.0,-1.4848,-1.6442,-1.6948,-1.7029,0.0,0.0,0.0,0.0,0.0,0.0,0.0,0.0,0.0,0.0,-2.2306,-2.2903,-2.3228,-2.2968,-2.2822,-2.3141,-2.3437,-2.3631,-2.3631,-2.3896,-2.4074,-2.4132,-2.4113,-2.4151,-2.4208,-2.419,-2.4247,-2.4373,-2.4444,-2.4408,-2.4337,-2.4572,-2.4623,-2.4408,-2.4607,-2.4639,-2.4461,-2.4572,-2.4542,-2.4355,-2.4465,-2.4465,-2.4355,-2.4368,-2.431,-2.42,-2.42,-2.42,-2.42,-2.411,-2.421,-2.4373,-2.4153,-2.402,-2.3929,-2.372,-2.3437,-2.3189,0.0,0.0,0.0,0.0,0.0,0.0,0.0,0.0,0.0,0.0,0.0,0.0,0.0,0.0,0.0,0.0,0.0,0.0,0.0,0.0,0.0,0.7463,0.705,0.6554,0.5941,0.3743,0.2249,0.1506,0.0,0.0,0.0,-0.4164,-0.5122,0.0,0.0,0.0,0.0,-1.12,-1.178,-1.1435,-1.1984,-1.1799,-1.1184,-1.0994,-1.0596,-1.017,-1.0098,-1.0156,-1.0322,-1.0791,-1.1583,-1.2624,-1.4216,0.0,0.0,0.0,-1.8404,0.0,-1.7649,0.0,0.0,0.0,0.0,0.0,0.0,0.0,0.0,-2.1416,-2.1688,-2.2247,-2.3276,-2.299,-2.2847,-2.362,-2.3513,-2.3466,-2.3921,-2.4192,-2.4357,-2.4357,-2.4357,-2.4357,-2.4357,-2.4357,-2.4392,-2.4495,-2.4591,-2.467,-2.467,-2.476,-2.476,-2.467,-2.476,-2.476,-2.467,-2.467,-2.4578,-2.4357,-2.4247,-2.4266,-2.4357,-2.4357,-2.4303,-2.4209,-2.4321,-2.4357,-2.4375,-2.4495,-2.4575,-2.4654,-2.4559,-2.4508,-2.4435,-2.4334,-2.421,-2.41,0.0,0.0,0.0,0.0,0.0,0.0,0.0,0.0,0.0,0.0,0.0,0.0,0.0,0.0,0.0,0.0,0.0,0.0,0.0,0.0,0.0,0.8985,0.8139,0.7601,0.7439,0.5234,0.3429,0.0,0.0,0.0,-0.1997,-0.5888,-0.7245,0.0,-0.8027,-0.9597,0.0,0.0,0.0,0.0,-1.3085,-1.2546,-1.1661,-1.0869,-1.0551,-1.0415,-0.9996,-1.0172,-1.0692,-1.1629,-1.249,-1.3539,-1.5734,-1.6787,0.0,0.0,0.0,0.0,0.0,0.0,0.0,0.0,0.0,0.0,0.0,0.0,-2.0644,0.0,-2.106,-2.1551,-2.2988,-2.2692,-2.2624,-2.3787,-2.3306,-2.3157,-2.421,-2.4292,-2.4335,-2.4556,-2.4594,-2.4594,-2.4594,-2.4594,-2.4591,-2.462,-2.4776,-2.4858,-2.4855,-2.4917,-2.493,-2.4855,-2.4896,-2.4896,-2.4855,-2.4818,-2.4731,-2.4559,-2.4409,-2.4426,-2.4594,-2.4594,-2.4495,-2.4357,-2.4512,-2.4594,-2.4575,-2.4746,-2.4832,-2.4855,-2.4799,-2.4814,-2.4842,-2.4818,-2.4804,-2.4804,0.0,0.0,0.0,0.0,0.0,0.0,0.0,0.0,0.0,0.0,0.0,0.0,0.0,0.0,1.3396,1.3379,1.2908,1.2092,1.0894,1.0962,1.0666,0.978,0.9442,0.0,0.7323,0.7079,0.5734,0.0,0.0,0.0,-0.2367,-0.7514,-0.9753,-0.9524,-1.0559,-1.2067,-1.3857,0.0,0.0,0.0,0.0,-1.3881,0.0,0.0,-1.0875,-1.011,0.0,-1.2237,-1.1611,-1.4046,-1.4534,-1.4499,-1.6571,-1.718,-1.7448,0.0,0.0,0.0,0.0,0.0,0.0,0.0,0.0,0.0,0.0,0.0,0.0,0.0,-2.0406,-2.0864,-2.1909,-2.1782,-2.1951,-2.3143,-2.272,-2.2835,-2.4534,-2.4063,-2.3856,-2.4695,-2.479,-2.479,-2.479,-2.479,-2.4842,-2.4955,-2.5048,-2.5069,-2.4979,-2.5235,-2.5253,-2.501,-2.5163,-2.5192,-2.4998,-2.485,-2.479,-2.479,-2.4775,-2.4775,-2.479,-2.479,-2.4775,-2.4775,-2.4775,-2.479,-2.479,-2.4804,-2.4864,-2.4974,-2.4855,-2.4877,-2.4974,-2.4842,-2.4804,-2.4804,0.0,0.0,0.0,0.0,0.0,0.0,0.0,0.0,0.0,0.0,0.0,0.0,0.0,1.3219,1.2944,1.3138,1.339,1.342,1.308,1.2482,1.2133,1.2064,1.0508,0.9326,0.8674,0.6164,0.4789,0.0,0.0,-0.0387,-0.5132,-0.8729,-1.1803,-1.4199,-1.3153,-1.3493,-1.4935,-1.5783,0.0,0.0,0.0,0.0,0.0,0.0,0.0,0.0,0.0,0.0,-1.4777,-1.4788,-1.6101,-1.7787,-1.8103,-1.8113,-1.8045,-1.8305,0.0,0.0,0.0,0.0,0.0,0.0,0.0,0.0,0.0,-1.7829,-1.8411,-1.8788,-1.9427,-2.0018,-2.0387,-2.0775,-2.1402,-2.2435,-2.1937,-2.1827,-2.2956,-2.3455,-2.3815,-2.4132,-2.4607,-2.4943,-2.4943,-2.4972,-2.5015,-2.5069,-2.5244,-2.5356,-2.5321,-2.5402,-2.5428,-2.5321,-2.534,-2.5311,-2.5184,-2.5018,-2.4943,-2.493,-2.4842,-2.4842,-2.4943,-2.4943,-2.5015,-2.5187,-2.5178,-2.5083,-2.4943,-2.5061,-2.5149,-2.5192,-2.5138,-2.5149,-2.5192,-2.5138,-2.5126,-2.5126,0.0,0.0,0.0,0.0,0.0,0.0,0.0,0.0,0.0,0.0,0.0,0.0,0.0,0.0,1.2913,1.3343,1.4115,1.4498,1.4225,1.3545,1.3161,1.3172,1.1436,0.9657,0.788,0.5385,0.3767,0.0,0.0,0.0,0.0,-1.0164,-1.3467,-1.6329,-1.5342,-1.5457,0.0,0.0,0.0,-1.7027,0.0,0.0,-1.4726,0.0,0.0,0.0,0.0,0.0,0.0,0.0,-1.6886,-1.8522,-1.8774,-1.8983,-1.9051,0.0,0.0,0.0,-1.7535,0.0,0.0,0.0,0.0,0.0,0.0,0.0,-1.8067,-1.8209,-1.8777,-1.9381,-1.9703,-2.0221,-2.0899,-2.1787,-2.1274,-2.1164,-2.2277,-2.2802,-2.3179,-2.3467,-2.3965,-2.4408,-2.4707,-2.4769,-2.4927,-2.5205,-2.5424,0.0,-2.5493,-2.5511,-2.5511,-2.5493,-2.5459,-2.5401,-2.5371,-2.5207,-2.5137,-2.5137,-2.5018,-2.503,-2.5137,-2.5137,-2.5234,-2.5434,-2.5434,-2.5321,-2.5147,-2.5309,-2.5346,-2.5339,-2.5354,-2.5371,-2.5371,-2.5371,-2.5346,-2.533,0.0,0.0,0.0,0.0,0.0,0.0,0.0,0.0,0.0,0.0,0.0,0.0,0.0,0.0,0.0,1.4093,1.5056,1.5196,1.4181,1.4178,1.3847,1.3086,1.2298,0.9639,0.485,0.49,0.2769,0.0,0.0,0.0,0.0,0.0,-1.4768,-1.5656,-1.7105,-1.7971,-1.8374,0.0,-1.8669,-1.8735,0.0,-1.7093,-1.602,0.0,0.0,0.0,-1.559,-1.576,0.0,-1.7137,0.0,0.0,0.0,0.0,0.0,0.0,0.0,0.0,0.0,0.0,0.0,0.0,0.0,0.0,-1.6309,0.0,-1.7671,-1.8289,-1.8496,-1.8875,-1.9873,-2.0121,-2.0437,-2.124,-2.0759,-2.0894,-2.2591,-2.2127,-2.1914,-2.2766,-2.2882,-2.3243,-2.4073,-2.418,-2.4535,-2.5396,-2.5522,-2.5548,-2.5517,-2.5564,-2.5567,-2.5517,-2.5493,-2.5493,-2.5493,-2.5434,-2.5394,-2.5394,-2.5339,-2.5339,-2.5406,-2.5394,-2.5447,-2.5498,-2.5498,-2.5463,-2.5415,-2.5468,-2.5451,-2.5408,-2.5468,-2.5493,-2.5498,-2.5493,-2.5465,-2.5406,0.0,0.0,0.0,0.0,0.0,0.0,0.0,0.0,0.0,0.0,0.0,0.0,0.0,0.0,1.4748,1.5153,1.5937,1.6598,1.7085,1.6571,1.6501,1.7006,1.4682,1.0355,0.3853,0.291,-0.0806,0.0,0.0,0.0,0.0,0.0,0.0,0.0,-1.8507,-1.9101,-1.937,-1.9087,0.0,-1.8672,-1.8821,-1.5679,0.0,0.0,0.0,0.0,0.0,-1.5343,-1.6317,0.0,-1.7087,-1.7533,0.0,0.0,0.0,0.0,0.0,0.0,-1.7214,0.0,0.0,0.0,0.0,0.0,0.0,0.0,0.0,-1.6866,-1.7366,-1.8137,-1.8996,-1.9295,-1.9705,-2.0589,-2.0538,-2.0541,-2.1022,-2.143,-2.176,-2.2008,-2.259,-2.3062,-2.3315,-2.3373,-2.3748,0.0,-2.4697,-2.4997,-2.5618,-2.5661,-2.5637,-2.5567,-2.5567,-2.5551,-2.5493,-2.5434,-2.5421,-2.5463,-2.5394,-2.542,-2.5463,-2.5414,-2.5434,-2.5502,-2.5449,-2.543,-2.5409,-2.5476,-2.5468,-2.541,-2.5464,-2.5441,-2.5361,-2.5465,-2.5468,-2.5403,0.0,0.0,0.0,0.0,0.0,0.0,0.0,0.0,0.0,0.0,0.0,0.0,0.0,0.0,1.583,1.5841,1.674,1.7439,1.7705,1.7506,1.7537,1.7869,1.3659,0.8442,0.2353,-0.0393,-0.4942,0.0,0.0,0.0,0.0,0.0,0.0,0.0,0.0,0.0,0.0,0.0,0.0,0.0,-1.9298,0.0,0.0,-1.5187,-1.5941,0.0,0.0,0.0,-1.6868,-1.6215,-1.6855,0.0,0.0,0.0,0.0,0.0,0.0,0.0,0.0,0.0,0.0,0.0,0.0,0.0,-1.5334,-1.626,-1.6987,0.0,-1.6196,-1.69,-1.7868,-1.8656,-1.9313,-1.9862,-2.0229,-2.0432,-2.0444,-2.0883,-2.1195,-2.1195,-2.1659,-2.2114,-2.25,-2.258,-2.292,-2.3742,-2.3846,-2.4238,-2.5117,-2.5508,-2.5683,-2.5637,-2.5637,-2.5455,-2.5047,-2.4972,-2.4963,-2.4997,-2.4932,-2.5109,-2.5495,-2.5455,-2.5469,-2.549,-2.545,-2.5441,-2.5447,-2.5488,-2.5467,-2.5409,-2.5467,-2.5449,-2.5396,-2.5469,-2.5467,-2.5409,0.0,0.0,0.0,0.0,0.0,0.0,0.0,0.0,0.0,0.0,0.0,0.0,0.0,0.0,0.0,0.0,1.7475,1.7876,1.7227,1.7294,1.7074,1.6474,1.0506,0.4915,0.0052,-0.4259,-0.8993,0.0,0.0,0.0,0.0,0.0,0.0,0.0,0.0,0.0,0.0,0.0,0.0,-2.0276,-1.9688,-1.8535,0.0,0.0,-1.5452,-1.6031,-1.6153,-1.668,-1.7146,-1.5761,-1.6308,0.0,0.0,0.0,0.0,0.0,-1.9612,0.0,0.0,0.0,0.0,0.0,0.0,0.0,-1.5495,-1.6212,-1.673,0.0,-1.5209,-1.5571,-1.6735,-1.8031,-1.8971,-1.9179,-1.9842,-2.0382,-2.0498,-2.0511,-2.0511,-2.0511,-2.0511,-2.0831,-2.168,-2.1758,-2.209,-2.289,-2.3046,-2.3437,-2.4218,-2.5078,-2.5566,-2.5566,-2.5644,-2.5332,-2.4551,-2.4383,-2.4352,-2.4454,-2.4296,-2.467,-2.5527,-2.5507,-2.551,-2.5489,-2.5473,-2.5488,-2.5488,-2.5438,-2.542,-2.5411,-2.5468,-2.5484,-2.5488,-2.5484,-2.5461,-2.5395,0.0,0.0,0.0,0.0,0.0,0.0,0.0,0.0,0.0,0.0,0.0,0.0,0.0,0.0,0.0,0.0,1.7698,1.8197,1.8937,1.6174,1.4233,1.3626,0.8279,0.2158,-0.4617,-0.6515,-1.0709,0.0,0.0,0.0,0.0,0.0,0.0,0.0,0.0,0.0,0.0,0.0,0.0,-2.0527,-2.0402,0.0,-0.4617,-1.2368,-1.541,-1.5524,-1.5506,-1.5644,-1.5781,-1.5484,-1.555,-1.5905,0.0,0.0,0.0,-1.9242,0.0,0.0,0.0,0.0,0.0,0.0,0.0,0.0,-1.5563,-1.647,-1.7197,0.0,-1.5281,-1.5566,-1.6504,-1.6919,-1.7563,-1.8971,-1.9341,-1.9717,-2.0469,-2.0585,-2.0585,-2.0585,-2.0585,-2.0644,-2.084,-2.0859,-2.1191,-2.1982,-2.2645,-2.311,-2.3347,-2.4188,-2.4644,-2.4648,-2.5332,-2.5625,-2.5449,-2.4676,-2.4674,-2.5429,-2.4649,-2.477,-2.5664,-2.5556,-2.5492,-2.5484,-2.5383,-2.5339,-2.5339,-2.5168,-2.5215,-2.5402,-2.5473,-2.5434,-2.5346,-2.5465,-2.5463,-2.5414,0.0,0.0,0.0,0.0,0.0,0.0,0.0,0.0,0.0,0.0,0.0,0.0,0.0,0.0,0.0,0.0,0.0,0.0,0.0,1.0133,0.7391,0.678,0.1497,-0.3223,-0.7066,-1.066,-1.4506,0.0,0.0,0.0,0.0,0.0,0.0,0.0,0.0,0.0,0.0,0.0,-2.038,-2.0461,-2.0566,0.0,-0.824,-1.4264,-1.6554,-1.6559,-1.656,-1.6401,-1.6249,-1.6586,-1.6456,0.0,-1.5917,-1.7241,-1.8904,0.0,-1.8896,-1.8904,0.0,0.0,0.0,-1.6719,0.0,0.0,0.0,-1.6774,-1.7233,-1.665,-1.6758,-1.6914,-1.6769,-1.7314,-1.7815,-1.7855,-1.857,-1.9161,-1.9241,-1.9993,-2.0563,-2.0605,-2.0565,-2.0542,-2.0542,-2.0515,-2.0677,-2.1071,-2.1873,-2.239,-2.2442,-2.3283,-2.3932,-2.435,-2.4804,-2.5038,-2.4994,-2.4179,-2.4179,-2.4994,-2.4121,-2.4348,-2.5551,-2.5488,-2.5428,-2.5398,-2.5226,-2.5152,-2.5141,-2.4968,-2.4974,-2.5105,-2.5139,-2.5138,-2.5154,-2.5234,-2.5288,-2.5354,0.2226,0.0,0.0,0.0,0.0,0.0,0.0,0.0,0.0,0.0,0.0,0.0,0.0,0.0,0.0,0.0,0.0,0.0,0.0,0.0,-0.0161,-0.038,-0.5907,-0.9194,-0.9662,-1.4964,-1.819,-1.913,0.0,0.0,0.0,0.0,0.0,0.0,0.0,0.0,0.0,0.0,0.0,-2.0318,0.0,-1.8594,-1.5829,-1.7176,-1.7779,-1.7878,-1.7825,-1.7462,-1.7098,-1.7743,-1.7525,-1.683,-1.5963,-1.7128,0.0,0.0,0.0,0.0,0.0,0.0,0.0,0.0,0.0,-1.6711,0.0,0.0,0.0,-1.726,-1.7647,-1.7689,-1.6939,-1.7572,0.0,0.0,0.0,0.0,0.0,-1.8955,0.0,-2.0075,-2.0183,-2.0226,-2.0199,-2.0122,-2.0113,-2.0141,-2.0798,-2.1286,-2.1506,-2.2347,-2.311,-2.3776,-2.4193,-2.4291,-2.4052,-2.3471,-2.3567,-2.4283,-2.3461,-2.3906,-2.5415,-2.5413,-2.5371,-2.5293,-2.4938,-2.4762,-2.477,-2.4582,-2.4407,-2.4308,-2.4657,-2.4869,-2.4962,-2.4962,-2.5053,-2.5192,0.1575,-0.074,0.0,0.0,0.0,0.0,0.0,0.0,0.0,0.0,0.0,0.0,0.0,0.0,0.0,0.0,0.0,0.0,-0.0125,0.0,0.0,-0.4411,-1.0268,-1.3993,-1.4918,-1.7772,-1.9335,-1.9533,0.0,0.0,0.0,0.0,0.0,0.0,-2.0265,0.0,0.0,0.0,-1.9755,0.0,-2.0323,-1.916,0.0,-1.7632,-1.8082,-1.8512,-1.7985,-1.7462,-1.7078,0.0,-1.7418,-1.6967,0.0,-1.8138,-1.8962,-1.8828,0.0,0.0,0.0,0.0,0.0,0.0,-1.7555,0.0,0.0,0.0,-1.6363,-1.5713,0.0,-1.5683,-1.6259,0.0,0.0,0.0,0.0,0.0,-1.656,-1.7358,-1.7999,-1.8178,-1.8877,-1.9282,-1.9095,-1.902,-1.9053,-1.9239,-1.9272,-1.9651,-2.0432,-2.1302,-2.1838,-2.1983,-2.3567,-2.3998,-2.3159,-2.3118,-2.3505,-2.428,-2.342,-2.3878,-2.5498,-2.5421,-2.5391,-2.5337,-2.4359,-2.3946,-2.3904,-2.3591,-2.303,-2.248,-2.4143,-2.4818,-2.4814,-2.4814,-2.4847,-2.4861,-0.0902,-0.2564,0.0,0.0,0.0,0.0,0.0,0.0,0.0,0.0,0.0,0.0,0.0,0.0,0.0,0.0,0.0,-0.8671,0.0,0.0,0.0,0.0,-1.6387,-1.7613,-1.7585,-1.9313,-1.9848,-1.9144,-1.9963,0.0,0.0,0.0,0.0,0.0,-2.0098,0.0,-0.9021,0.0,-1.9825,0.0,0.0,0.0,0.0,-1.9033,-1.9158,-1.9315,-1.9139,-1.8926,-1.8616,0.0,-1.7936,0.0,0.0,0.0,0.0,-1.8658,0.0,0.0,0.0,0.0,0.0,0.0,0.0,0.0,-1.5471,0.0,-1.6292,0.0,0.0,0.0,0.0,0.0,0.0,0.0,-1.6111,0.0,0.0,0.0,-1.649,0.0,0.0,0.0,-1.8864,-1.8324,-1.8015,-1.8121,-1.8092,-1.8485,-1.9445,-1.9825,-2.0533,-2.1618,-2.2913,-2.3618,-2.3692,-2.3727,-2.3902,-2.423,-2.3824,-2.4012,-2.4675,-2.455,-2.4735,-2.5081,-2.3474,-2.3054,-2.3484,-2.3236,-2.2639,-2.2009,-2.3258,-2.3518,-2.3247,-2.3739,-2.3967,-2.4124,-0.4145,0.0,0.0,0.0,0.0,0.0,0.0,0.0,0.0,0.0,0.0,0.0,-0.6156,-0.9903,0.0,0.0,-1.4993,-1.7999,0.0,0.0,-1.9938,0.0,0.0,0.0,-1.9304,-2.0366,-2.0365,-1.9219,0.0,0.0,0.0,0.0,0.0,0.0,0.0,-1.4538,-0.5939,0.0,-1.9736,-1.9319,-1.9557,-1.9738,-1.9887,-1.9922,-1.9893,-1.9809,-1.9915,-1.9794,-1.9409,-1.8342,-1.8577,0.0,-1.8657,-1.8685,-1.8903,0.0,0.0,0.0,-1.9599,0.0,0.0,0.0,0.0,0.0,0.0,0.0,0.0,0.0,0.0,0.0,0.0,0.0,-1.7074,0.0,0.0,-1.5376,0.0,-1.4709,0.0,0.0,0.0,0.0,0.0,-1.7472,-1.7047,-1.7028,-1.7037,-1.7566,-1.8758,-1.8824,-1.9535,-2.1111,-2.2307,-2.31,-2.3461,-2.3902,-2.4135,-2.4176,-2.4064,-2.4156,-2.4409,-2.3992,-2.4118,-2.456,-2.2492,-2.195,-2.2513,-2.2245,-2.1644,-2.1025,-2.2044,-2.2044,-2.1618,-2.2693,-2.2996,-2.3042,-0.8069,-0.7302,0.0,0.0,0.0,0.0,0.0,0.0,0.0,0.0,0.0,0.0,0.0,0.0,0.0,0.0,0.0,-1.9567,-2.0144,0.0,-2.1256,0.0,0.0,-2.1419,0.0,-2.1057,-2.1062,-2.0262,0.0,0.0,0.0,0.0,0.0,0.0,-1.9319,-1.9087,-1.8721,-1.9144,-1.9317,-1.929,-1.9308,-1.9433,-1.9641,0.0,-1.9802,-1.979,-1.979,0.0,0.0,-1.9451,-1.9194,0.0,0.0,0.0,0.0,0.0,0.0,0.0,0.0,0.0,0.0,-1.789,0.0,0.0,0.0,0.0,-1.5015,0.0,0.0,0.0,-1.5841,-1.5247,0.0,0.0,0.0,0.0,0.0,0.0,0.0,0.0,0.0,0.0,0.0,-1.6232,-1.614,0.0,-1.6139,-1.6857,-1.852,-1.8615,-1.9056,-2.0022,-2.1776,-2.2345,-2.1589,-2.3129,-2.3956,-2.4091,-2.3894,-2.4315,-2.5226,-2.4249,-2.3812,-2.3713,-2.1517,-2.056,-2.0565,-2.0081,-1.9442,-1.8853,-2.038,-2.0666,-2.0427,-2.1962,-2.2072,-2.1549,0.0,0.0,0.0,0.0,0.0,0.0,0.0,-1.4449,0.0,0.0,-1.7807,0.0,0.0,-2.1293,-2.2469,0.0,0.0,-2.1406,-2.0801,-1.9893,0.0,0.0,0.0,-2.1022,0.0,0.0,0.0,0.0,0.0,0.0,0.0,0.0,0.0,0.0,0.0,-1.9298,0.0,0.0,0.0,0.0,0.0,-2.0015,-2.0948,0.0,-1.9476,-1.9476,-1.9476,-1.9277,0.0,-1.9383,-1.9277,-1.9078,-1.9383,-1.9559,-1.9656,-1.9609,-1.9614,-1.9614,0.0,0.0,-1.9407,-1.8289,0.0,0.0,0.0,0.0,0.0,0.0,0.0,0.0,0.0,0.0,0.0,0.0,0.0,0.0,0.0,0.0,0.0,0.0,0.0,0.0,0.0,0.0,0.0,0.0,-1.5692,-1.6567,-1.7615,-1.8177,-1.8903,-1.985,-2.1663,-2.2498,-2.224,-2.3967,-2.4514,-2.3913,-2.4373,-2.4422,-2.4081,-2.3671,-2.336,-2.3108,-2.1143,-2.0209,-2.001,-1.9875,-1.9314,-1.871,-1.9757,-1.9745,-1.9394,-2.1419,-2.1834,-2.1402,-1.4356,0.0,0.0,0.0,0.0,0.0,0.0,0.0,0.0,0.0,-2.3262,0.0,-2.3566,0.0,-2.3309,0.0,-2.2028,-2.1494,-2.0764,-1.9401,0.0,-2.0442,-2.0928,-2.0772,0.0,0.0,0.0,0.0,0.0,-2.109,0.0,0.0,0.0,0.0,0.0,-1.9305,-1.9305,-1.9305,-1.9305,0.0,0.0,-1.996,0.0,0.0,-1.9813,-1.9693,0.0,-1.9305,-1.9305,-1.9305,-1.9305,-1.9305,-1.9305,-1.938,-1.9485,-1.9413,-1.9442,-1.9485,-1.9413,-1.9485,0.0,-1.8527,-1.8373,0.0,-1.6641,0.0,-1.6325,0.0,0.0,0.0,0.0,0.0,0.0,0.0,0.0,0.0,0.0,-1.432,0.0,0.0,0.0,0.0,0.0,0.0,-1.4004,-1.2884,-1.4756,-1.6294,0.0,-1.7862,-1.872,-1.9695,-2.145,-2.2424,-2.249,-2.4162,-2.4733,-2.417,-2.4598,-2.4525,-2.3945,-2.349,-2.3217,-2.2935,-2.0934,-1.9951,-1.9759,-1.9292,-1.8787,-1.838,-1.9189,-1.9409,-1.945,-2.0903,-2.122,-2.0852,-1.5855,-1.7051,0.0,0.0,-1.8738,0.0,0.0,0.0,-2.3165,0.0,-2.3437,-2.3649,-2.3628,-2.2459,-2.1902,-2.2449,-2.0985,-2.0143,-2.0385,-1.9384,0.0,0.0,-2.043,-2.0626,-2.0227,0.0,0.0,0.0,0.0,0.0,0.0,0.0,0.0,0.0,-1.9308,0.0,-1.9289,-1.9289,-1.9274,-1.9311,-1.9292,-1.9292,-1.9384,-2.0409,-2.0673,-2.0393,-1.9583,-1.9289,-1.9289,-1.9289,-1.9289,-1.9289,-1.9289,-1.9289,-1.9261,-1.9052,-1.9117,-1.9227,-1.9035,-1.9261,-1.9355,-1.8512,-1.8404,0.0,0.0,0.0,-1.7096,0.0,0.0,0.0,0.0,0.0,0.0,0.0,0.0,0.0,0.0,0.0,0.0,0.0,0.0,0.0,0.0,0.0,-1.2976,-1.0115,-1.3516,-1.6034,0.0,-1.7646,-1.8521,-1.9523,-2.1123,-2.2083,-2.2273,-2.3768,-2.4607,-2.479,-2.4591,-2.4591,-2.4708,-2.3755,-2.3252,-2.3036,-2.0804,-1.9775,-1.9591,-1.8327,-1.7811,-1.7879,-1.8572,-1.9474,-2.0402,-2.0413,-2.0216,-1.9933,-1.7505,-1.8535,-1.9341,0.0,-2.0512,-2.1252,0.0,0.0,0.0,0.0,-2.2898,-2.289,-2.2677,-2.2733,-2.2685,-2.2375,-2.2781,0.0,0.0,0.0,0.0,-1.9926,-1.9444,-1.919,-1.9201,-2.0328,-2.065,-2.0068,0.0,0.0,-1.841,0.0,0.0,0.0,0.0,0.0,-1.9289,-1.8935,-1.8984,-1.9291,-1.9287,-1.9092,-1.8858,0.0,-1.9953,-2.019,-1.9536,-1.9196,-1.9084,-1.9243,-1.9214,-1.9101,-1.9243,-1.9198,-1.9069,-1.9019,-1.8896,-1.8771,-1.8734,-1.8789,-1.8806,-1.8591,-1.8554,-1.8387,0.0,0.0,0.0,0.0,0.0,0.0,0.0,0.0,0.0,0.0,0.0,0.0,0.0,0.0,0.0,-1.3821,0.0,0.0,0.0,-1.2,-1.1223,-1.2722,-1.4612,-1.5922,-1.6429,0.0,-1.8133,-1.8824,-2.0759,-2.1803,-2.185,-2.3761,-2.467,-2.4594,-2.451,-2.4319,-2.3984,-2.3722,-2.2738,-2.1196,-2.057,-1.9564,-1.8288,-1.7946,-1.7811,-1.7828,-1.8014,-1.8427,-1.9068,-2.0089,-2.0264,-1.9841,-1.8812,-1.9366,0.0,-2.0145,0.0,0.0,-2.2108,-2.2364,0.0,-2.2669,-2.2695,0.0,-2.25,-2.2669,-2.2721,-2.2473,-2.303,0.0,-2.1918,0.0,0.0,-2.1005,-1.9224,-1.8398,-1.8696,-1.965,0.0,-2.0614,0.0,0.0,-1.8251,0.0,0.0,0.0,0.0,-1.9056,-1.9148,-1.8748,-1.8753,-1.8962,-1.8734,-1.8625,0.0,-1.8626,-1.9039,-1.9542,-1.9145,-1.9,-1.9001,-1.8999,-1.8913,-1.8843,-1.8965,-1.8913,-1.8807,-1.8679,-1.8641,-1.8566,-1.845,-1.8508,-1.8585,-1.8585,-1.8585,-1.8499,-1.8164,-1.8092,-1.8144,0.0,-1.7681,-1.7136,0.0,0.0,0.0,0.0,0.0,0.0,0.0,0.0,0.0,0.0,-1.3556,0.0,0.0,-1.2244,-1.1932,-1.3686,-1.4839,-1.5717,-1.6267,0.0,-1.8253,-1.8604,-2.0389,-2.1352,-2.1352,-2.318,-2.4044,-2.3926,-2.3926,-2.3764,-2.3477,-2.3477,-2.2642,-2.1161,-2.0709,-1.9648,-1.824,-1.7776,-1.7502,-1.7394,-1.7732,-1.8071,-1.8484,-1.9144,-1.9419,-1.9386,-1.9736,-1.9694,0.0,0.0,0.0,0.0,0.0,-2.25,0.0,-2.266,0.0,-2.266,-2.266,-2.2453,-2.2371,-2.2634,-2.2409,-2.2528,-2.3041,-2.2583,-2.2306,-2.2287,-1.958,-1.8228,-1.8492,-1.8885,-2.0162,0.0,0.0,0.0,0.0,0.0,0.0,0.0,0.0,0.0,0.0,-1.8663,-1.8537,-1.8454,-1.8027,-1.8116,-1.8454,-1.8064,-1.8225,-1.8654,-1.8582,-1.8697,-1.8861,-1.8678,-1.8566,-1.8547,-1.8585,-1.8566,-1.8508,-1.827,-1.833,-1.845,-1.8208,-1.831,-1.8489,-1.8489,-1.8489,-1.8508,-1.8528,-1.8547,-1.8547,-1.8585,-1.8037,-1.7644,-1.7989,0.0,0.0,0.0,0.0,0.0,0.0,0.0,0.0,0.0,0.0,0.0,0.0,-1.3557,-1.3663,-1.3663,-1.4568,-1.5453,-1.6167,0.0,-1.8422,-1.8489,-2.0029,-2.0845,-2.0845,-2.241,-2.3189,-2.3189,-2.3189,-2.3165,-2.3141,-2.3053,-2.2553,-2.1771,-2.068,-1.9647,-1.8623,-1.7623,-1.7052,-1.6853,-1.7471,-1.7872,-1.8081,-1.7818,-1.8087,-1.8553,-1.9654,0.0,0.0,0.0,0.0,-2.1589,-2.2192,-2.2349,-2.236,-2.236,-2.236,-2.236,-2.236,-2.2321,-2.2338,-2.2377,-2.2338,0.0,0.0,0.0,0.0,-2.2297,-2.0576,-1.9085,-1.7956,-1.8009,-1.945,0.0,0.0,0.0,0.0,0.0,0.0,0.0,0.0,0.0,-1.8351,-1.834,0.0,-1.7971,-1.8132,-1.8107,-1.7988,-1.8329,-1.827,-1.8,-1.827,-1.8345,-1.8371,-1.8547,-1.845,-1.831,-1.8528,-1.845,-1.827,-1.8208,-1.8078,-1.7927,-1.7883,-1.7905,-1.7949,-1.7949,-1.7949,-1.7992,-1.8208,-1.827,-1.833,-1.8547,-1.8479,-1.8175,-1.7437,0.0,0.0,0.0,0.0,0.0,0.0,0.0,0.0,0.0,0.0,-1.4073,0.0,0.0,-1.3446,-1.3446,-1.4332,-1.5124,0.0,0.0,-1.7469,0.0,-1.9658,-2.0575,0.0,0.0,-2.3189,-2.3189,-2.3189,-2.3087,-2.2857,-2.2171,-2.133,-2.0296,-1.9236,-1.8327,-1.7541,-1.7075,-1.6841,-1.6779,-1.6627,-1.6635,-1.6647,-1.6593,-1.6776,-1.706,-2.0831,0.0,0.0,0.0,0.0,0.0,0.0,-2.231,-2.231,-2.231,-2.231,-2.231,-2.231,-2.231,-2.231,-2.231,-2.231,-2.231,-2.231,-2.231,-2.2287,-2.2313,-2.1579,-2.0861,-2.0162,-2.0119,-2.0433,-2.1104,0.0,0.0,0.0,0.0,0.0,0.0,0.0,-1.8366,0.0,0.0,0.0,-1.7811,-1.7983,-1.7944,-1.7828,-1.809,-1.8009,-1.7812,-1.7975,-1.8009,-1.8014,-1.8146,-1.8082,-1.8014,-1.8146,-1.81,-1.7992,-1.7992,-1.7905,-1.7811,-1.7811,-1.7811,-1.7811,-1.7811,-1.7811,-1.7816,-1.7971,-1.7992,-1.8035,-1.8146,-1.8187,-1.7983,-1.733,-1.6692,0.0,0.0,0.0,0.0,0.0,0.0,-1.4829,0.0,0.0,0.0,0.0,0.0,0.0,0.0,0.0,0.0,0.0,0.0,-1.7042,0.0,0.0,0.0,-1.9425,0.0,-2.2158,-2.2158,-2.2556,-2.247,-2.1961,-2.1351,-2.0389,-1.9127,-1.8454,-1.7623,-1.6747,-1.6421,-1.6367,-1.6501,-1.6163,-1.6136,-1.632,-1.6478,-1.6396,-1.6277,-2.2029,-2.1189,0.0,0.0,-2.2308,-2.231,-2.231,-2.231,-2.231,-2.231,-2.231,-2.231,-2.231,-2.231,-2.231,-2.231,-2.231,-2.231,-2.231,-2.231,-2.231,-2.231,-2.231,-2.2298,-2.2293,-2.2312,-2.1702,0.0,0.0,0.0,0.0,0.0,0.0,0.0,0.0,0.0,0.0,0.0,-1.8188,-1.7811,-1.8036,-1.799,-1.7792,-1.7788,-1.7794,-1.7794,-1.7805,-1.7811,-1.7811,-1.7811,-1.7811,-1.7811,-1.7811,-1.7811,-1.7811,-1.7811,-1.7811,-1.7811,-1.7811,-1.7912,-1.8031,-1.8031,-1.8031,-1.8059,-1.8118,-1.7916,-1.7731,-1.7883,-1.7782,-1.7572,-1.7248,-1.715,0.0,0.0,0.0,0.0,0.0,0.0,0.0,0.0,0.0,0.0,-1.2883,0.0,0.0,0.0,0.0,0.0,-1.6118,0.0,0.0,0.0,0.0,-1.856,-1.8306,0.0,-2.0927,-2.0944,-2.153,-2.158,-2.1117,-2.0367,-1.9454,-1.8467,-1.7824,-1.6972,-1.6037,-1.587,-1.5898,-1.6009,-1.574,-1.5797,-1.607,-1.6203,-1.5919,-1.5566,0.0,0.0,0.0,0.0,0.0,-2.231,-2.231,-2.231,-2.231,-2.231,-2.231,-2.231,-2.231,-2.231,-2.231,-2.231,-2.231,-2.231,-2.231,-2.231,-2.231,-2.231,-2.231,-2.231,-2.2304,-2.23,-2.2231,0.0,0.0,-2.189,0.0,0.0,0.0,0.0,0.0,0.0,0.0,-1.7873,-1.7848,-1.7876,-1.8801,-1.8626,-1.779,-1.7804,-1.7793,-1.7799,-1.7794,-1.7811,-1.7811,-1.7811,-1.7811,-1.7811,-1.7811,-1.7811,-1.7811,-1.7811,-1.7811,-1.7811,-1.7811,-1.8302,-1.8792,-1.8792,-1.8792,-1.8865,-1.9187,-1.826,-1.7526,-1.8136,-1.7765,-1.7248,-1.6917,-1.6607,-1.6367,0.0,0.0,0.0,0.0,0.0,-1.5422,-1.4687,0.0,0.0,-1.353,-1.3206,0.0,0.0,-1.4307,0.0,0.0,0.0,0.0,-1.6866,-1.7577,-1.7974,-1.7947,-1.9393,-2.0102,-2.0102,-2.0166,-2.0505,-2.0957,-1.9026,-1.843,-1.8776,-1.7157,-1.597,-1.5255,-1.5639,-1.5566,-1.521,-1.5165,-1.5195,-1.5165,-1.4808,-1.4683,-1.4627,0.0,0.0,0.0,0.0,0.0,0.0,0.0,-2.231,-2.231,-2.231,-2.231,-2.231,-2.231,-2.231,-2.231,-2.231,-2.231,-2.231,-2.231,-2.231,-2.231,-2.231,-2.231,-2.231,-2.231,-2.2281,-2.2309,0.0,0.0,0.0,0.0,0.0,0.0,0.0,0.0,-2.0018,-2.0433,-1.9521,-1.9303,-1.9621,-1.9681,-2.0018,-2.0382,-1.9164,-1.8694,-1.861,-1.8008,-1.7811,-1.7811,-1.7811,-1.7811,-1.7811,-1.7811,-1.7811,-1.7896,-1.8335,-1.8454,-1.8555,-1.8988,-1.9326,-1.957,-1.957,-1.9379,-1.9124,-1.8861,-1.8186,-1.7549,-1.7429,-1.7187,-1.6901,-1.6554,-1.6394,-1.6246,-1.6039,0.0,0.0,0.0,0.0,0.0,-1.4852,0.0,-1.4358,-1.3782,-1.3702,0.0,0.0,0.0,0.0,0.0,0.0,0.0,-1.707,0.0,-1.7745,-1.755,-1.9144,-1.9535,-1.8744,-1.961,-1.9693,-1.91,-1.8083,-1.7371,-1.7018,-1.6281,-1.5812,-1.5507,-1.5418,-1.5255,-1.5133,-1.5552,-1.5466,-1.519,-1.6079,-1.5954,-1.5343,-2.2299,0.0,-2.231,0.0,-2.231,-2.231,-2.231,-2.231,-2.231,-2.231,-2.231,-2.231,-2.231,-2.231,-2.231,-2.231,-2.231,-2.231,-2.231,-2.231,-2.231,-2.231,-2.231,0.0,-2.231,-2.231,-2.2288,-2.2315,-2.2315,0.0,0.0,0.0,0.0,0.0,-2.115,-2.1283,-2.2209,-2.0861,-2.0668,-2.1191,-2.0642,-2.1153,-2.2117,-2.0323,-1.942,-1.8967,-1.8109,-1.7662,-1.7519,-1.7519,-1.7519,-1.7542,-1.7743,-1.7963,-1.8234,-1.8741,-1.9046,-1.9309,-1.9706,-1.9982,-2.0123,-1.999,-1.9772,-1.9402,-1.8815,-1.8143,-1.7444,-1.6669,-1.6581,-1.6591,-1.6453,-1.6274,-1.6128,-1.6083,0.0,0.0,0.0,-1.5634,0.0,-1.4857,-1.4773,-1.4612,-1.415,-1.4175,0.0,0.0,0.0,0.0,0.0,0.0,0.0,0.0,0.0,0.0,-1.6857,-1.8251,-1.8495,-1.755,-1.8554,-1.8728,-1.8102,-1.756,-1.6879,-1.6097,-1.5609,-1.5431,-1.5455,-1.5084,-1.4845,-1.4794,-1.5262,-1.5244,-1.5103,-1.6023,-1.5916,-1.5344,-2.2304,-2.231,-2.231,-2.231,-2.231,-2.231,-2.231,-2.231,-2.231,-2.231,-2.231,-2.231,-2.231,-2.231,-2.231,-2.231,-2.231,-2.231,-2.231,-2.231,-2.231,0.0,0.0,-2.231,-2.231,-2.231,-2.2303,-2.2288,0.0,0.0,-2.2296,0.0,-2.2304,-2.231,-2.2293,-2.2286,-2.2234,-2.135,-2.1482,-2.2251,-2.1637,-2.177,-2.2153,-2.0948,-1.9701,-1.8524,-1.8006,-1.738,-1.6815,-1.6815,-1.6815,-1.6917,-1.7589,-1.8302,-1.8877,-1.8894,-1.9435,-1.9891,-1.9524,-1.9953,-2.0393,-2.0012,-1.9906,-1.9813,-1.9467,-1.8315,-1.7007,-1.602,-1.6095,-1.6391,-1.6638,-1.6204,-1.6008,-1.6592,0.0,0.0,0.0,-1.5244,0.0,-1.4797,-1.4214,-1.4079,-1.4707,-1.4435,0.0,0.0,0.0,0.0,0.0,0.0,0.0,-1.5814,-1.5814,0.0,-1.5814,-1.6443,-1.6726,-1.6712,-1.6726,-1.7399,-1.8657,-1.7568,-1.7026,-1.6818,-1.5221,-1.4585,-1.4708,-1.4555,-1.4278,-1.3934,-1.3934,-1.4258,-1.459,-1.3607,-1.3619,-1.4033,-2.2304,-2.2291,-2.23,-2.2316,-2.231,-2.231,-2.231,-2.231,-2.231,-2.231,-2.231,-2.231,-2.231,-2.231,-2.231,0.0,-2.231,-2.231,0.0,-2.231,-2.231,-2.231,-2.231,-2.231,-2.231,-2.231,-2.2094,-2.1678,0.0,0.0,0.0,-2.0813,-2.0831,-2.1415,-2.1224,-2.1126,-2.1154,-2.1243,-2.1323,-2.1379,-2.1004,-2.1083,-2.1319,-2.0437,-1.9833,-1.9388,-1.8725,-1.8346,-1.8155,-1.8155,-1.8155,-1.8211,-1.8404,-1.8335,-1.8345,-1.9293,-1.9747,-1.9994,-2.039,-2.0665,-2.0811,-2.0671,-2.0099,-1.9514,-1.9418,-1.8435,-1.7467,-1.7178,-1.718,-1.7135,-1.6787,-1.6547,-1.6353,-1.6114,-1.5933,0.0,-1.5799,0.0,-1.5484,-1.5484,-1.5304,-1.5259,-1.5469,-1.5372,0.0,0.0,0.0,0.0,0.0,0.0,0.0,0.0,-1.6398,0.0,-1.6398,-1.7055,-1.6986,-1.6245,-1.7018,-1.7415,-1.7446,-1.7107,-1.6732,-1.6318,-1.5827,-1.54,-1.508,-1.4768,-1.4359,-1.3941,-1.4358,-1.4602,-1.4752,-1.5162,-1.5144,-1.4825,-2.2155,-2.2302,-2.2104,-2.1431,-2.1602,-2.1915,-2.2254,-2.2118,-2.2027,-2.2265,-2.231,-2.231,-2.231,-2.2101,0.0,-2.1824,-2.2116,-2.217,-2.1827,-2.1803,-2.177,-2.1681,-2.1748,-2.1811,-2.1811,-2.1811,0.0,-2.1391,-2.0257,-1.9969,-2.0508,-1.9937,-2.0102,-2.0831,-2.0687,-2.0671,-2.0783,-2.1006,-2.1006,-2.0831,-2.0424,-2.0506,-2.0799,-2.0353,-1.9988,-1.9657,-1.9296,-1.8827,-1.8376,-1.8376,-1.8376,-1.8423,-1.8672,-1.847,-1.8389,-1.9559,-2.0097,-2.04,-2.0637,-2.0731,-2.0698,-2.0532,-1.9816,-1.9063,-1.8803,-1.821,-1.7697,-1.7697,-1.7697,-1.7563,-1.716,-1.6876,-1.6577,-1.6204,-1.5963,-1.5799,-1.5799,0.0,-1.5799,0.0,0.0,-1.5799,0.0,-1.5799,-1.5978,0.0,0.0,0.0,0.0,0.0,-1.6219,-1.6353,-1.6353,-1.6353,-1.6353,-1.6787,-1.6736,-1.6291,-1.7298,-1.7505,-1.6965,-1.6822,-1.6693,-1.651,-1.5918,-1.5459,-1.5101,-1.4654,-1.4119,-1.3674,-1.4037,-1.444,-1.4803,-1.5034,-1.5212,-1.5174,-2.1811,-2.2102,-2.1617,-1.9988,-2.0384,-2.1181,-2.2015,-2.1648,-2.1543,-2.2225,-2.2254,-2.2209,-2.2237,-2.1665,-2.1201,-2.0994,0.0,0.0,-2.1039,-2.1004,-2.0923,-2.0687,-2.0943,-2.1103,-2.1103,-2.1007,-2.1069,-2.1279,-2.0213,-1.9682,-1.9687,-1.9687,-2.0004,-2.0559,-2.0559,-2.0686,-2.0894,-2.0648,-2.052,-2.051,-1.9919,-2.0062,-2.0526,-2.0527,-2.0084,-1.9445,-1.963,-1.8891,-1.7832,-1.7832,-1.7832,-1.7936,-1.8583,-1.8777,-1.8933,-1.9672,-2.0369,-2.0797,-2.0382,-2.0246,-2.0158,-1.9782,-1.9226,-1.8597,-1.7906,-1.7802,-1.7832,-1.7832,-1.7832,-1.7817,-1.7772,-1.7219,-1.6756,-1.6726,-1.6189,-1.5799,-1.5799,-1.5799,-1.5799,-1.5799,0.0,0.0,-1.5799,-1.5799,-1.5829,0.0,0.0,0.0,0.0,0.0,-1.6352,-1.5756,-1.5741,-1.5741,-1.5712,-1.5757,-1.6085,-1.6736,-1.7508,-1.7599,-1.7112,-1.6741,-1.6797,-1.7164,-1.5656,-1.5004,-1.4928,-1.4374,-1.3785,-1.3248,-1.3223,-1.3885,-1.4752,-1.3649,-1.42,-1.5172,-2.0229,-2.0327,-2.0206,-1.9767,-1.988,-2.0081,-2.0287,-2.0176,-2.0623,-2.2122,-2.1732,-2.1399,-2.1606,-2.0718,-2.027,-2.0653,-2.0895,-2.099,-2.1019,-2.1189,-2.1299,-2.121,-2.1718,-2.1991,-2.1991,-2.1133,-2.0496,-2.0088,-1.9829,-1.9681,-1.9692,-1.9692,-1.9763,-1.9919,-1.9919,-1.9949,-2.0015,-1.996,-1.9894,-1.9899,-1.9767,-1.9803,-1.9899,-1.9925,-1.9778,-1.9642,-1.9662,-1.9506,-1.9226,-1.9226,-1.9226,-1.9241,-1.9405,-1.945,-1.9486,-1.9682,-1.9858,-1.998,-1.9874,-1.9839,-1.9818,-1.9711,-1.957,-1.9286,-1.8627,-1.8867,-1.9226,-1.9226,-1.9226,-1.9076,-1.8568,-1.7939,-1.7294,-1.6786,-1.6189,-1.5799,-1.5799,-1.5799,-1.5799,0.0,-1.5799,-1.5799,-1.5799,-1.5799,-1.5847,0.0,0.0,-1.5886,-1.5584,-1.5726,-1.5609,-1.5284,-1.5255,-1.5134,-1.4814,-1.5216,-1.5955,-1.6998,-1.7295,-1.7384,-1.7263,-1.7142,-1.6946,-1.6655,-1.6275,-1.5894,-1.5454,-1.4941,-1.4387,-1.3846,-1.3396,-1.3699,-1.4425,-1.4125,-1.4963,-1.5994,-1.9702,-1.9687,-1.9684,-1.9705,-1.9687,-1.9687,-1.9687,-1.9706,-2.0153,-2.1375,-2.1119,-2.099,-2.1348,-2.0542,-2.0146,-2.0565,-2.0335,-2.0258,-2.0391,-2.0555,-2.0701,-2.0894,-2.1213,-2.1385,-2.1385,-2.0766,-2.0203,-1.9697,-1.9707,-1.969,-1.969,-1.969,-1.969,-1.969,-1.969,-1.969,-1.969,-1.969,-1.969,-1.969,-1.969,-1.969,-1.969,-1.969,-1.969,-1.969,-1.969,-1.969,-1.969,-1.969,-1.969,-1.969,-1.969,-1.969,-1.969,-1.969,-1.969,-1.969,-1.969,-1.969,-1.9615,-1.9316,-1.9465,-1.951,-1.8852,-1.9211,-1.969,-1.969,-1.969,-1.9495,-1.8822,-1.8164,-1.7473,-1.6816,-1.5995,-1.5477,-1.5477,-1.5477,-1.5418,-1.5225,-1.5359,-1.5418,-1.5225,-1.5195,-1.5248,-1.5358,-1.5386,0.0,-1.505,-1.528,-1.5221,-1.4842,-1.5051,-1.5077,-1.4883,-1.5717,-1.6327,-1.6727,-1.7116,-1.7146,-1.6909,-1.6909,-1.6795,-1.6522,-1.6522,-1.6208,-1.5655,-1.5103,-1.4576,-1.4035,-1.3446,-1.3599,-1.4174,-1.3887,-1.4513,-1.5284,-1.969,-1.969,-1.969,-1.969,-1.969,-1.969,-1.969,-1.9693,-1.9878,-2.0398,-2.044,-2.0655,-2.118,-2.0616,-2.0261,-2.0462,-1.9995,-1.969,-1.969,-1.9818,-2.0035,-2.0351,-2.0434,-2.0501,-2.0452,-2.0413,-2.017,-1.969,-1.969,-1.969,-1.969,-1.969,-1.969,-1.969,-1.969,-1.969,-1.969,-1.969,-1.969,-1.969,-1.969,-1.969,-1.969,-1.969,-1.969,-1.969,-1.969,-1.969,-1.969,-1.969,-1.969,-1.969,-1.969,-1.969,-1.969,-1.969,-1.969,-1.969,-1.969,-1.969,-1.9555,-1.8986,-1.9271,-1.954,-1.8972,-1.9286,-1.969,-1.969,-1.969,-1.951,-1.8957,-1.8238,-1.7548,-1.7085,-1.6079,-1.5309,-1.5278,0.0,-1.5151,-1.4578,-1.493,-1.508,-1.4671,-1.462,-1.4602,-1.4667,-1.4598,-1.4552,-1.4569,-1.4992,-1.5033,-1.4564,-1.5073,-1.5339,-1.5364,-1.6366,-1.6715,-1.6321,-1.6924,-1.6896,-1.6373,-1.6355,-1.6324,-1.6213,-1.6238,-1.5978,-1.5509,-1.5057,-1.4599,-1.4125,-1.3455,-1.3513,-1.3909,-1.3408,-1.3661,-1.41,-1.969,-1.969,-1.969,-1.969,-1.969,-1.969,-1.969,-1.9717,-1.9737,-1.9818,-1.9823,-2.0004,-2.04,-2.007,-1.9818,-1.9818,-1.9747,-1.969,-1.969,-2.0379,-2.0733,-2.0542,-2.1084,-2.135,-2.1238,-2.102,-2.0508,-1.969,-1.969,-1.969,-1.969,-1.969,-1.969,-1.969,-1.969,-1.969,-1.969,-1.969,-1.969,-1.969,-1.969,-1.969,-1.969,-1.969,-1.969,-1.969,-1.969,-1.969,-1.969,-1.969,-1.969,-1.969,-1.969,-1.969,-1.969,-1.969,-1.969,-1.969,-1.969,-1.969,-1.966,-1.9555,-1.9615,-1.966,-1.9555,-1.9615,-1.969,-1.969,-1.969,-1.966,-1.9555,-1.8538,-1.7832,-1.8328,-1.7307,-1.6332,-1.599,0.0,-1.6085,-1.4689,-1.5312,-1.5687,-1.5227,-1.5061,-1.5109,-1.5313,-1.4942,-1.4712,-1.4839,-1.4917,-1.4917,-1.484,-1.5265,-1.5514,-1.5656,-1.5834,-1.6084,-1.6469,-1.6557,-1.6311,-1.574,-1.5736,-1.544,-1.5002,-1.4971,-1.4926,-1.4868,-1.4806,-1.4767,-1.46,-1.3658,-1.3325,-1.3311,-1.3223,-1.3661,-1.4187,-1.969,-1.969,-1.969,-1.969,-1.969,-1.969,-1.969,-1.969,-1.969,-1.969,-1.969,-1.9782,-1.998,-1.9803,-1.969,-1.969,-1.969,-1.969,-1.969,-2.0085,-2.0398,-2.0601,-2.1021,-2.1263,-2.1183,-2.0584,-2.0102,-1.969,-1.969,-1.969,-1.969,-1.969,-1.969,-1.969,-1.969,-1.969,-1.969,-1.969,-1.969,-1.969,-1.969,-1.969,-1.969,-1.969,-1.969,-1.969,-1.969,-1.969,-1.969,-1.969,-1.969,-1.969,-1.969,-1.969,-1.969,-1.969,-1.969,-1.969,-1.969,-1.969,-1.969,-1.969,-1.969,-1.969,-1.969,-1.9479,-1.9369,-1.9639,-1.9244,-1.9006,-1.9603,-1.8673,-1.8023,-1.8623,-1.7681,-1.6754,-1.6273,-1.641,-1.6124,-1.4858,-1.53,-1.5567,-1.5115,-1.5021,-1.5052,-1.5158,-1.4952,-1.4815,-1.489,-1.5153,-1.5316,-1.5316,-1.5502,-1.5769,-1.6132,-1.6132,-1.6271,-1.6522,-1.6194,-1.586,-1.5588,-1.5285,-1.4982,-1.471,-1.4675,-1.4698,-1.4664,-1.4403,-1.451,-1.4737,-1.3966,-1.3643,-1.3592,-1.3338,-1.3275,-1.3191,-1.969,-1.969,-1.969,-1.969,-1.969,-1.969,-1.969,-1.969,-1.969,-1.969,-1.969,-1.969,-1.969,-1.969,-1.969,-1.969,-1.969,-1.969,-1.969,-1.969,-1.9919,-2.0366,-2.0584,-2.0715,-2.0705,-2.0051,-1.969,-1.969,-1.969,-1.969,-1.969,-1.969,-1.969,-1.969,-1.969,-1.969,-1.969,-1.969,-1.969,-1.969,-1.969,-1.969,-1.969,-1.969,-1.969,-1.969,-1.969,-1.969,-1.969,-1.969,-1.969,-1.969,-1.969,-1.969,-1.969,-1.969,-1.9603,-1.953,-1.969,-1.969,-1.969,-1.9566,-1.9603,-1.969,-1.953,-1.9281,-1.9207,-1.9603,-1.8968,-1.8535,-1.9369,-1.8644,-1.8036,-1.8481,0.0,-1.7084,-1.6432,-1.6446,-1.615,-1.5018,-1.5389,-1.5542,-1.5143,-1.5056,-1.5081,-1.5268,-1.518,-1.5155,-1.5254,-1.5655,-1.5881,-1.5881,-1.5881,-1.6082,-1.6509,-1.6522,-1.6522,-1.6466,-1.5908,-1.5511,-1.5367,-1.4755,-1.4422,-1.4294,-1.4294,-1.4294,-1.4261,-1.3981,-1.4138,-1.454,-1.399,-1.3877,-1.3901,-1.3298,-1.2816,-1.2485,-1.969,-1.969,-1.969,-1.969,-1.969,-1.969,-1.969,-1.969,-1.969,-1.969,-1.969,-1.969,-1.969,-1.969,-1.969,-1.969,-1.969,-1.969,-1.969,-1.969,-1.9726,-1.9762,-1.9779,-1.9798,-1.9812,-1.9726,-1.969,-1.969,-1.969,-1.969,-1.969,-1.969,-1.969,-1.969,-1.969,-1.969,-1.969,-1.969,-1.969,-1.969,-1.969,-1.969,-1.969,-1.969,-1.969,-1.969,-1.969,-1.969,-1.969,-1.969,-1.969,-1.969,-1.969,-1.969,-1.969,-1.969,-1.9369,-1.908,-1.9566,-1.969,-1.9566,-1.908,-1.9332,-1.9566,-1.908,-1.9332,-1.9639,-1.969,-1.9244,-1.8855,-1.893,-1.8374,-1.7947,-1.8096,0.0,0.0,-1.6608,-1.6917,-1.6637,-1.5107,-1.5685,-1.6087,-1.5671,-1.5544,-1.5698,-1.6363,-1.5919,-1.5856,-1.6371,-1.6434,-1.6459,-1.6459,-1.6459,-1.6471,-1.6522,-1.6522,-1.6522,-1.6466,-1.5908,-1.53,-1.4727,-1.415,-1.3552,-1.3017,-1.3017,-1.3017,-1.3065,-1.3606,-1.381,-1.3814,-1.3337,-1.3466,-1.3771,-1.2765,-1.2625,-1.2935,-2.2113,-2.0797,-1.969,-1.969,-1.969,-1.969,-1.969,-1.969,-1.969,-1.969,-1.969,-1.969,-1.969,-1.969,-1.969,-1.969,-1.969,-1.969,-1.969,-1.969,-1.969,-1.969,-1.9682,-1.9718,-1.9711,-1.969,-1.969,-1.969,-1.969,-1.969,-1.969,-1.969,-1.969,-1.969,-1.969,-1.969,-1.969,-1.969,-1.969,-1.969,-1.969,-1.969,-1.969,-1.969,-1.969,-1.969,-1.969,-1.969,-1.969,-1.969,-1.969,-1.969,-1.969,-1.969,-1.969,-1.969,-1.9566,-1.9369,-1.9244,-1.8968,-1.8727,-1.8855,-1.8817,-1.8727,-1.8855,-1.8535,-1.8302,-1.865,-1.8027,-1.7626,-1.8302,-1.7912,-1.7634,-1.8025,0.0,-1.7799,-1.7103,-1.7167,-1.6948,-1.6014,-1.6195,-1.6363,-1.6208,-1.6173,-1.6223,-1.6484,-1.6321,-1.6113,-1.5952,-1.5611,-1.5555,-1.5908,-1.5952,-1.5952,-1.5952,-1.5555,-1.5389,-1.5389,-1.4778,-1.434,-1.4125,-1.3536,-1.3104,-1.2881,-1.2881,-1.2881,-1.2929,-1.3152,-1.3457,-1.3805,-1.3615,-1.3644,-1.3774,-1.3026,-1.2692,-1.2484,-2.2532,-2.0917,-1.969,-1.969,-1.969,-1.969,-1.969,-1.969,-1.969,-1.969,-1.969,-1.969,-1.969,-1.969,-1.969,-1.969,-1.969,-1.969,-1.969,-1.969,-1.969,-1.969,-1.969,-1.969,-1.969,-1.969,-1.969,-1.969,-1.969,-1.969,-1.969,-1.969,-1.969,-1.969,-1.969,-1.969,-1.969,-1.969,-1.969,-1.969,-1.969,-1.969,-1.969,-1.969,-1.969,-1.969,-1.969,-1.969,-1.969,-1.969,-1.969,-1.969,-1.969,-1.969,-1.969,-1.969,-1.9566,-1.9332,-1.8779,-1.8263,-1.7947,-1.8302,-1.8263,-1.8145,-1.8341,-1.7947,-1.7666,-1.8027,-1.7394,-1.6993,-1.7706,-1.7544,-1.7394,-1.7585,-1.7747,-1.7666,-1.7105,-1.7034,-1.6909,-1.6552,-1.6522,-1.6522,-1.6522,-1.6522,-1.6522,-1.6522,-1.6522,-1.6238,-1.5632,-1.5017,-1.488,-1.532,-1.5129,-1.5039,-1.5039,-1.5005,-1.488,-1.4698,-1.4097,-1.3815,-1.3779,-1.32,-1.2881,-1.2881,-1.2881,-1.2881,-1.2881,-1.2881,-1.3152,-1.3505,-1.3505,-1.3505,-1.3474,-1.3155,-1.2775,-1.2393,-2.0228,-1.969,-1.969,-1.969,-1.969,-1.969,-1.969,-1.969,-1.969,-1.969,-1.9705,-1.972,-1.972,-1.969,-1.969,-1.969,-1.969,-1.969,-1.969,-1.969,-1.969,-1.969,-1.969,-1.969,-1.969,-1.969,-1.969,-1.969,-1.969,-1.969,-1.969,-1.969,-1.969,-1.969,-1.969,-1.969,-1.969,-1.969,-1.969,-1.969,-1.969,-1.969,-1.969,-1.969,-1.969,-1.969,-1.969,-1.969,-1.969,-1.969,-1.969,-1.969,-1.969,-1.969,-1.969,-1.969,-1.9332,-1.8779,-1.8263,-1.7706,-1.7312,-1.7312,-1.7706,-1.7947,-1.7435,-1.7706,-1.8106,-1.8106,-1.7666,-1.7312,-1.7312,-1.7312,-1.7105,-1.6595,-1.6951,-1.7118,-1.6552,-1.6522,-1.6522,-1.6522,-1.6522,-1.6522,-1.6522,-1.6522,-1.6522,-1.6522,-1.6479,-1.6238,-1.5632,-1.5017,-1.4709,-1.4698,-1.4097,-1.3815,-1.3779,-1.4994,-1.5276,-1.4698,-1.4097,-1.3779,-1.3768,-1.3152,-1.2881,-1.2881,-1.2881,-1.2881,-1.2881,-1.2881,-1.2881,-1.2881,-1.2881,-1.2881,-1.2881,-1.2881,-1.2881,-1.2881,-2.2592,-2.0946,-1.969,-1.969,-1.969,-1.969,-1.969,-1.969,-1.969,-1.969,-2.1291,-2.2443,-2.2443,-2.0782,-1.969,-1.969,-1.969,-1.969,-1.969,-1.969,-1.969,-1.969,-1.969,-1.969,-1.969,-1.969,-1.969,-1.969,-1.969,-1.969,-1.969,-1.969,-1.969,-1.969,-1.969,-1.969,-1.969,-1.969,-1.9479,-1.9184,-1.9538,-1.938,-1.9003,-1.9507,-1.9701,-1.9723,-1.9713,-1.9361,-1.9022,-1.9538,-1.9217,-1.8574,-1.8574,-1.8574,-1.8574,-1.8574,-1.8458,-1.8224,-1.7666,-1.7435,-1.7312,-1.7312,-1.7146,-1.7034,-1.7229,-1.7105,-1.6993,-1.6993,-1.6837,-1.6752,-1.6752,-1.6752,-1.668,-1.6522,-1.6637,-1.668,-1.6522,-1.6522,-1.6522,-1.6522,-1.6522,-1.6522,-1.6522,-1.6522,-1.6522,-1.6522,-1.57,-1.5332,-1.5588,-1.4236,-1.361,-1.405,-1.3909,-1.36,-1.3152,-1.3515,-1.361,-1.343,-1.3238,-1.3152,-1.3152,-1.2968,-1.2881,-1.2881,-1.2881,-1.2881,-1.2881,-1.2881,-1.2881,-1.2881,-1.2881,-1.2881,-1.2881,-1.2881,-1.2881,-1.2881,-2.3595,-2.2323,-2.1231,-2.1231,-2.1231,-2.0887,-1.9839,-1.8968,-1.8727,-1.9603,-2.1979,-2.3595,-2.3595,-2.1261,-1.969,-1.969,-1.969,-1.969,-1.969,-1.969,-1.969,-1.969,-1.969,-1.969,-1.969,-1.969,-1.969,-1.969,-1.969,-1.969,-1.969,-1.969,-1.969,-1.969,-1.969,-1.9566,-1.9369,-1.9369,-1.908,-1.8588,-1.8803,-1.8758,-1.8604,-1.8472,-1.8965,-1.9701,-1.9692,-1.9424,-1.8979,-1.8574,-1.8204,-1.7877,-1.7877,-1.8011,-1.8106,-1.8106,-1.8106,-1.7987,-1.7463,-1.7312,-1.7229,-1.7034,-1.6752,-1.6595,-1.6909,-1.6931,-1.6798,-1.6559,-1.6873,-1.7049,-1.6597,-1.671,-1.6785,-1.6559,-1.6522,-1.6522,-1.6522,-1.6522,-1.6522,-1.6522,-1.6522,-1.6522,-1.6522,-1.6281,-1.6051,-1.5788,-1.488,-1.4503,-1.4858,-1.36,-1.3065,-1.342,-1.342,-1.3286,-1.2881,-1.2881,-1.2881,-1.2881,-1.2881,-1.2881,-1.2881,-1.2881,-1.2881,-1.2881,-1.2881,-1.2881,-1.2881,-1.2881,-1.2881,-1.2881,-1.2881,-1.2881,-1.2881,-1.2881,-1.2881,-1.2881,-2.3319,-2.326,-2.326,-2.326,-2.326,-2.2446,-2.0042,-1.8027,-1.7504,-1.9442,-2.1754,-2.334,-2.3565,-2.1455,-1.9944,-1.9705,-1.953,-1.9479,-1.969,-1.969,-1.969,-1.969,-1.969,-1.969,-1.969,-1.969,-1.969,-1.969,-1.969,-1.969,-1.969,-1.969,-1.969,-1.969,-1.969,-1.9406,-1.8893,-1.8893,-1.8574,-1.8013,-1.7704,-1.7946,-1.8258,-1.697,-1.7704,-1.9401,-1.9427,-1.9427,-1.914,-1.7156,-1.6944,-1.7517,-1.7517,-1.7705,-1.7947,-1.8002,-1.7988,-1.7867,-1.7419,-1.7269,-1.7118,-1.6637,-1.6559,-1.6597,-1.6597,-1.6999,-1.725,-1.6773,-1.7488,-1.7877,-1.6798,-1.7074,-1.725,-1.6622,-1.6559,-1.6572,-1.6522,-1.6466,-1.6423,-1.6423,-1.6423,-1.6423,-1.6423,-1.5908,-1.5365,-1.4744,-1.4143,-1.3815,-1.3815,-1.3248,-1.2881,-1.2881,-1.2881,-1.2881,-1.2881,-1.2881,-1.2881,-1.2881,-1.2881,-1.2881,-1.2881,-1.2881,-1.2881,-1.2881,-1.2881,-1.2881,-1.2881,-1.2881,-1.2881,-1.2881,-1.2881,-1.2881,-1.2881,-1.2881,-1.2881,-1.2881,-2.1037,-2.0607,-2.0607,-2.0607,-2.0607,-2.0435,-1.979,-1.9332,-1.9169,-1.9639,-2.0183,-2.1321,-2.337,-2.3086,-2.1919,-1.9869,-1.8185,-1.7907,-1.9603,-1.969,-1.969,-1.969,-1.969,-1.969,-1.969,-1.969,-1.969,-1.969,-1.969,-1.969,-1.969,-1.969,-1.969,-1.969,-1.969,-1.9406,-1.8893,-1.8893,-1.8341,-1.7476,-1.7557,-1.7323,-1.6934,-1.6628,-1.6792,-1.7181,-1.7183,-1.7197,-1.7126,-1.6641,-1.6608,-1.6744,-1.6744,-1.6811,-1.6927,-1.7432,-1.7239,-1.6927,-1.7282,-1.7023,-1.6637,-1.6522,-1.6861,-1.7187,-1.7187,-1.73,-1.7463,-1.7777,-1.8041,-1.8003,-1.7313,-1.7652,-1.7689,-1.6685,-1.6898,-1.7036,-1.6584,-1.6095,-1.582,-1.582,-1.582,-1.582,-1.582,-1.5676,-1.5365,-1.4744,-1.4143,-1.3815,-1.3815,-1.3248,-1.2881,-1.2881,-1.2881,-1.2881,-1.2881,-1.2881,-1.2881,-1.2881,-1.2881,-1.2881,-1.2881,-1.2881,-1.2881,-1.2881,-1.2881,-1.2881,-1.2881,-1.2881,-1.2881,-1.2881,-1.2881,-1.2881,-1.2881,-1.2881,-1.2881,-1.2881,-2.1885,-2.0607,-1.9798,-1.9798,-1.9798,-1.9784,-1.9748,-1.8838,-1.8185,-1.8185,-1.91,-1.986,-2.0187,-2.0201,-2.0059,-1.9722,-1.7747,-1.7435,-1.9566,-1.969,-1.969,-1.969,-1.968,-1.9686,-1.969,-1.9708,-1.9708,-1.969,-1.969,-1.969,-1.969,-1.969,-1.969,-1.969,-1.9442,-1.9006,-1.8496,-1.8263,-1.7666,-1.6921,-1.7044,-1.6833,-1.6509,-1.6498,-1.6477,-1.6507,-1.6491,-1.6488,-1.6541,-1.691,-1.6804,-1.6572,-1.6848,-1.6735,-1.6635,-1.7212,-1.7162,-1.7049,-1.7614,-1.7363,-1.6986,-1.725,-1.735,-1.7388,-1.7388,-1.779,-1.8179,-1.8191,-1.8606,-1.8719,-1.7915,-1.8229,-1.8317,-1.7463,-1.7576,-1.7664,-1.7363,-1.673,-1.6337,-1.6337,-1.601,-1.5679,-1.5404,-1.5356,-1.5015,-1.4173,-1.3834,-1.3547,-1.3382,-1.3253,-1.3086,-1.2891,-1.3271,-1.3281,-1.2881,-1.3076,-1.3076,-1.2881,-1.2881,-1.2881,-1.2881,-1.2881,-1.2881,-1.2881,-1.2881,-1.2881,-1.2881,-1.2881,-1.2881,-1.2881,-1.2881,-1.2881,-1.2881,-1.2881,-1.2881,-1.2881,-2.2935,-2.1232,-1.9798,-1.9798,-1.9798,-1.9798,-1.9798,-1.7928,-1.6522,-1.6522,-1.8103,-1.8543,-1.6722,-1.6522,-1.7229,-1.9006,-1.7544,-1.7271,-1.9043,-1.9169,-1.9169,-1.9169,-1.9154,-1.9141,-1.9147,-1.9315,-1.952,-1.969,-1.969,-1.969,-1.969,-1.9603,-1.953,-1.9479,-1.9006,-1.8458,-1.7947,-1.7504,-1.6993,-1.6522,-1.6522,-1.6522,-1.6522,-1.6522,-1.6522,-1.6522,-1.6522,-1.6584,-1.676,-1.7377,-1.7219,-1.6886,-1.7375,-1.7187,-1.6923,-1.7501,-1.7601,-1.7639,-1.8191,-1.794,-1.7626,-1.8091,-1.7928,-1.7664,-1.7664,-1.8367,-1.892,-1.8555,-1.9083,-1.9345,-1.847,-1.8684,-1.8796,-1.8257,-1.8172,-1.8101,-1.8014,-1.7278,-1.6764,-1.6764,-1.6216,-1.5669,-1.5133,-1.5081,-1.4666,-1.3694,-1.3613,-1.3467,-1.3115,-1.3428,-1.3457,-1.3105,-1.3769,-1.3799,-1.3105,-1.3437,-1.3437,-1.3096,-1.3027,-1.2949,-1.2881,-1.2881,-1.2881,-1.2881,-1.2881,-1.2881,-1.2881,-1.2881,-1.2881,-1.2881,-1.2881,-1.2881,-1.2881,-1.2881,-1.2881,-1.2881,-2.032,-2.0042,-1.9798,-1.9798,-1.9798,-1.9798,-1.9798,-1.7928,-1.6522,-1.6522,-1.6773,-1.6848,-1.6547,-1.6522,-1.6637,-1.6909,-1.668,-1.6637,-1.6909,-1.6909,-1.6909,-1.6909,-1.6923,-1.6935,-1.6909,-1.7855,-1.8772,-1.969,-1.969,-1.969,-1.969,-1.9244,-1.893,-1.8727,-1.838,-1.7907,-1.7394,-1.7353,-1.6993,-1.6522,-1.6522,-1.6522,-1.6522,-1.6522,-1.6522,-1.6522,-1.6522,-1.6917,-1.7485,-1.7574,-1.7735,-1.799,-1.8078,-1.8041,-1.8091,-1.8643,-1.8468,-1.8216,-1.8769,-1.8518,-1.8116,-1.8191,-1.8505,-1.8807,-1.8807,-1.892,-1.9133,-1.951,-1.9209,-1.8863,-1.8871,-1.8814,-1.8621,-1.8271,-1.8069,-1.7781,-1.7326,-1.6177,-1.5382,-1.5382,-1.5278,-1.5185,-1.5133,-1.5081,-1.4799,-1.4053,-1.4,-1.397,-1.3912,-1.397,-1.397,-1.3912,-1.4019,-1.4029,-1.3965,-1.397,-1.397,-1.3902,-1.3603,-1.3232,-1.2881,-1.2881,-1.2881,-1.2881,-1.2881,-1.2881,-1.2881,-1.2881,-1.2881,-1.2881,-1.2881,-1.2881,-1.2881,-1.2881,-1.2881,-1.2881,-1.9798,-1.9798,-1.9798,-1.9798,-1.9798,-1.9798,-1.9798,-1.8982,-1.8355,-1.8355,-1.7287,-1.6522,-1.6522,-1.6522,-1.6522,-1.6522,-1.6522,-1.6522,-1.6522,-1.6522,-1.6522,-1.6522,-1.6522,-1.6506,-1.6514,-1.7542,-1.8016,-1.7917,-1.9132,-1.9479,-1.908,-1.8835,-1.8478,-1.8027,-1.7787,-1.7504,-1.7271,-1.6993,-1.671,-1.6522,-1.6522,-1.6522,-1.6522,-1.6522,-1.6522,-1.6522,-1.6522,-1.7099,-1.7924,-1.7924,-1.8075,-1.8254,-1.8568,-1.8455,-1.8317,-1.8869,-1.8857,-1.8781,-1.9309,-1.907,-1.8731,-1.9032,-1.9058,-1.9058,-1.9397,-1.9459,-1.9522,-1.9761,-1.9202,-1.8708,-1.8806,-1.8413,-1.8028,-1.7913,-1.781,-1.7656,-1.7427,-1.6515,-1.5732,-1.5346,-1.529,-1.529,-1.529,-1.529,-1.5024,-1.4512,-1.4492,-1.4394,-1.4087,-1.4365,-1.4385,-1.4087,-1.4544,-1.4619,-1.4087,-1.4375,-1.4375,-1.4077,-1.3945,-1.3633,-1.3223,-1.2988,-1.2881,-1.2881,-1.2881,-1.2881,-1.2881,-1.2881,-1.2881,-1.2881,-1.2881,-1.2881,-1.2881,-1.2881,-1.2881,-1.2881]},{"header":{"parameterUnit":"m.s-1","parameterCategory":1,"la1":30.6,"la2":28.766,"lo1":-90.7593,"lo2":-88.6598,"dy":0.0162,"dx":0.0183,"nx":116,"ny":114,"refTime":"2023-05-29T12:00:00:Z","depth":0,"parameterNumber":3,"parameterNumberName":"V-component_of_WINDS"},"data":[0.0,0.0,0.0,0.0,0.0,0.0,0.0,0.0,0.0,0.0,0.0,0.0,0.0,0.0,0.0,0.0,0.0,0.0,0.0,0.0,0.0,0.0,0.0,0.0,0.0,0.0,0.0,0.0,0.0,0.0,0.0,0.0,0.0,0.0,0.0,0.0,0.0,0.0,0.0,0.0,0.0,0.0,0.0,0.0,0.0,0.0,0.0,0.0,0.0,0.0,0.0,0.0,0.0,0.0,0.0,0.0,0.0,0.0,0.0,0.0,0.0,0.0,0.0,0.0,0.0,0.0,0.0,0.0,0.0,0.0,0.0,0.0,0.0,0.0,0.0,0.0,0.0,0.0,0.0,0.0,0.0,0.0,0.0,0.0,0.0,0.0,0.0,0.0,0.0,0.0,0.0,0.0,0.0,0.0,0.0,0.0,0.0,0.0,0.0,0.0,0.0,0.0,0.0,0.0,0.0,0.0,0.0,0.0,0.0,0.0,0.0,0.0,0.0,0.0,0.0,0.0,0.0,0.0,0.0,0.0,0.0,0.0,0.0,0.0,0.0,0.0,0.0,0.0,0.0,0.0,0.0,0.0,0.0,0.0,0.0,0.0,0.0,0.0,0.0,0.0,0.0,0.0,0.0,0.0,0.0,0.0,0.0,0.0,0.0,0.0,0.0,0.0,0.0,0.0,0.0,0.0,0.0,0.0,0.0,0.0,0.0,0.0,0.0,0.0,0.0,0.0,0.0,0.0,0.0,0.0,0.0,0.0,0.0,0.0,0.0,0.0,0.0,0.0,0.0,0.0,0.0,0.0,0.0,0.0,0.0,0.0,0.0,0.0,0.0,0.0,0.0,0.0,0.0,0.0,0.0,0.0,0.0,0.0,0.0,0.0,0.0,0.0,0.0,0.0,0.0,0.0,0.0,0.0,0.0,0.0,0.0,0.0,0.0,0.0,0.0,0.0,0.0,0.0,0.0,0.0,0.0,0.0,0.0,0.0,0.0,0.0,0.0,0.0,0.0,0.0,0.0,0.0,0.0,0.0,0.0,0.0,0.0,0.0,0.0,0.0,0.0,0.0,0.0,0.0,0.0,0.0,0.0,0.0,0.0,0.0,0.0,0.0,0.0,0.0,0.0,0.0,0.0,0.0,0.0,0.0,0.0,0.0,0.0,0.0,0.0,0.0,0.0,0.0,0.0,0.0,0.0,0.0,0.0,0.0,0.0,0.0,0.0,0.0,0.0,0.0,0.0,0.0,0.0,0.0,0.0,0.0,0.0,0.0,0.0,0.0,0.0,0.0,0.0,0.0,0.0,0.0,0.0,0.0,0.0,0.0,0.0,0.0,0.0,0.0,0.0,0.0,0.0,0.0,0.0,0.0,0.0,0.0,0.0,0.0,0.0,0.0,0.0,0.0,0.0,0.0,0.0,0.0,0.0,0.0,0.0,0.0,0.0,0.0,0.0,0.0,0.0,0.0,0.0,0.0,0.0,0.0,0.0,0.0,0.0,0.0,0.0,0.0,0.0,0.0,0.0,0.0,0.0,0.0,0.0,0.0,0.0,0.0,0.0,0.0,0.0,0.0,0.0,0.0,0.0,0.0,0.0,0.0,0.0,0.0,0.0,0.0,0.0,0.0,0.0,0.0,0.0,0.0,0.0,0.0,0.0,0.0,0.0,0.0,0.0,0.0,0.0,0.0,0.0,0.0,0.0,0.0,0.0,0.0,0.0,0.0,0.0,0.0,0.0,0.0,0.0,0.0,0.0,0.0,0.0,0.0,0.0,0.0,0.0,0.0,0.0,0.0,0.0,0.0,0.0,0.0,0.0,0.0,0.0,0.0,0.0,0.0,0.0,0.0,0.0,0.0,0.0,0.0,0.0,0.0,0.0,0.0,0.0,0.0,0.0,0.0,0.0,0.0,0.0,0.0,0.0,0.0,0.0,0.0,0.0,0.0,0.0,0.0,0.0,0.0,0.0,0.0,0.0,0.0,0.0,0.0,0.0,0.0,0.0,0.0,0.0,0.0,0.0,0.0,0.0,0.0,0.0,0.0,0.0,0.0,0.0,0.0,0.0,0.0,0.0,0.0,0.0,0.0,0.0,0.0,0.0,0.0,0.0,0.0,0.0,0.0,0.0,0.0,0.0,0.0,0.0,0.0,0.0,0.0,0.0,0.0,0.0,0.0,0.0,0.0,0.0,0.0,0.0,0.0,0.0,0.0,0.0,0.0,0.0,0.0,0.0,0.0,0.0,0.0,0.0,0.0,0.0,0.0,0.0,0.0,0.0,0.0,0.0,0.0,0.0,0.0,0.0,0.0,0.0,0.0,0.0,0.0,0.0,0.0,0.0,0.0,0.0,0.0,0.0,0.0,0.0,0.0,0.0,0.0,0.0,0.0,0.0,0.0,0.0,0.0,0.0,0.0,0.0,0.0,0.0,0.0,0.0,0.0,0.0,0.0,0.0,0.0,0.0,0.0,0.0,0.0,0.0,0.0,0.0,0.0,0.0,0.0,0.0,0.0,0.0,0.0,0.0,0.0,0.0,0.0,0.0,0.0,0.0,0.0,0.0,0.0,0.0,0.0,0.0,0.0,0.0,0.0,0.0,0.0,0.0,0.0,0.0,0.0,0.0,0.0,0.0,0.0,0.0,0.0,0.0,0.0,0.0,0.0,0.0,0.0,0.0,0.0,0.0,0.0,0.0,0.0,0.0,0.0,0.0,0.0,0.0,0.0,0.0,0.0,0.0,0.0,0.0,0.0,0.0,0.0,0.0,0.0,0.0,0.0,0.0,0.0,0.0,0.0,0.0,0.0,0.0,0.0,0.0,0.0,0.0,0.0,0.0,0.0,0.0,0.0,0.0,0.0,0.0,0.0,0.0,0.0,0.0,0.0,0.0,0.0,0.0,0.0,0.0,0.0,0.0,0.0,0.0,0.0,0.0,0.0,0.0,0.0,0.0,0.0,0.0,0.0,0.0,0.0,0.0,0.0,0.0,0.0,0.0,0.0,0.0,0.0,0.0,0.0,0.0,0.0,0.0,0.0,0.0,0.0,0.0,0.0,0.0,0.0,0.0,0.0,0.0,0.0,0.0,0.0,0.0,0.0,0.0,0.0,0.0,0.0,0.0,0.0,0.0,0.0,0.0,0.0,0.0,0.0,0.0,0.0,0.0,0.0,0.0,0.0,0.0,0.0,0.0,0.0,0.0,0.0,0.0,0.0,0.0,0.0,0.0,0.0,0.0,0.0,0.0,0.0,0.0,0.0,0.0,0.0,0.0,0.0,0.0,0.0,0.0,0.0,0.0,0.0,0.0,0.0,0.0,0.0,0.0,0.0,0.0,0.0,0.0,0.0,0.0,0.0,0.0,0.0,0.0,0.0,0.0,0.0,0.0,0.0,0.0,0.0,0.0,0.0,0.0,0.0,0.0,0.0,0.0,0.0,0.0,0.0,0.0,0.0,0.0,0.0,0.0,0.0,0.0,0.0,0.0,0.0,0.0,0.0,0.0,0.0,0.0,0.0,0.0,0.0,0.0,0.0,0.0,0.0,0.0,0.0,0.0,0.0,0.0,0.0,0.0,0.0,0.0,0.0,0.0,0.0,0.0,0.0,0.0,0.0,0.0,0.0,0.0,0.0,0.0,0.0,0.0,0.0,0.0,0.0,0.0,0.0,0.0,0.0,0.0,0.0,0.0,0.0,0.0,0.0,0.0,0.0,0.0,0.0,0.0,0.0,0.0,0.0,0.0,0.0,0.0,0.0,0.0,0.0,0.0,0.0,0.0,0.0,0.0,0.0,0.0,0.0,0.0,0.0,0.0,0.0,0.0,0.0,0.0,0.0,0.0,0.0,0.0,0.0,0.0,0.0,0.0,0.0,0.0,0.0,0.0,0.0,0.0,0.0,0.0,0.0,0.0,0.0,0.0,0.0,0.0,0.0,0.0,0.0,0.0,0.0,0.0,0.0,0.0,0.0,0.0,0.0,0.0,0.0,0.0,0.0,0.0,0.0,0.0,0.0,0.0,0.0,0.0,0.0,0.0,0.0,0.0,0.0,0.0,0.0,0.0,0.0,0.0,0.0,0.0,0.0,0.0,0.0,0.0,0.0,0.0,0.0,0.0,0.0,0.0,0.0,0.0,0.0,0.0,0.0,0.0,0.0,0.0,0.0,0.0,0.0,0.0,0.0,0.0,0.0,0.0,0.0,0.0,0.0,0.0,0.0,0.0,0.0,0.0,0.0,0.0,0.0,0.0,0.0,0.0,0.0,0.0,0.0,0.0,0.0,0.0,0.0,0.0,0.0,0.0,0.0,0.0,0.0,0.0,0.0,0.0,0.0,0.0,0.0,0.0,0.0,0.0,0.0,0.0,0.0,0.0,0.0,0.0,0.0,0.0,0.0,0.0,0.0,0.0,0.0,0.0,0.0,0.0,0.0,0.0,0.0,0.0,0.0,0.0,0.0,0.0,0.0,0.0,0.0,0.0,0.0,0.0,0.0,0.0,0.0,0.0,0.0,0.0,0.0,0.0,0.0,0.0,0.0,0.0,0.0,0.0,0.0,0.0,0.0,0.0,0.0,0.0,0.0,0.0,0.0,0.0,0.0,0.0,0.0,0.0,0.0,0.0,0.0,0.0,0.0,0.0,0.0,0.0,0.0,0.0,0.0,0.0,0.0,0.0,0.0,0.0,0.0,0.0,0.0,0.0,0.0,0.0,0.0,0.0,0.0,0.0,0.0,0.0,0.0,0.0,0.0,0.0,0.0,0.0,0.0,0.0,0.0,0.0,0.0,0.0,0.0,0.0,0.0,0.0,0.0,0.0,0.0,0.0,0.0,0.0,0.0,0.0,0.0,0.0,0.0,0.0,0.0,0.0,0.0,0.0,0.0,0.0,0.0,0.0,0.0,0.0,0.0,0.0,0.0,0.0,0.0,0.0,0.0,0.0,0.0,0.0,0.0,0.0,0.0,0.0,0.0,0.0,0.0,0.0,0.0,0.0,0.0,0.0,0.0,0.0,0.0,0.0,0.0,0.0,0.0,0.0,0.0,0.0,0.0,0.0,0.0,0.0,0.0,0.0,0.0,0.0,0.0,0.0,0.0,0.0,0.0,0.0,0.0,0.0,0.0,0.0,0.0,0.0,0.0,0.0,0.0,0.0,0.0,0.0,0.0,0.0,0.0,0.0,0.0,0.0,0.0,0.0,0.0,0.0,0.0,0.0,0.0,0.0,0.0,0.0,0.0,0.0,0.0,0.0,0.0,0.0,0.0,0.0,0.0,0.0,0.0,0.0,0.0,0.0,0.0,0.0,0.0,0.0,0.0,0.0,0.0,0.0,0.0,0.0,0.0,0.0,0.0,0.0,0.0,0.0,0.0,0.0,0.0,0.0,0.0,0.0,0.0,0.0,0.0,0.0,0.0,0.0,0.0,0.0,0.0,0.0,0.0,0.0,0.0,0.0,0.0,0.0,0.0,0.0,0.0,0.0,0.0,0.0,0.0,0.0,0.0,0.0,0.0,0.0,0.0,0.0,0.0,0.0,0.0,0.0,0.0,0.0,0.0,0.0,0.0,0.0,0.0,0.0,0.0,0.0,0.0,0.0,0.0,0.0,0.0,0.0,0.0,0.0,0.0,0.0,0.0,0.0,0.0,0.0,0.0,0.0,0.0,0.0,0.0,0.0,0.0,0.0,0.0,0.0,0.0,0.0,0.0,0.0,0.0,0.0,0.0,0.0,0.0,0.0,0.0,0.0,0.0,0.0,0.0,0.0,0.0,0.0,0.0,0.0,0.0,0.0,0.0,0.0,0.0,0.0,0.0,0.0,0.0,0.0,0.0,0.0,0.0,0.0,0.0,0.0,0.0,0.0,0.0,0.0,0.0,0.0,0.0,0.0,0.0,0.0,0.0,0.0,0.0,0.0,0.0,0.0,0.0,0.0,0.0,0.0,0.0,0.0,0.0,0.0,0.0,0.0,0.0,0.0,0.0,0.0,0.0,0.0,0.0,0.0,0.0,0.0,0.0,0.0,0.0,0.0,0.0,0.0,0.0,0.0,0.0,0.0,0.0,0.0,0.0,0.0,0.0,0.0,0.0,0.0,0.0,0.0,0.0,0.0,0.0,-1.6076,0.0,0.0,0.0,0.0,0.0,0.0,0.0,0.0,0.0,0.0,0.0,0.0,0.0,0.0,0.0,0.0,0.0,0.0,0.0,0.0,0.0,0.0,0.0,0.0,0.0,0.0,0.0,0.0,0.0,0.0,0.0,0.0,0.0,0.0,0.0,0.0,0.0,0.0,0.0,0.0,0.0,0.0,0.0,0.0,0.0,0.0,0.0,0.0,0.0,0.0,0.0,0.0,0.0,0.0,0.0,0.0,0.0,0.0,0.0,0.0,0.0,0.0,0.0,0.0,0.0,0.0,0.0,0.0,0.0,0.0,0.0,0.0,0.0,0.0,0.0,0.0,0.0,0.0,0.0,0.0,0.0,0.0,0.0,0.0,0.0,0.0,0.0,0.0,0.0,0.0,0.0,0.0,0.0,0.0,0.0,0.0,0.0,0.0,0.0,0.0,0.0,0.0,0.0,0.0,0.0,0.0,0.0,0.0,0.0,0.0,0.0,0.0,0.0,0.0,0.0,0.0,-1.6691,0.0,0.0,0.0,0.0,0.0,0.0,0.0,0.0,0.0,0.0,0.0,0.0,0.0,0.0,0.0,0.0,0.0,0.0,0.0,0.0,0.0,0.0,0.0,0.0,0.0,0.0,0.0,0.0,0.0,0.0,0.0,0.0,0.0,0.0,0.0,0.0,0.0,0.0,0.0,0.0,0.0,0.0,0.0,0.0,0.0,0.0,0.0,0.0,0.0,0.0,0.0,0.0,0.0,0.0,0.0,0.0,0.0,0.0,0.0,0.0,0.0,0.0,0.0,0.0,0.0,0.0,0.0,0.0,0.0,0.0,0.0,0.0,0.0,0.0,0.0,0.0,0.0,0.0,0.0,0.0,0.0,0.0,0.0,0.0,0.0,0.0,0.0,0.0,0.0,0.0,0.0,0.0,0.0,0.0,0.0,0.0,0.0,0.0,0.0,0.0,0.0,0.0,0.0,0.0,0.0,0.0,0.0,0.0,-2.1933,-2.212,-2.2288,-2.2496,-2.1806,-2.036,-1.861,-1.7538,-1.707,-1.7737,0.0,0.0,0.0,0.0,0.0,0.0,0.0,0.0,0.0,0.0,0.0,0.0,0.0,0.0,0.0,0.0,0.0,0.0,0.0,0.0,0.0,0.0,0.0,0.0,0.0,0.0,0.0,0.0,0.0,0.0,0.0,0.0,0.0,0.0,0.0,0.0,0.0,0.0,-2.2721,-2.3153,-2.3276,-2.3059,-2.1812,0.0,0.0,0.0,0.0,0.0,0.0,0.0,0.0,0.0,0.0,0.0,0.0,0.0,0.0,0.0,0.0,0.0,0.0,0.0,0.0,0.0,0.0,0.0,0.0,0.0,0.0,0.0,0.0,0.0,0.0,0.0,0.0,0.0,0.0,0.0,0.0,0.0,0.0,0.0,0.0,0.0,0.0,0.0,-2.1409,-2.2375,0.0,0.0,0.0,0.0,0.0,0.0,0.0,0.0,0.0,0.0,0.0,0.0,0.0,-2.1671,-2.2123,-2.2476,-2.2585,-2.2474,-2.3353,-2.3369,-2.2664,-2.3361,-2.3041,-2.1915,-2.1738,0.0,-1.8378,-1.8712,0.0,0.0,0.0,0.0,0.0,0.0,0.0,0.0,0.0,0.0,0.0,0.0,0.0,0.0,0.0,0.0,0.0,0.0,0.0,0.0,0.0,0.0,0.0,0.0,0.0,0.0,0.0,0.0,0.0,0.0,0.0,0.0,0.0,0.0,0.0,0.0,-2.3272,-2.3805,-2.3712,-2.5309,-2.5798,-2.5287,-2.4613,-2.3987,-2.3365,-2.2007,0.0,0.0,0.0,0.0,0.0,0.0,0.0,0.0,0.0,0.0,0.0,0.0,0.0,0.0,0.0,0.0,0.0,0.0,0.0,0.0,0.0,0.0,0.0,0.0,0.0,0.0,0.0,0.0,0.0,0.0,0.0,0.0,0.0,0.0,0.0,0.0,0.0,0.0,0.0,-2.2388,-2.3069,-2.3145,-2.3933,-2.4429,0.0,0.0,0.0,0.0,0.0,0.0,0.0,0.0,0.0,-2.3016,-2.2863,-2.2915,-2.3225,-2.3676,-2.4088,-2.446,-2.5043,-2.537,-2.5399,-2.5458,-2.5193,-2.4716,-2.4263,-2.3131,-2.1537,-2.1059,-2.0652,-2.0342,0.0,0.0,0.0,0.0,-1.9019,-1.8812,0.0,0.0,0.0,0.0,0.0,0.0,0.0,0.0,0.0,0.0,0.0,0.0,0.0,0.0,0.0,-2.3639,0.0,0.0,0.0,0.0,0.0,0.0,0.0,0.0,0.0,0.0,0.0,0.0,-2.5225,-2.6117,-2.5768,-2.7948,-2.8556,-2.7824,-2.7622,-2.6249,-2.3996,-2.299,-2.2344,0.0,0.0,0.0,0.0,0.0,0.0,0.0,0.0,0.0,0.0,0.0,0.0,0.0,0.0,0.0,0.0,0.0,0.0,0.0,0.0,0.0,0.0,0.0,0.0,0.0,0.0,0.0,0.0,0.0,0.0,0.0,0.0,0.0,0.0,0.0,0.0,0.0,0.0,-2.3052,-2.3827,-2.3467,-2.4364,-2.4905,0.0,0.0,0.0,0.0,0.0,0.0,-2.5668,-2.5139,-2.4774,-2.4722,-2.4495,-2.4404,-2.452,-2.5028,-2.5665,-2.6474,-2.6724,-2.7086,-2.7508,-2.7103,-2.6739,-2.6366,-2.5699,-2.4997,-2.4227,-2.3146,-2.2167,-2.1343,-2.126,-2.0744,-2.0027,-1.9852,-1.9717,-1.9508,0.0,0.0,0.0,0.0,0.0,0.0,0.0,0.0,0.0,0.0,0.0,0.0,0.0,0.0,-2.4238,-2.5463,-2.487,-2.4845,0.0,0.0,0.0,0.0,0.0,0.0,0.0,0.0,0.0,-2.6374,-2.7452,-2.8637,-2.9916,-3.0821,-3.1207,-3.1127,-3.0356,-2.8682,-2.6332,-2.4756,-2.3883,-2.3577,0.0,0.0,0.0,0.0,0.0,0.0,0.0,0.0,0.0,0.0,0.0,0.0,0.0,0.0,0.0,0.0,0.0,0.0,0.0,0.0,0.0,0.0,0.0,0.0,0.0,0.0,0.0,0.0,0.0,0.0,0.0,0.0,0.0,0.0,0.0,0.0,0.0,0.0,0.0,-2.2316,-2.3923,0.0,0.0,0.0,0.0,-2.6446,-2.6484,-2.6495,-2.6544,-2.6505,-2.6354,-2.6117,-2.6142,-2.6355,-2.673,-2.6962,-2.7375,-2.7998,-2.8197,-2.8046,-2.7588,-2.7561,-2.6823,-2.5551,-2.5454,-2.5418,-2.5348,-2.4261,-2.3752,-2.3602,-2.3285,-2.351,-2.3871,-2.2809,-2.2207,-2.1697,0.0,0.0,0.0,0.0,0.0,0.0,0.0,0.0,0.0,0.0,0.0,0.0,0.0,-2.4681,-2.499,-2.6165,-2.6117,-2.5948,-2.5809,0.0,0.0,0.0,0.0,0.0,0.0,0.0,-2.6507,-2.7901,-2.9288,-3.049,-3.1499,-3.2504,-3.2477,-3.1663,-3.1881,-3.1159,-2.9512,-2.6869,-2.5065,-2.3959,-2.3213,-2.2977,0.0,0.0,0.0,0.0,0.0,0.0,0.0,0.0,0.0,0.0,0.0,0.0,0.0,0.0,0.0,0.0,0.0,0.0,0.0,0.0,0.0,0.0,0.0,0.0,0.0,0.0,0.0,0.0,0.0,0.0,0.0,0.0,0.0,0.0,0.0,0.0,0.0,-2.617,-2.7573,0.0,-2.7209,-2.75,-2.7819,-2.7994,-2.8172,-2.8437,-2.8831,-2.8374,-2.8111,-2.8142,-2.7436,-2.7296,-2.7739,-2.7676,-2.7882,-2.8291,-2.8033,-2.7905,-2.7883,-2.6977,-2.639,-2.6053,-2.5459,-2.5323,-2.5468,-2.5091,-2.4503,-2.3849,-2.3728,-2.3411,-2.2999,-2.2811,-2.2664,-2.2419,0.0,0.0,0.0,0.0,0.0,0.0,0.0,0.0,0.0,0.0,0.0,-2.2767,-2.4409,-2.479,-2.5451,-2.6689,-2.6656,-2.6405,-2.6023,0.0,0.0,0.0,0.0,0.0,0.0,-2.6898,-2.8372,-2.9817,-3.1536,-3.2749,-3.3469,-3.4471,-3.4394,-3.3477,-3.4018,-3.3696,-3.2631,-3.0512,-2.8015,-2.5429,-2.4306,-2.4247,-2.4563,0.0,0.0,0.0,0.0,0.0,0.0,0.0,0.0,0.0,0.0,0.0,0.0,0.0,0.0,0.0,0.0,0.0,0.0,0.0,0.0,0.0,0.0,0.0,0.0,0.0,0.0,0.0,0.0,0.0,0.0,0.0,0.0,0.0,0.0,0.0,-2.7942,-2.9204,-3.0068,-3.0319,-2.9704,-2.9426,-2.9341,-2.9505,-2.967,-3.0075,-3.0743,-3.0129,-2.9791,-2.9838,-2.8718,-2.8214,-2.847,-2.8081,-2.7992,-2.8219,-2.7707,-2.7457,-2.7451,-2.6388,-2.5911,-2.5902,-2.5308,-2.5213,-2.5464,-2.549,-2.5088,-2.4432,-2.4368,-2.3886,-2.3258,-2.3427,-2.3477,-2.3413,0.0,0.0,0.0,0.0,0.0,0.0,0.0,0.0,0.0,0.0,-2.1626,-2.1916,-2.296,-2.4251,-2.5625,-2.7118,-2.6403,-2.6081,-2.6551,-2.4843,0.0,0.0,0.0,0.0,-2.7361,-2.9025,-3.0671,-3.2297,-3.4219,-3.5418,-3.5983,-3.6835,-3.7039,-3.6702,-3.6702,-3.6298,-3.5571,-3.5552,-3.2773,-2.8276,-2.7161,-2.6834,-2.6749,0.0,0.0,0.0,0.0,0.0,0.0,0.0,0.0,0.0,0.0,0.0,0.0,0.0,0.0,0.0,0.0,0.0,0.0,0.0,0.0,0.0,0.0,0.0,0.0,0.0,0.0,0.0,0.0,0.0,0.0,0.0,0.0,0.0,-2.6273,-2.7844,-2.9569,-3.0979,-3.111,-3.1182,-3.1381,-3.0426,-3.0133,-3.096,-3.1036,-3.1374,-3.2146,-3.1784,-3.1394,-3.1093,-2.9926,-2.9221,-2.8971,-2.8229,-2.7886,-2.788,-2.7368,-2.6861,-2.6271,-2.5856,-2.5418,-2.4967,-2.4998,-2.5149,-2.5409,-2.546,-2.5509,-2.5487,-2.5297,-2.5159,-2.5081,-2.4877,-2.4815,-2.4752,0.0,0.0,0.0,0.0,0.0,0.0,0.0,0.0,0.0,0.0,-2.2882,-2.3985,-2.4871,-2.5425,-2.6367,-2.7926,-2.6336,-2.557,-2.6333,0.0,0.0,0.0,0.0,0.0,-2.9279,-3.0776,-3.2549,-3.4596,-3.5518,-3.647,-3.7431,-3.768,-3.749,-3.6979,-3.6979,-3.7089,-3.718,-3.6398,-3.5516,-3.4341,-3.0928,-2.9246,-2.8577,0.0,0.0,0.0,0.0,0.0,0.0,0.0,0.0,0.0,0.0,0.0,0.0,0.0,0.0,0.0,0.0,0.0,0.0,0.0,0.0,0.0,0.0,0.0,0.0,0.0,0.0,0.0,0.0,0.0,0.0,0.0,0.0,-2.8853,-2.8732,-3.0869,-3.2908,-3.4124,-3.4921,-3.4956,-3.379,-3.3976,-3.3992,-3.3615,-3.3818,-3.3961,-3.4067,-3.3013,-3.1953,-3.0832,-2.9916,-2.903,-2.8134,-2.7928,-2.7698,-2.7452,-2.6435,-2.6011,-2.6059,-2.5049,-2.4632,-2.4651,-2.4799,-2.4986,-2.5197,-2.5367,-2.5454,-2.5495,-2.5492,-2.5447,-2.535,-2.5104,-2.4927,-2.4782,0.0,0.0,0.0,0.0,0.0,0.0,0.0,0.0,0.0,0.0,-2.2446,-2.3896,-2.3668,-2.4726,-2.5884,-2.6885,-2.5758,-2.512,-2.5356,0.0,0.0,0.0,0.0,-2.9698,-3.1238,-3.3032,-3.4626,-3.6007,-3.7041,-3.7901,-3.8546,-3.8761,-3.8613,-3.8146,-3.7991,-3.8103,-3.8353,-3.7729,-3.772,-3.7872,-3.4708,-3.2846,-3.1685,-2.9097,-2.8114,-2.7973,-2.6748,-2.6063,-2.5408,-2.317,0.0,0.0,0.0,0.0,0.0,0.0,0.0,0.0,0.0,0.0,0.0,0.0,0.0,0.0,0.0,0.0,0.0,0.0,0.0,0.0,0.0,0.0,0.0,0.0,-3.1093,-3.2712,-3.3386,-3.4347,-3.5521,-3.6838,-3.725,-3.7047,-3.6096,-3.6016,-3.574,-3.5025,-3.486,-3.4668,-3.4322,-3.3398,-3.235,-3.1202,-3.0539,-2.9756,-2.8789,-2.811,-2.7691,-2.7482,-2.6131,-2.5604,-2.5761,-2.4684,-2.4357,-2.4623,-2.4746,-2.4956,-2.5207,-2.5341,-2.5415,0.0,0.0,0.0,0.0,0.0,-2.5106,-2.502,0.0,0.0,0.0,0.0,0.0,0.0,0.0,0.0,0.0,0.0,0.0,-2.2436,-2.0858,-2.2797,-2.4363,-2.4714,-2.4669,-2.4492,0.0,0.0,0.0,-2.8275,-3.0464,-3.2154,-3.3295,-3.5458,-3.6722,-3.6988,-3.8546,-3.9354,-3.945,-3.9888,-3.9922,-3.9599,-3.9238,-3.9099,-3.9099,-3.9072,-3.9212,-3.9339,-3.7858,-3.6546,-3.5106,-3.1733,-3.1214,-3.1954,-2.9314,-2.7762,-2.6678,-2.4624,0.0,0.0,0.0,0.0,0.0,0.0,0.0,0.0,0.0,0.0,0.0,0.0,0.0,0.0,0.0,0.0,0.0,0.0,0.0,0.0,0.0,0.0,0.0,0.0,-3.4859,-3.7136,-3.8774,-3.7966,-3.7755,-3.9175,-3.8627,-3.8106,-3.8003,-3.7036,-3.62,-3.5674,-3.4961,-3.4354,-3.3811,0.0,0.0,0.0,0.0,-3.097,-3.0243,-2.8769,-2.7958,-2.7791,-2.6358,-2.5658,-2.5614,-2.4773,-2.4616,-2.5013,-2.5039,-2.5177,-2.5346,-2.5465,-2.5437,-2.5331,-2.546,-2.5445,-2.536,-2.531,-2.5286,-2.5273,0.0,0.0,0.0,0.0,0.0,0.0,0.0,0.0,0.0,-1.8317,-2.0038,-2.1079,-2.0167,-2.0726,-2.1713,-2.3093,-2.2575,-2.3007,0.0,0.0,-2.864,-3.0871,-3.2673,-3.4364,-3.593,-3.7094,-3.8055,-3.8796,-3.9123,-3.9623,-4.0277,-4.0137,-3.9922,-3.9599,-3.9238,-3.9099,-3.9099,-3.8855,-3.8711,-3.8575,-3.799,-3.7002,-3.5587,-3.2978,-3.1369,-3.0361,-2.9189,-2.8508,-2.7892,-2.5971,-2.5474,-2.5025,-2.1609,0.0,0.0,0.0,0.0,0.0,0.0,0.0,0.0,0.0,0.0,0.0,0.0,0.0,0.0,0.0,0.0,0.0,0.0,0.0,0.0,-3.5034,-3.7044,-3.8857,-4.0636,-4.0654,-4.0539,-4.0698,-3.9994,-3.9271,-3.8626,-3.7776,-3.7071,-3.6504,-3.5934,-3.5417,-3.5,-3.4477,-3.3879,-3.309,-3.2415,-3.1715,-3.0987,-3.0108,-2.9042,-2.7807,0.0,0.0,-2.6445,-2.5895,-2.587,-2.626,-2.6589,-2.6312,-2.5665,-2.6002,-2.5641,-2.4942,-2.534,-2.5351,-2.516,-2.5203,-2.5139,-2.5068,0.0,0.0,0.0,0.0,0.0,0.0,0.0,0.0,0.0,0.0,-2.0167,-2.1192,-2.0036,-2.0881,-2.1889,-2.2735,-2.2793,0.0,0.0,-2.7544,-2.964,-3.2199,-3.4314,-3.6045,-3.7315,-3.8604,-3.9258,-3.9296,-3.97,-4.0104,-4.0489,-4.0062,-3.9775,-3.9576,-3.9109,-3.8741,-3.8505,-3.836,-3.8114,-3.7769,-3.7306,-3.6558,-3.5506,-3.411,-3.2685,-3.1236,-2.9918,-2.8952,-2.7931,-2.5799,-2.5257,-2.4972,-2.2181,-2.1304,-2.1138,0.0,0.0,0.0,0.0,0.0,0.0,0.0,0.0,0.0,0.0,0.0,0.0,0.0,0.0,-2.9515,0.0,0.0,-3.4972,-3.7448,-3.9079,-4.0401,-4.1443,-4.1618,-4.1411,-4.0905,-4.0491,-3.9788,-3.8616,-3.8148,-3.7506,-3.6624,-3.5955,-3.5397,-3.4922,-3.4644,-3.4167,-3.3423,-3.3389,-3.2848,-3.1749,-3.1021,-3.0091,-2.8958,-2.7756,-2.7217,-2.7222,-2.6376,-2.6263,-2.6762,-2.6953,-2.6834,-2.6441,-2.6231,-2.5613,-2.4818,-2.5051,-2.507,-2.4945,-2.4984,-2.4962,-2.4903,0.0,0.0,0.0,0.0,0.0,0.0,0.0,0.0,0.0,0.0,-2.0097,-2.0966,-1.9507,-2.0775,-2.1932,0.0,0.0,0.0,0.0,-2.8409,-3.0487,-3.3045,-3.5584,-3.7353,-3.8238,-3.9719,-4.0181,-3.9527,-4.0181,-4.0473,-4.0406,-3.9863,-3.9576,-3.9481,-3.8942,-3.8382,-3.7893,-3.7893,-3.7578,-3.6999,-3.6563,-3.5739,-3.4685,-3.4303,-3.3393,-3.2084,-3.0197,-2.8555,-2.7013,-2.5138,-2.4405,-2.3984,-2.2395,-2.1964,-2.1954,-2.1354,-2.0914,0.0,0.0,0.0,0.0,0.0,0.0,0.0,0.0,0.0,-2.8337,-2.9773,-3.0785,-3.2072,-3.415,-3.5759,-3.737,-3.9305,-4.0663,-4.1515,-4.1619,-4.1621,-4.1366,-4.0578,-4.0539,-4.007,-3.8673,-3.8408,-3.7747,-3.6527,-3.5844,-3.5294,-3.4752,-3.4709,-3.4438,-3.3863,-3.4252,-3.3914,-3.273,-3.1833,-3.1038,-3.0294,-2.8442,-2.7667,-2.79,-2.6827,-2.6654,-2.7187,-2.7099,-2.7196,-2.7296,-2.6287,-2.5464,-2.481,-2.4726,-2.4636,-2.4601,-2.4697,-2.4746,-2.4746,0.0,0.0,0.0,0.0,0.0,0.0,0.0,0.0,0.0,0.0,0.0,0.0,0.0,0.0,0.0,0.0,0.0,0.0,-2.7582,-2.9313,-3.1391,-3.393,-3.6507,-3.8257,-3.9142,-4.0027,-4.045,-4.0354,-4.045,-4.0372,-4.0139,-3.9775,-3.9438,-3.9152,-3.8844,-3.8382,-3.7893,-3.7893,-3.7342,-3.6498,-3.6416,-3.4951,-3.2752,-3.2091,-3.1383,-3.0427,-2.8412,-2.647,-2.486,-2.4574,-2.4116,-2.3561,-2.2828,-2.2951,-2.3026,-2.127,0.0,-2.1995,-2.2756,-2.4083,-2.5459,-2.6268,-2.6505,-2.7621,0.0,0.0,-3.2586,-3.3684,-3.5117,-3.6186,-3.6162,-3.7732,-3.9323,-4.0294,-4.1173,-4.1558,-4.107,-4.0995,-4.081,-4.0217,-4.0408,-4.0282,-3.9456,-3.8709,-3.7747,-3.6527,-3.6329,-3.6044,-3.5487,-3.5504,-3.5453,-3.5385,-3.4793,-3.4404,-3.4252,-3.2848,-3.1799,-3.1055,-2.9556,-2.8648,-2.8323,-2.7877,-2.7888,-2.8214,-2.7867,-2.7816,-2.7867,-2.617,-2.525,-2.486,-2.4428,-2.4077,-2.3883,-2.4355,-2.4526,-2.4526,0.0,0.0,0.0,0.0,0.0,0.0,0.0,0.0,0.0,0.0,0.0,0.0,0.0,0.0,0.0,0.0,0.0,0.0,-2.6826,-2.8211,-3.0294,-3.3314,-3.5449,-3.7411,-3.9258,-3.9623,-4.0027,-4.0489,-4.0339,-4.0213,-4.0081,-3.9552,-3.9238,-3.9099,-3.8815,-3.8234,-3.7506,-3.7506,-3.6904,-3.5898,-3.552,-3.4225,-3.2319,-3.0483,-2.8622,-2.6862,-2.6027,-2.476,0.0,0.0,-2.2712,-2.2909,-2.1948,-2.2058,-2.2289,-2.1348,-2.1847,0.0,-2.4759,-2.605,-2.7182,0.0,-2.9651,-3.1207,-3.3508,-3.4287,-3.4883,-3.6209,-3.7393,-3.8253,-3.8533,-3.9524,-4.0296,0.0,-4.085,-4.1087,-4.0497,-4.0041,-3.9535,-3.8918,-3.8956,-3.8888,-3.8622,-3.7853,-3.7008,-3.5993,-3.5941,-3.5827,-3.5622,-3.5622,-3.5622,-3.5622,-3.5318,-3.4928,-3.4489,-3.388,-3.2983,-3.1816,-3.0768,-2.9822,-2.9037,-2.8436,-2.8275,-2.8402,-2.8474,-2.8276,-2.783,-2.6602,-2.5619,-2.4834,-2.4164,-2.3816,-2.3756,-2.4173,-2.4339,-2.4339,0.0,0.0,0.0,0.0,0.0,0.0,0.0,0.0,0.0,0.0,0.0,0.0,0.0,0.0,0.0,0.0,0.0,0.0,0.0,-2.7086,-2.8986,-3.141,-3.3622,-3.5757,-3.7853,-3.8354,-3.8988,-3.9796,-3.9755,-3.9699,-3.96,-3.9027,-3.8728,-3.8619,-3.8095,-3.7473,-3.6836,-3.6529,-3.5879,-3.4964,-3.4101,-3.2692,-3.0859,-2.8444,-2.5951,-2.3742,-2.3742,-2.2722,0.0,0.0,-2.1068,-2.1584,-2.1032,-2.1237,-2.1738,-2.1892,-2.2925,-2.4284,-2.5592,-2.7159,0.0,-3.0118,-3.2235,-3.4269,-3.5216,-3.6011,-3.6924,-3.8227,-3.8768,-3.9157,-3.9681,-3.9939,-3.9997,-3.9832,-4.0109,-4.0306,-4.0137,-3.9276,-3.8565,-3.8244,-3.7652,-3.7364,-3.7584,-3.7094,-3.6451,-3.5673,-3.5622,-3.5622,-3.5622,-3.5622,-3.5622,-3.5622,-3.5622,-3.5351,-3.481,-3.459,-3.3846,-3.2577,-3.1647,-3.0568,-2.9317,-2.847,-2.8217,-2.842,-2.8707,-2.8557,-2.8062,-2.7149,-2.6254,-2.5326,-2.428,-2.3822,-2.3759,-2.3886,-2.4036,-2.419,0.0,0.0,0.0,0.0,0.0,0.0,0.0,0.0,0.0,0.0,0.0,0.0,0.0,0.0,0.0,0.0,0.0,0.0,0.0,-2.6505,-2.7948,-2.8044,-3.1218,-3.341,-3.4334,-3.5949,-3.7199,-3.8084,-3.8588,-3.8667,-3.835,-3.806,-3.7802,-3.7507,-3.6253,-3.5785,-3.5878,-3.4781,-3.4031,-3.3561,-3.2172,-3.0053,-2.7515,-2.5571,-2.3548,-2.1794,-2.1794,0.0,0.0,0.0,-1.9406,-1.9208,-2.0338,-2.1171,0.0,-2.3165,-2.4703,-2.5743,-2.4372,0.0,-3.0224,-3.1054,-3.3428,-3.5943,-3.7466,-3.8362,-3.9106,-3.9868,-3.9462,-3.9005,-3.9022,-3.8447,-3.8193,-3.8903,-3.9022,-3.9308,-3.9969,-3.8853,-3.8193,-3.887,-3.7026,-3.5994,0.0,-3.6789,-3.6451,-3.5673,-3.5622,-3.5622,-3.5622,-3.5622,-3.5622,-3.5622,-3.5622,-3.5605,-3.5588,-3.4861,-3.4117,-3.3355,-3.1884,-3.0412,-2.896,-2.7855,-2.7707,-2.8394,-2.8402,-2.8615,-2.886,-2.7683,-2.7018,-2.6588,-2.4933,-2.4129,-2.384,-2.3393,-2.3649,-2.419,0.0,0.0,0.0,0.0,0.0,0.0,0.0,0.0,0.0,0.0,0.0,0.0,0.0,0.0,0.0,0.0,0.0,0.0,0.0,-2.3976,-2.5005,-2.614,-2.8352,-3.0237,-3.166,-3.2795,-3.3795,-3.4622,-3.5152,-3.5287,-3.5049,-3.5324,-3.518,-3.4684,-3.4274,-3.3603,-3.2752,-3.2376,-3.1739,-3.0851,-2.9451,-2.8126,-2.6676,-2.4296,-2.2415,-2.0991,0.0,0.0,0.0,0.0,0.0,0.0,-1.947,0.0,-2.1193,-2.337,-2.4303,-2.5169,-2.7564,0.0,-3.2181,-3.437,-3.6413,-3.8125,-3.9123,-3.9157,-3.892,-3.8684,-3.7635,-3.6603,-3.6096,-3.5808,-3.6062,-3.7313,-3.7939,-3.87,-3.9918,-3.9242,-3.8345,-3.7618,-3.6857,0.0,0.0,0.0,0.0,-3.5639,-3.5622,-3.5622,-3.5622,-3.5622,-3.5622,-3.5622,-3.5622,-3.5622,-3.5622,-3.5368,-3.4624,-3.3372,-3.0903,-2.9465,-2.896,-2.782,-2.7439,-2.7689,-2.7964,-2.8147,-2.8201,-2.7264,-2.6674,-2.6277,-2.5202,-2.4691,-2.459,-2.445,-2.4495,-2.452,0.0,0.0,0.0,0.0,0.0,0.0,0.0,0.0,0.0,0.0,0.0,0.0,0.0,0.0,0.0,0.0,0.0,0.0,0.0,0.0,-2.3274,-2.437,-2.6082,-2.7794,-2.9467,-3.0364,-3.1191,-3.2006,-3.2187,-3.22,-3.2072,-3.2135,-3.1869,-3.1358,-3.1076,-3.0534,-2.9719,-2.908,-2.8343,-2.747,-2.61,-2.4925,-2.3749,-2.1602,-2.0455,0.0,0.0,0.0,0.0,0.0,0.0,0.0,-1.9244,-2.0349,-2.1992,-2.3423,-2.4915,-2.6765,-2.9697,-3.1951,-3.4155,-3.6597,-3.8317,-3.9428,-3.9648,-3.9123,-3.8311,-3.7297,-3.5876,-3.459,-3.3846,-3.3271,-3.3508,-3.5284,-3.5757,-3.6705,-3.8988,-3.843,-3.7736,-3.7584,-3.711,-3.6502,0.0,0.0,0.0,-3.5639,-3.5622,-3.5622,-3.5622,-3.5622,-3.5622,-3.5622,-3.5622,-3.5622,-3.5622,-3.5351,-3.4472,-3.2983,-3.0548,-2.9245,-2.8977,-2.7946,-2.7405,-2.7317,-2.756,-2.7783,-2.7862,-2.7197,-2.6784,-2.6506,-2.5584,-2.5214,-2.518,-2.4923,-2.4908,-2.4962,0.0,0.0,0.0,0.0,0.0,0.0,0.0,0.0,0.0,0.0,0.0,0.0,0.0,0.0,0.0,0.0,0.0,0.0,0.0,0.0,0.0,-2.2658,-2.4322,-2.5995,-2.7601,-2.8519,-2.9355,-3.0129,-2.9665,-2.9433,-2.9454,-2.8668,-2.8083,-2.769,-2.6933,-2.6742,-2.6789,-2.5069,-2.4081,-2.3651,-2.2197,-2.0646,-1.9069,-1.7775,0.0,0.0,0.0,0.0,0.0,0.0,0.0,0.0,0.0,-2.1967,-2.4216,-2.3632,-2.6627,-3.0241,-3.0689,-3.3201,-3.6114,-3.77,-3.9091,-3.9834,-3.9106,-3.8278,-3.7246,-3.5707,-3.415,-3.2848,0.0,0.0,-3.0734,-3.2983,-3.2848,-3.3744,-3.7449,-3.6738,-3.6637,0.0,0.0,0.0,0.0,0.0,0.0,-3.5791,0.0,-3.5673,-3.5673,-3.5673,-3.5656,-3.5622,-3.5622,-3.5622,-3.5622,-3.4827,-3.3711,-3.2256,-3.0801,-2.9736,-2.9008,-2.8197,-2.7623,-2.7324,-2.7289,-2.7487,-2.7811,-2.7426,-2.7272,-2.7172,-2.6126,-2.5727,-2.5642,-2.4915,-2.5069,-2.5551,0.0,0.0,0.0,0.0,0.0,0.0,0.0,0.0,0.0,0.0,0.0,0.0,0.0,0.0,0.0,0.0,0.0,0.0,0.0,0.0,0.0,0.0,0.0,0.0,0.0,0.0,0.0,0.0,0.0,-2.5962,-2.6318,-2.5629,-2.5287,-2.5269,-2.4346,-2.3665,-2.3033,-2.2176,-2.1336,-2.0421,0.0,-1.8701,-1.7889,0.0,0.0,0.0,0.0,0.0,0.0,0.0,0.0,0.0,0.0,-2.3764,-2.5083,-2.6512,-2.8867,-3.1411,-3.3304,-3.5546,-3.7753,-3.9194,-3.9412,-3.9089,-3.8345,-3.6299,-3.4134,-3.2628,-3.0226,-2.8349,0.0,0.0,0.0,-3.2104,-3.3812,0.0,-3.8345,-3.8836,0.0,-3.8988,0.0,-3.8294,-3.7939,-3.7736,0.0,0.0,-3.6789,-3.6485,-3.6485,-3.6485,-3.6214,-3.5639,-3.5622,-3.5622,-3.5622,-3.4336,-3.322,-3.2256,-3.0801,-3.0006,-2.977,-2.8433,-2.7741,-2.7624,-2.7096,-2.6906,-2.6987,-2.6906,-2.6841,-2.6892,-2.7148,-2.7232,-2.7232,-2.7046,-2.706,-2.7116,0.0,0.0,0.0,0.0,0.0,0.0,0.0,0.0,0.0,0.0,0.0,0.0,0.0,0.0,0.0,0.0,0.0,0.0,0.0,0.0,0.0,0.0,0.0,0.0,0.0,0.0,0.0,0.0,0.0,0.0,0.0,-2.2162,-2.1842,-2.1814,-2.1039,-2.0474,-2.0057,-1.8991,0.0,0.0,0.0,0.0,0.0,0.0,0.0,0.0,0.0,0.0,0.0,0.0,0.0,-2.2563,-2.4308,-2.5589,-2.6853,-2.8898,0.0,-3.3567,-3.5261,-3.7285,-3.9041,-3.9513,-3.9056,-3.8058,-3.6332,-3.4117,-3.1816,-2.9668,-2.7621,0.0,-2.5778,0.0,0.0,0.0,0.0,0.0,-3.706,-3.8159,-3.8836,0.0,-3.9462,0.0,-3.8903,-3.8565,-3.8514,0.0,-3.7872,-3.7127,-3.6806,-3.6772,-3.6417,-3.5639,-3.5622,-3.5453,-3.5131,-3.3981,-3.3034,-3.2313,-3.1123,-3.0412,-3.0074,-2.9211,-2.8636,-2.8281,0.0,-2.7182,-2.7165,-2.6826,-2.6894,-2.7232,-2.762,-2.8027,-2.8332,-2.8332,-2.8218,-2.8014,0.0,0.0,0.0,0.0,0.0,0.0,0.0,0.0,0.0,0.0,0.0,0.0,0.0,0.0,0.0,0.0,0.0,0.0,0.0,0.0,0.0,0.0,0.0,0.0,0.0,0.0,0.0,0.0,0.0,0.0,0.0,0.0,0.0,0.0,0.0,0.0,0.0,0.0,0.0,0.0,0.0,0.0,0.0,0.0,0.0,0.0,0.0,0.0,0.0,0.0,-2.3719,-2.39,-2.5884,-2.7553,-2.9182,-3.0977,-3.3525,-3.5943,-3.6721,-3.8464,-3.9901,-3.9174,-3.8294,-3.684,-3.3931,-3.1884,-2.9786,-2.6979,0.0,-2.5,-2.4441,-2.4523,-2.5355,-2.7604,0.0,-3.0869,-3.503,-3.6383,-3.7669,-3.9681,-3.9952,-3.9952,-3.9952,-3.9379,-3.9227,-3.9902,-3.8854,-3.7872,-3.711,-3.6975,-3.6518,-3.5639,-3.5622,-3.525,-3.4506,-3.3778,-3.3034,-3.2273,-3.1546,-3.0869,-3.0243,-3.0142,-2.9753,-2.9093,-2.8315,-2.7977,-2.7926,-2.7266,-2.7385,-2.7958,-2.806,-2.8535,-2.9127,-2.9127,-2.8886,-2.8553,0.0,0.0,0.0,0.0,0.0,0.0,0.0,0.0,0.0,0.0,-1.5286,-1.5719,0.0,0.0,0.0,0.0,0.0,0.0,0.0,0.0,0.0,0.0,0.0,0.0,0.0,0.0,0.0,0.0,0.0,0.0,0.0,0.0,0.0,0.0,0.0,0.0,0.0,0.0,0.0,0.0,0.0,0.0,0.0,0.0,0.0,0.0,0.0,0.0,0.0,0.0,-2.4429,-2.5933,-2.788,-2.993,-3.177,-3.2763,-3.4709,-3.6755,-3.7499,-3.887,-3.9901,-3.9174,-3.7499,-3.5402,-3.3017,-2.9871,0.0,0.0,-2.3799,-2.3021,-2.3494,-2.4594,-2.615,-2.8416,0.0,0.0,0.0,0.0,-3.8075,0.0,0.0,0.0,0.0,0.0,0.0,0.0,-3.9496,-3.9377,-3.865,-3.8041,-3.7077,-3.5656,-3.5622,-3.525,-3.4506,-3.3778,-3.3034,-3.2273,-3.1546,-3.1123,-3.0987,-3.0378,-3.004,-2.9871,-2.911,0.0,-2.8772,-2.8636,-2.867,-2.8839,-2.9465,-2.9803,-2.9922,-2.9922,-2.9636,-2.9211,0.0,0.0,0.0,0.0,0.0,0.0,0.0,0.0,-1.4944,-1.4913,-1.4957,-1.5193,-1.5708,-1.5517,0.0,0.0,0.0,0.0,0.0,0.0,0.0,0.0,0.0,0.0,0.0,0.0,0.0,0.0,0.0,0.0,0.0,0.0,0.0,0.0,0.0,0.0,0.0,0.0,0.0,0.0,0.0,0.0,0.0,0.0,0.0,0.0,0.0,0.0,0.0,0.0,-2.4216,-2.5698,-2.8212,-3.0243,-3.1935,-3.3068,-3.4726,-3.6434,-3.7601,-3.8413,-3.8768,-3.8024,-3.5842,-3.3186,-3.0565,0.0,0.0,0.0,-2.2801,-2.2412,-2.2767,0.0,0.0,0.0,0.0,0.0,0.0,0.0,0.0,0.0,0.0,0.0,0.0,0.0,0.0,0.0,-3.9262,-3.936,-3.9022,-3.7939,-3.6975,-3.6248,-3.5825,-3.5453,-3.5081,-3.3964,-3.322,-3.2848,-3.1732,-3.119,-3.119,-3.0835,-3.0666,-3.0632,-2.9888,-2.9567,-2.9533,-2.9144,-2.9211,-2.96,-2.9973,-3.0345,-3.0666,-3.0666,-3.0071,-2.9143,0.0,0.0,0.0,0.0,0.0,0.0,0.0,-1.4162,-1.466,-1.4794,-1.4876,-1.4955,-1.5041,-1.5197,-1.5548,0.0,0.0,0.0,0.0,0.0,0.0,0.0,0.0,0.0,0.0,0.0,0.0,0.0,0.0,0.0,0.0,0.0,0.0,0.0,0.0,0.0,0.0,0.0,0.0,0.0,0.0,0.0,0.0,0.0,0.0,0.0,0.0,0.0,0.0,0.0,-2.3156,-2.4269,-2.6962,-2.9245,-3.1157,-3.2154,-3.3846,-3.5639,-3.6857,-3.7533,-3.7686,-3.6755,-3.4269,-3.1309,-2.8467,-2.5981,0.0,0.0,-2.231,-2.231,-2.231,0.0,-2.3883,0.0,-2.6218,0.0,0.0,0.0,0.0,0.0,0.0,0.0,0.0,0.0,0.0,0.0,-3.8978,-3.9054,-3.8753,-3.7499,-3.6705,-3.6535,-3.5943,-3.5622,-3.5622,-3.4303,-3.3516,-3.3203,-3.1873,-3.1069,-3.0838,-3.0948,-3.1113,-3.1217,-3.0774,-3.0684,-3.0768,-3.0176,-3.0192,-3.0581,-3.0581,-3.074,-3.1015,-3.1015,-3.0073,-2.872,0.0,0.0,0.0,0.0,0.0,0.0,0.0,-1.3593,-1.3929,-1.4456,-1.4812,-1.4943,-1.4846,-1.5119,-1.5336,0.0,0.0,0.0,0.0,0.0,0.0,0.0,0.0,0.0,0.0,0.0,0.0,0.0,0.0,0.0,0.0,0.0,0.0,0.0,0.0,0.0,0.0,0.0,0.0,0.0,0.0,0.0,0.0,0.0,0.0,0.0,0.0,0.0,0.0,0.0,0.0,-2.1796,-2.3393,-2.681,-3.0108,-2.955,0.0,0.0,-3.4759,-3.6315,-3.7567,-3.6096,-3.3491,-3.0683,-2.8349,0.0,0.0,-2.2479,-2.231,-2.231,-2.231,-2.2902,-2.3883,0.0,0.0,-2.7537,0.0,0.0,0.0,0.0,0.0,0.0,0.0,0.0,0.0,0.0,-3.9226,-3.9412,-3.8075,-3.7229,-3.6451,-3.574,-3.5656,-3.5622,-3.5622,-3.481,-3.3772,-3.2585,-3.1775,-3.0729,-2.9617,-3.0215,-3.0807,-3.1427,-3.1951,-3.254,0.0,-3.3034,-3.2645,-3.2087,-3.2087,-3.1398,-3.0393,-3.0393,-2.9428,-2.8112,0.0,0.0,0.0,0.0,0.0,0.0,0.0,-1.3734,-1.4437,-1.4608,-1.4804,-1.4933,-1.4923,-1.5158,-1.531,0.0,0.0,0.0,0.0,0.0,0.0,0.0,0.0,0.0,0.0,0.0,0.0,0.0,0.0,0.0,0.0,0.0,0.0,0.0,0.0,0.0,0.0,0.0,0.0,0.0,0.0,0.0,0.0,0.0,0.0,0.0,0.0,0.0,0.0,0.0,0.0,0.0,-2.1312,-2.3528,0.0,0.0,-2.9973,-3.2239,-3.4015,-3.5148,-3.5707,-3.5098,-3.2391,-2.9397,-2.7554,0.0,-2.2649,-2.2361,-2.231,-2.231,-2.231,-2.2547,-2.2967,0.0,0.0,0.0,0.0,0.0,0.0,0.0,0.0,0.0,0.0,0.0,0.0,0.0,-3.9054,-3.8789,-3.7319,-3.7393,-3.711,-3.6349,-3.5442,-3.4988,-3.4988,-3.3884,-3.2833,-3.1897,-3.1544,-3.0889,-3.0,-3.0272,-3.0539,-3.083,-3.1075,-3.1569,0.0,-3.2225,-3.2022,-3.1766,-3.1724,-3.0876,-2.9805,-3.0166,-2.9387,-2.8017,0.0,0.0,0.0,0.0,0.0,-1.2324,-1.2687,-1.3728,-1.4499,-1.469,-1.4531,-1.4576,-1.4962,-1.4724,-1.476,-1.5312,0.0,0.0,0.0,0.0,0.0,0.0,0.0,0.0,0.0,0.0,0.0,-1.8342,-1.8406,0.0,0.0,0.0,0.0,0.0,0.0,0.0,0.0,0.0,0.0,0.0,0.0,0.0,0.0,0.0,0.0,0.0,0.0,0.0,0.0,0.0,0.0,0.0,0.0,0.0,0.0,0.0,-2.7962,-2.9983,-3.1992,-3.3,-3.3457,-3.3254,-3.0734,-2.796,0.0,0.0,-2.231,-2.231,-2.231,-2.231,-2.231,-2.218,-2.2237,0.0,0.0,-2.3126,-2.4724,0.0,0.0,0.0,0.0,0.0,0.0,0.0,0.0,-3.8404,-3.8226,-3.7584,-3.6509,-3.6804,-3.6636,-3.5885,-3.4872,-3.4284,-3.4284,-3.3303,-3.241,-3.1512,-3.1478,-3.0905,-2.9861,-3.0064,-3.0179,-3.018,-3.0386,-3.0844,0.0,-3.1484,-3.1306,-3.1127,-3.1083,-3.0376,-2.9435,-2.9475,-2.8902,-2.7945,0.0,0.0,0.0,0.0,0.0,0.0,0.0,-1.3359,-1.3716,-1.4579,-1.3893,-1.3757,-1.4874,-1.3634,-1.3419,-1.5156,0.0,0.0,0.0,0.0,0.0,0.0,0.0,0.0,0.0,0.0,0.0,-1.7705,-1.7995,-1.7962,-1.7676,0.0,0.0,0.0,0.0,0.0,0.0,0.0,0.0,0.0,0.0,0.0,0.0,0.0,0.0,0.0,0.0,0.0,0.0,0.0,0.0,0.0,0.0,0.0,0.0,0.0,-2.576,-2.8252,-2.7945,-2.9533,-3.1055,-3.0345,-2.8416,-2.6522,0.0,0.0,-2.231,-2.231,-2.231,-2.231,-2.231,-2.1928,-2.1842,-2.2582,-2.2929,0.0,-2.412,0.0,0.0,0.0,0.0,0.0,0.0,0.0,0.0,-3.77,-3.6605,0.0,-3.5694,-3.5091,-3.4386,-3.3681,-3.3649,-3.3582,-3.3582,-3.3582,-3.2923,-3.1616,-3.1616,-3.0569,-2.8622,-2.9334,-2.9583,-2.9632,-3.0316,-3.0998,0.0,-3.1582,-3.1165,-3.0523,-3.0523,-3.006,-2.9236,-2.7981,-2.7774,-2.776,0.0,0.0,0.0,0.0,0.0,0.0,0.0,-1.4048,-1.4601,-1.4868,-1.4654,-1.462,-1.5027,-1.4188,-1.3835,-1.4426,0.0,0.0,0.0,0.0,0.0,0.0,0.0,0.0,0.0,0.0,-1.7554,-1.7842,-1.7918,-1.8093,-1.8298,-1.7721,-1.6888,0.0,0.0,0.0,0.0,0.0,0.0,0.0,0.0,0.0,0.0,0.0,0.0,0.0,0.0,0.0,0.0,0.0,0.0,0.0,0.0,0.0,0.0,0.0,0.0,0.0,-2.6674,-2.7943,-2.8839,-2.8602,-2.7232,-2.5761,-2.5017,0.0,-2.231,-2.231,-2.231,-2.231,-2.231,-2.1928,-2.1737,-2.215,-2.229,0.0,0.0,0.0,0.0,0.0,0.0,0.0,0.0,0.0,-3.541,-3.6334,-3.6043,-3.5361,-3.4368,-3.4132,-3.3909,-3.3614,-3.3145,-3.2895,-3.2895,-3.2422,-3.1698,-3.0824,-3.0824,-3.0277,-2.9265,-2.9026,-2.8944,-2.8925,-2.9137,-2.9607,-3.0239,-3.0253,-3.0088,-2.9878,-2.9845,-2.8854,-2.7501,-2.7504,-2.6951,-2.6146,0.0,0.0,0.0,0.0,0.0,0.0,0.0,-1.385,-1.4214,-1.4437,-1.427,-1.4275,-1.4632,-1.3424,-1.2762,-1.3231,0.0,0.0,0.0,0.0,0.0,0.0,0.0,0.0,0.0,-1.6479,-1.701,-1.7213,-1.7531,-1.7936,-1.8441,-1.7911,-1.7148,-1.6191,-1.5975,0.0,0.0,0.0,0.0,0.0,0.0,0.0,-1.6885,0.0,0.0,0.0,0.0,0.0,0.0,0.0,0.0,0.0,0.0,0.0,0.0,0.0,-2.0883,0.0,0.0,-2.5778,-2.6556,-2.6556,-2.5659,0.0,0.0,0.0,-2.231,-2.231,-2.2163,-2.2032,-2.2032,-2.1658,-2.1439,-2.1716,-2.196,0.0,0.0,0.0,0.0,0.0,0.0,0.0,0.0,-3.3671,-3.428,-3.5292,-3.4652,-3.3917,-3.3269,-3.3023,-3.2838,-3.2826,-3.2422,-3.1911,-3.1399,-3.1172,-3.0748,-3.0068,-2.9783,-2.9329,-2.8783,-2.8385,-2.818,-2.8203,-2.8203,-2.8444,0.0,-2.8845,-2.8858,-2.8836,-2.8801,-2.8046,-2.6912,-2.6826,-2.6344,-2.5649,0.0,0.0,0.0,0.0,0.0,0.0,0.0,0.0,0.0,-1.3282,-1.2933,-1.2995,-1.3898,-1.1779,-1.0757,-1.1866,0.0,0.0,0.0,0.0,0.0,0.0,0.0,0.0,0.0,-1.578,-1.6127,-1.6105,-1.6928,-1.764,-1.8211,-1.7522,-1.7021,-1.6759,-1.6726,-1.5823,-1.4293,-1.3936,-1.4287,-1.5168,-1.5854,-1.6849,0.0,0.0,0.0,0.0,0.0,0.0,0.0,0.0,0.0,0.0,0.0,0.0,0.0,0.0,0.0,0.0,0.0,-2.3139,0.0,0.0,0.0,0.0,0.0,0.0,0.0,0.0,-2.1957,-2.1628,-2.1648,-2.1339,-2.1149,-2.1459,0.0,0.0,0.0,0.0,0.0,0.0,0.0,0.0,-3.2493,-3.2467,-3.2974,-3.4388,-3.2607,-3.1721,-3.2273,-3.1722,-3.1276,-3.107,-3.1159,-3.066,-2.9406,-2.9851,-2.9822,-2.9261,-2.8464,-2.786,-2.7501,-2.7458,-2.7501,0.0,-2.7625,-2.7625,-2.7625,-2.7625,-2.7595,-2.755,-2.755,-2.7428,-2.7088,-2.5968,-2.5736,-2.5821,0.0,0.0,0.0,0.0,0.0,0.0,0.0,0.0,0.0,0.0,-1.1599,-1.2574,-1.3864,-1.2318,-1.1593,0.0,0.0,0.0,0.0,0.0,0.0,0.0,0.0,0.0,0.0,-1.5397,-1.5753,-1.6243,-1.7099,-1.7886,-1.8595,-1.887,-1.8364,-1.7267,-1.7764,-1.7399,-1.6346,-1.5711,-1.6105,-1.7198,-1.7325,-1.8039,0.0,0.0,0.0,0.0,-1.9485,-1.9231,0.0,0.0,0.0,0.0,0.0,0.0,0.0,0.0,-1.8619,-1.8626,-1.9157,0.0,-2.1983,-2.1983,-2.226,-2.2564,0.0,0.0,0.0,0.0,0.0,0.0,0.0,0.0,0.0,0.0,0.0,0.0,0.0,0.0,0.0,0.0,0.0,-3.1372,-3.1056,-3.1459,-3.1882,-3.2206,-3.1762,-3.1114,-3.0192,-3.0454,-2.9399,-2.6768,-2.8176,-2.9092,-2.9406,-2.8462,-2.7928,-2.7773,-2.7106,-2.7045,-2.7487,-2.6957,-2.7076,-2.7625,-2.7625,-2.7625,-2.7625,-2.7625,-2.7275,-2.6826,-2.6826,-2.5935,-2.4616,-2.4759,-2.4313,-2.354,0.0,0.0,0.0,0.0,0.0,0.0,0.0,0.0,0.0,0.0,0.0,0.0,0.0,0.0,0.0,0.0,0.0,0.0,0.0,0.0,0.0,0.0,0.0,0.0,-1.5242,-1.5302,-1.5508,-1.5849,-1.6348,-1.7189,-1.8343,-1.8644,-1.8457,-1.7894,-1.777,-1.7695,-1.7599,-1.6831,-1.7109,-1.8085,-1.8034,0.0,0.0,0.0,0.0,0.0,-1.9606,-1.949,0.0,-1.9219,-1.9049,-1.893,0.0,0.0,0.0,0.0,-1.7823,-1.7662,-1.7662,-1.926,-2.0883,-2.0688,-2.1468,-2.2237,0.0,0.0,0.0,0.0,0.0,0.0,0.0,0.0,0.0,0.0,-2.3111,0.0,0.0,0.0,0.0,0.0,0.0,-3.1046,0.0,0.0,-3.1061,-3.1061,-3.0463,-2.9781,-2.8987,-2.894,-2.8064,-2.6226,-2.6579,-2.6996,-2.7457,-2.7015,-2.6612,-2.6326,-2.5627,-2.5581,-2.605,-2.5661,-2.6054,-2.71,-2.71,-2.7306,-2.7595,-2.7295,-2.6753,-2.612,-2.584,-2.4704,-2.3345,-2.3941,-2.3579,-2.2785,0.0,0.0,0.0,0.0,0.0,0.0,0.0,0.0,0.0,0.0,0.0,0.0,0.0,0.0,0.0,0.0,0.0,0.0,0.0,0.0,0.0,0.0,0.0,-1.5294,-1.5274,-1.5357,-1.5373,-1.5292,-1.563,-1.652,-1.7916,-1.8092,-1.8363,-1.8665,-1.7422,-1.7447,-1.8366,-1.7566,-1.769,-1.8403,-1.8507,0.0,0.0,0.0,0.0,0.0,0.0,0.0,0.0,-1.9184,-1.9134,-1.9212,-1.9052,0.0,0.0,0.0,0.0,0.0,-1.6839,-1.8545,-2.0205,-1.9911,-2.1035,-2.2106,0.0,0.0,0.0,0.0,0.0,0.0,0.0,0.0,0.0,0.0,0.0,0.0,0.0,0.0,0.0,0.0,-2.9381,0.0,-3.0672,-3.0362,-3.0095,-2.9992,-2.8798,-2.7983,-2.7755,-2.7187,-2.6745,-2.6302,-2.5475,-2.4878,-2.4726,-2.531,-2.5371,-2.4859,-2.4198,-2.4029,-2.4292,-2.4292,-2.5009,-2.6193,0.0,0.0,-2.7083,-2.6545,-2.5903,-2.5264,-2.4731,-2.3743,-2.2658,-2.3392,-2.3247,-2.277,0.0,0.0,0.0,0.0,0.0,0.0,0.0,0.0,0.0,0.0,0.0,0.0,0.0,0.0,0.0,0.0,0.0,0.0,0.0,0.0,0.0,0.0,-1.4437,-1.5265,-1.5229,-1.5342,-1.5376,-1.5292,-1.6854,-1.7739,-1.8003,-1.9251,-1.9806,-1.9682,-1.7634,-1.7536,-1.8849,-1.8167,-1.8268,-1.8934,-1.9395,0.0,0.0,0.0,0.0,0.0,0.0,0.0,0.0,-1.9387,-1.9166,-1.9035,-1.9001,0.0,0.0,0.0,0.0,0.0,-1.7083,-1.7952,-1.8775,-1.9026,-2.0391,-2.1688,0.0,0.0,0.0,0.0,0.0,0.0,0.0,0.0,0.0,0.0,0.0,-2.5446,0.0,0.0,-2.6495,-2.6785,0.0,-2.8212,-2.727,-2.8029,-2.8352,-2.7804,-2.6946,-2.5928,-2.4741,-2.4996,-2.4066,-2.1689,-2.3281,-2.3604,-2.2419,-2.3192,-2.352,-2.3432,-2.3324,-2.362,-2.4292,-2.4292,-2.4512,-2.4864,0.0,-2.5403,-2.498,-2.4984,-2.459,-2.3928,-2.3889,-2.3041,-2.1991,-2.3185,-2.3231,-2.2712,0.0,0.0,0.0,0.0,0.0,0.0,0.0,0.0,0.0,0.0,0.0,0.0,0.0,0.0,0.0,0.0,0.0,0.0,0.0,0.0,0.0,-1.27,-1.427,-1.5153,-1.5189,-1.5688,-1.5956,-1.6002,-1.7341,-1.8222,-1.8679,-1.9447,-1.9659,-1.9287,-1.7988,-1.773,-1.8256,-1.8371,-1.8659,-1.9054,0.0,0.0,0.0,0.0,0.0,0.0,0.0,0.0,0.0,0.0,-1.886,-1.8734,-1.8397,0.0,0.0,0.0,0.0,0.0,-1.642,-1.7243,-1.7975,-1.776,-1.9511,-2.1116,0.0,0.0,0.0,0.0,0.0,0.0,0.0,0.0,0.0,0.0,0.0,-2.5412,-2.5358,-2.537,-2.5511,0.0,0.0,-2.6955,-2.6299,-2.6416,-2.643,-2.6145,-2.4624,-2.3626,-2.3498,-2.287,-2.1923,-2.0666,-2.204,-2.2577,-2.1889,-2.2702,-2.3078,-2.3078,-2.3078,-2.3153,-2.3199,-2.3199,-2.3319,-2.35,0.0,-2.3961,-2.4076,-2.4126,-2.3576,-2.2617,-2.263,-2.1815,-2.0855,-2.2086,-2.2846,-2.3201,0.0,0.0,0.0,0.0,0.0,0.0,0.0,0.0,0.0,0.0,0.0,0.0,0.0,0.0,0.0,0.0,0.0,0.0,0.0,0.0,-1.2736,-1.2944,-1.4258,-1.504,-1.5146,-1.5778,-1.6251,-1.655,-1.7501,-1.8403,-1.9208,-1.9082,-1.8921,-1.8665,-1.782,-1.7466,-1.7508,-1.7973,-1.8251,-1.8496,0.0,0.0,0.0,0.0,0.0,0.0,0.0,0.0,0.0,0.0,0.0,0.0,0.0,0.0,0.0,-1.6549,-1.6163,-1.5957,-1.6123,-1.6788,-1.7369,-1.7025,0.0,0.0,0.0,0.0,0.0,0.0,0.0,0.0,0.0,0.0,0.0,0.0,-2.3688,-2.4343,-2.3119,-2.342,-2.401,-2.4596,-2.4985,-2.521,-2.5097,-2.4593,-2.4128,-2.3919,-2.2054,-2.1325,-2.203,-2.0772,-1.999,-1.9927,-2.0818,-2.119,-2.1005,-2.1813,-2.2443,-2.2823,-2.288,-2.2593,-2.1993,-2.2056,-2.2133,-2.2166,-2.2313,-2.263,-2.2992,-2.3035,-2.2427,-2.1549,-2.1524,-2.1099,-2.057,-2.1568,-2.2651,-2.358,0.0,0.0,0.0,0.0,0.0,0.0,0.0,0.0,0.0,0.0,0.0,0.0,0.0,0.0,0.0,0.0,0.0,0.0,0.0,0.0,-1.2883,-1.3691,-1.4479,-1.4933,-1.5021,-1.5133,-1.5584,-1.6414,-1.742,-1.8345,-1.9177,-1.8137,-1.7917,-1.8342,-1.6628,-1.6341,-1.71,-1.6527,-1.644,-1.6798,-1.8032,0.0,0.0,0.0,0.0,0.0,0.0,0.0,0.0,0.0,0.0,0.0,0.0,0.0,-1.6841,-1.6789,-1.6528,-1.6413,-1.7018,-1.7,-1.6921,-1.7473,0.0,0.0,0.0,0.0,0.0,0.0,0.0,0.0,0.0,0.0,0.0,-2.1682,-2.2153,-2.2339,-2.1725,0.0,-2.2043,-2.2445,-2.2073,-2.1858,-2.2195,-2.1905,-2.1305,-2.0369,-1.9345,-1.9014,-1.9343,-1.862,-1.8142,-1.8018,-1.8983,-1.9115,-1.8265,-1.9115,-2.0363,-2.2002,-2.2243,-2.1913,-2.1117,-2.1416,-2.1297,-2.0876,-2.142,-2.1381,-2.0932,-2.0998,-2.0938,-2.0762,-2.0832,-2.1513,-2.2498,-2.2603,-2.3054,-2.352,0.0,0.0,0.0,0.0,0.0,0.0,0.0,0.0,0.0,0.0,0.0,0.0,0.0,0.0,0.0,0.0,0.0,0.0,0.0,0.0,-1.3134,-1.3472,-1.4204,-1.47,-1.4925,-1.5489,-1.5981,-1.6401,-1.7414,-1.827,-1.8994,-1.8566,-1.824,-1.7924,-1.7018,-1.631,-1.5744,-1.5988,-1.6208,-1.6445,-1.735,-1.7944,0.0,0.0,0.0,0.0,0.0,0.0,0.0,0.0,-1.771,-1.7406,0.0,-1.6834,-1.6448,-1.6246,-1.6095,-1.6029,-1.6287,-1.6849,-1.7215,-1.6749,0.0,0.0,0.0,0.0,0.0,0.0,0.0,0.0,0.0,0.0,-2.1688,-2.1608,-2.1732,-2.1593,-2.0927,-2.0861,-2.076,-2.0452,-2.0627,-2.0438,-1.9571,-1.9353,-1.9122,-1.8765,-1.7936,-1.7687,-1.8351,-1.7637,-1.7149,-1.7149,-1.7985,-1.8351,-1.7996,-1.8884,-1.9373,-1.9499,-2.0155,-2.0077,-1.946,-2.0029,-1.9989,-1.9466,-1.9707,-1.993,-2.0164,-2.0093,-2.0156,-2.0152,-2.0195,-2.0733,-2.1513,-2.1513,-2.1913,-2.2381,0.0,0.0,0.0,0.0,0.0,0.0,0.0,0.0,0.0,0.0,0.0,0.0,0.0,0.0,0.0,0.0,0.0,0.0,0.0,-1.2945,-1.338,-1.3639,-1.4121,-1.4529,-1.4822,-1.5424,-1.5946,-1.6394,-1.715,-1.7909,-1.8613,-1.8282,-1.8088,-1.7959,-1.7506,-1.6833,-1.6044,-1.6143,-1.6204,-1.6257,-1.6591,-1.6848,0.0,0.0,0.0,0.0,0.0,0.0,0.0,0.0,-1.7142,0.0,0.0,0.0,0.0,0.0,-1.5803,-1.5609,-1.551,-1.6144,-1.662,0.0,0.0,0.0,0.0,0.0,0.0,0.0,0.0,0.0,0.0,0.0,0.0,0.0,-2.0358,-2.0209,-1.9298,-1.9215,-1.9115,-1.8722,-1.9022,-1.8944,-1.8108,-1.775,-1.7513,-1.742,-1.6877,-1.6817,-1.7504,-1.6728,-1.638,-1.6616,-1.6961,-1.7193,-1.7193,-1.7781,-1.7781,-1.7193,-1.7771,-1.8097,-1.8107,-1.8678,-1.8733,-1.8328,-1.823,-1.8507,-1.9073,-1.8748,-1.8878,-1.9292,-1.9684,-2.0194,-2.0795,-2.0795,-2.1161,-2.1669,0.0,0.0,0.0,0.0,0.0,0.0,0.0,0.0,0.0,0.0,0.0,0.0,0.0,0.0,0.0,0.0,0.0,0.0,-1.3204,-1.3214,-1.3563,-1.4364,-1.44,-1.4486,-1.4688,-1.469,-1.5262,-1.6392,-1.6581,-1.7148,-1.7988,-1.6973,-1.7266,-1.8574,-1.7839,-1.788,-1.8404,-1.7,-1.629,-1.6063,-1.56,-1.5099,-1.4744,0.0,0.0,0.0,0.0,0.0,0.0,0.0,-1.6795,-1.6301,0.0,0.0,0.0,-1.6301,-1.5821,-1.5227,-1.489,-1.489,-1.4831,0.0,0.0,0.0,0.0,0.0,0.0,0.0,0.0,-2.057,-2.0003,0.0,0.0,-1.7324,-1.7734,-1.7851,-1.6658,-1.6628,-1.6835,-1.7311,-1.6961,-1.7004,-1.7903,-1.7191,-1.6533,-1.6084,-1.6105,-1.6218,-1.6457,-1.5796,-1.568,-1.6425,-1.5738,-1.54,-1.54,-1.54,-1.54,-1.54,-1.541,-1.6046,-1.7162,-1.7476,-1.7567,-1.7544,-1.7182,-1.7238,-1.7543,-1.6672,-1.7027,-1.8217,-1.9317,-2.0194,-2.0746,-2.0746,-2.1148,-2.1566,0.0,0.0,0.0,0.0,0.0,0.0,0.0,0.0,0.0,0.0,0.0,0.0,0.0,0.0,0.0,0.0,0.0,0.0,-1.35,-1.361,-1.3743,-1.3832,-1.3975,-1.4235,-1.4622,-1.4909,-1.5215,-1.5562,-1.57,-1.6508,-1.7846,-1.7595,-1.8004,-1.8946,-1.8613,-1.8273,-1.7909,-1.7435,-1.7041,-1.6688,-1.6178,-1.5574,-1.511,0.0,0.0,0.0,0.0,0.0,0.0,0.0,0.0,0.0,0.0,0.0,0.0,-1.5955,-1.5562,-1.5125,-1.5023,-1.4692,0.0,0.0,0.0,0.0,0.0,0.0,0.0,0.0,0.0,-1.8689,-1.9183,0.0,0.0,-1.8495,-1.7851,-1.7243,-1.6883,-1.6168,-1.5481,-1.5149,-1.5406,-1.5532,-1.5275,-1.5347,-1.5071,-1.4406,-1.4455,-1.4335,-1.4058,-1.3451,-1.3501,-1.4412,-1.4035,-1.4006,-1.4457,-1.4814,-1.4971,-1.4971,-1.5264,-1.5595,-1.5938,-1.6545,-1.6684,-1.6428,-1.6577,-1.6699,-1.6791,-1.6773,-1.699,-1.7381,-1.8035,-1.8382,-1.8484,-1.8235,-1.8247,-1.8343,0.0,0.0,0.0,0.0,0.0,0.0,0.0,0.0,0.0,0.0,0.0,0.0,0.0,0.0,0.0,0.0,0.0,0.0,0.0,0.0,-1.3651,-1.3803,-1.3984,-1.4307,-1.4757,-1.5107,-1.5245,-1.5204,-1.5306,-1.6203,-1.7835,-1.7888,-1.853,-1.9646,-1.9545,-1.9241,-1.8792,-1.8368,-1.7896,-1.7355,-1.6486,-1.5677,-1.5064,0.0,0.0,0.0,0.0,0.0,0.0,0.0,0.0,0.0,0.0,0.0,0.0,-1.5355,-1.4818,-1.4242,-1.3568,0.0,0.0,0.0,0.0,0.0,0.0,0.0,0.0,0.0,0.0,-1.7466,-1.7808,-1.7615,0.0,-1.7284,-1.6684,-1.6291,-1.6291,-1.5426,-1.4526,-1.38,-1.4092,-1.4092,-1.3358,-1.3589,-1.3626,-1.3392,-1.3224,-1.3208,-1.3438,-1.262,-1.2475,-1.3383,-1.2937,-1.2922,-1.3304,-1.3718,-1.3921,-1.3921,-1.4258,-1.4368,-1.4329,-1.5365,-1.5777,-1.5741,-1.5787,-1.5589,-1.5289,-1.6,-1.6014,-1.5728,-1.6755,-1.6922,-1.6696,-1.6726,-1.6791,-1.6712,0.0,0.0,0.0,0.0,0.0,0.0,0.0,0.0,0.0,0.0,0.0,0.0,0.0,0.0,0.0,0.0,0.0,0.0,0.0,0.0,-1.3378,-1.4041,-1.4271,-1.459,-1.5005,-1.5255,-1.5325,-1.5215,-1.5272,-1.6161,-1.7812,-1.7869,-1.8785,-2.0361,-2.0319,-2.0366,-2.043,-1.9453,-1.8705,-1.8073,-1.6798,-1.5672,-1.484,-1.5218,0.0,0.0,0.0,0.0,0.0,0.0,0.0,0.0,-1.6409,-1.6258,-1.5998,-1.4686,-1.3795,-1.2881,-1.1259,0.0,0.0,0.0,0.0,0.0,0.0,0.0,0.0,0.0,0.0,-1.6563,-1.6148,-1.5723,-1.5289,-1.4757,-1.4898,-1.5059,-1.5059,-1.432,-1.3578,-1.2978,-1.2869,-1.2652,-1.2049,-1.2019,-1.2265,-1.2805,-1.2265,-1.2439,-1.3638,-1.2468,-1.2113,-1.2805,-1.2231,-1.1939,-1.1994,-1.2305,-1.2489,-1.2497,-1.2796,-1.2804,-1.2605,-1.3959,-1.4801,-1.509,-1.4627,-1.4019,-1.3423,-1.444,-1.4286,-1.3599,-1.5311,-1.5615,-1.5192,-1.5796,-1.607,-1.6053,0.0,0.0,0.0,0.0,0.0,0.0,0.0,0.0,0.0,0.0,0.0,0.0,0.0,0.0,0.0,0.0,0.0,0.0,0.0,0.0,-1.3288,-1.3704,-1.41,-1.4559,-1.5076,-1.5237,-1.5317,-1.5282,-1.5345,-1.5977,-1.7123,-1.7645,-1.8442,-1.9409,-1.938,-1.9776,-2.0342,-1.913,-1.8734,-1.8815,-1.7952,-1.6785,-1.5637,-1.6212,-1.593,0.0,0.0,0.0,0.0,0.0,0.0,0.0,-1.6328,-1.6062,-1.5562,-1.4665,-1.3585,-1.2437,0.0,-1.0332,0.0,0.0,0.0,0.0,0.0,0.0,0.0,0.0,-1.4934,-1.4882,-1.5532,-1.5437,-1.5264,-1.53,-1.4552,-1.3952,-1.3952,-1.2554,-1.1464,-1.131,-1.131,-1.1259,-1.1104,-1.1422,-1.1436,-1.0958,-1.0849,-1.08,-1.0679,-0.994,-0.9943,-1.0895,-1.0531,-1.0541,-1.1052,-1.1522,-1.1768,-1.1714,-1.2097,-1.2239,-1.222,-1.28,-1.2989,-1.2793,-1.199,-1.1766,-1.1956,-1.2175,-1.2158,-1.2018,-1.2735,-1.3267,-1.3553,-1.3408,-1.3665,-1.4074,0.0,0.0,0.0,0.0,0.0,0.0,0.0,0.0,0.0,0.0,0.0,0.0,0.0,0.0,0.0,0.0,0.0,0.0,0.0,0.0,0.0,-1.38,-1.4286,-1.4684,-1.501,-1.5231,-1.5539,-1.5914,-1.6116,-1.6449,-1.6918,-1.7284,-1.8266,-1.9647,-1.9178,-1.9363,-1.9985,-1.8666,-1.839,-1.8743,-1.8008,-1.7226,-1.6539,-1.6881,-1.6586,-1.6114,-1.6897,0.0,0.0,0.0,0.0,0.0,0.0,0.0,-1.492,-1.3187,-1.2201,-1.1331,0.0,0.0,0.0,0.0,0.0,0.0,0.0,0.0,0.0,-1.3164,-1.3547,-1.3854,-1.4043,-1.3801,-1.352,-1.3273,-1.2688,-1.2246,-1.2246,-1.1429,-1.0661,-1.0364,-1.0312,-1.0218,-0.9865,-1.0076,-1.0174,-1.0075,-0.9817,-0.9836,-1.0213,-0.9333,-0.9182,-1.0015,-0.9597,-0.9465,-0.9865,-1.0188,-1.0408,-1.0415,-1.0755,-1.0887,-1.0743,-1.1874,-1.2178,-1.1802,-1.1356,-1.1289,-1.1509,-1.1281,-1.0998,-1.0761,-1.1264,-1.1497,-1.1534,-1.1653,-1.1893,-1.2172,0.0,0.0,0.0,0.0,0.0,0.0,0.0,0.0,0.0,0.0,0.0,0.0,0.0,0.0,0.0,0.0,0.0,0.0,0.0,0.0,0.0,0.0,-1.4429,-1.469,-1.4852,-1.5291,-1.5941,-1.6829,-1.7089,0.0,0.0,0.0,-1.833,-2.0002,-1.908,-1.9003,-1.9487,-1.8054,-1.7782,-1.8245,-1.7569,-1.7296,-1.728,-1.7166,-1.7085,-1.7109,-1.7676,-1.767,-1.7399,-1.7574,0.0,0.0,0.0,0.0,-1.4131,-1.1546,-1.0556,-0.9874,0.0,0.0,0.0,0.0,0.0,0.0,0.0,0.0,0.0,-1.1648,-1.251,-1.3023,-1.2346,-1.1998,-1.1566,-1.0914,-1.0712,-1.0618,-1.0618,-1.0517,-1.0269,-0.971,-0.9614,-0.9413,-0.8857,-0.8804,-0.8956,-0.9399,-0.8949,-0.9099,-1.0202,-0.9086,-0.8732,-0.9399,-0.8784,-0.848,-0.8593,-0.8821,-0.9,-0.911,-0.9412,-0.9406,-0.9172,-1.0785,-1.1355,-1.1003,-1.1003,-1.1003,-1.0987,-1.0637,-1.0056,-0.9503,-1.021,-1.0108,-0.9695,-1.0364,-1.0712,-1.0813,0.0,0.0,0.0,0.0,0.0,0.0,0.0,0.0,0.0,0.0,0.0,0.0,0.0,0.0,0.0,0.0,0.0,0.0,0.0,0.0,0.0,-1.4062,-1.3987,-1.4178,-1.472,-1.5567,-1.6569,-1.7732,0.0,0.0,0.0,0.0,0.0,-1.8962,0.0,-1.8463,-1.8966,-1.7175,-1.6844,-1.7513,-1.7052,-1.7044,-1.7272,-1.6977,-1.7351,-1.7936,-1.7215,-1.7247,-1.762,-1.7406,-1.715,0.0,0.0,0.0,-1.3311,-1.1353,-0.9589,-0.8168,0.0,0.0,0.0,0.0,0.0,0.0,0.0,0.0,0.0,0.0,-1.1674,-1.1796,-1.1141,-1.1451,-1.1566,-1.0914,-1.0312,-0.9909,-0.9909,-0.9413,-0.9061,-0.8962,-0.8956,-0.891,-0.8811,-0.8804,-0.8586,-0.8037,-0.7883,-0.7931,-0.8084,-0.7337,-0.7235,-0.7931,-0.7289,-0.7182,-0.783,-0.7866,-0.8211,-0.8864,-0.8905,-0.8905,-0.8864,-0.9111,-0.921,-0.9169,-0.9169,-0.9169,-0.9169,-0.9075,-0.8633,-0.8037,-0.8791,-0.8981,-0.8947,-0.9644,-1.0312,-1.0813,0.0,0.0,0.0,0.0,0.0,0.0,0.0,0.0,0.0,0.0,0.0,0.0,0.0,0.0,0.0,0.0,0.0,0.0,0.0,0.0,0.0,-1.3191,-1.3988,-1.4635,-1.5083,-1.6054,-1.7079,-1.8121,0.0,0.0,0.0,-1.9801,-1.9454,0.0,0.0,0.0,0.0,-1.6144,-1.592,-1.6717,-1.657,-1.639,-1.6273,-1.701,-1.7123,-1.6926,-1.7579,-1.7951,-1.8059,-1.7439,-1.6853,-1.6013,-1.3789,0.0,0.0,0.0,-0.7576,0.0,-0.6034,0.0,0.0,0.0,0.0,0.0,0.0,0.0,0.0,-0.976,-1.0056,-1.0197,-1.0242,-1.0356,-1.0292,-0.9784,-0.9321,-0.9066,-0.9242,-0.8626,-0.8209,-0.8209,-0.8209,-0.8209,-0.8209,-0.8209,-0.8043,-0.7723,-0.7343,-0.7074,-0.7074,-0.675,-0.675,-0.7074,-0.675,-0.675,-0.7074,-0.7074,-0.7456,-0.8209,-0.8586,-0.8593,-0.8209,-0.8209,-0.8427,-0.8752,-0.8374,-0.8209,-0.8156,-0.7723,-0.7396,-0.7128,-0.745,-0.7551,-0.7587,-0.7906,-0.8218,-0.8475,0.0,0.0,0.0,0.0,0.0,0.0,0.0,0.0,0.0,0.0,0.0,0.0,0.0,0.0,0.0,0.0,0.0,0.0,0.0,0.0,0.0,-1.2254,-1.3748,-1.4759,-1.5168,-1.6351,-1.7439,0.0,0.0,0.0,-2.0273,-1.9563,-1.9123,0.0,-1.7312,-1.6538,0.0,0.0,0.0,0.0,-1.5664,-1.5424,-1.5129,-1.6039,-1.6017,-1.5661,-1.6802,-1.7356,-1.7363,-1.6006,-1.5219,-1.4267,-1.1171,-0.9595,0.0,0.0,0.0,0.0,0.0,0.0,0.0,0.0,0.0,0.0,0.0,0.0,-0.8236,0.0,-0.8616,-0.8652,-0.9055,-0.9111,-0.8912,-0.8482,-0.8082,-0.7917,-0.8218,-0.7717,-0.7382,-0.7391,-0.7402,-0.7402,-0.7402,-0.7402,-0.7343,-0.7176,-0.6465,-0.614,-0.6312,-0.5982,-0.5928,-0.6312,-0.615,-0.615,-0.6312,-0.6534,-0.6858,-0.745,-0.799,-0.7937,-0.7402,-0.7402,-0.7723,-0.8209,-0.767,-0.7402,-0.7396,-0.6804,-0.648,-0.6312,-0.6529,-0.6475,-0.6367,-0.6534,-0.6588,-0.6588,0.0,0.0,0.0,0.0,0.0,0.0,0.0,0.0,0.0,0.0,0.0,0.0,0.0,0.0,-0.7695,-0.7725,-0.8382,-0.9363,-1.0705,-1.0494,-1.0713,-1.1604,-1.2936,0.0,-1.4528,-1.6281,-1.7647,0.0,0.0,0.0,-1.9997,-1.8366,-1.7416,-1.7007,-1.6338,-1.5308,-1.404,0.0,0.0,0.0,0.0,-1.4126,0.0,0.0,-1.3611,-1.4642,0.0,-1.4077,-1.4597,-1.1944,-1.1153,-1.0778,-0.8082,-0.6638,-0.5711,0.0,0.0,0.0,0.0,0.0,0.0,0.0,0.0,0.0,0.0,0.0,0.0,0.0,-0.7935,-0.7491,-0.7277,-0.7767,-0.7989,-0.7464,-0.6784,-0.6386,-0.6689,-0.656,-0.6504,-0.6617,-0.6642,-0.6642,-0.6642,-0.6642,-0.6367,-0.5647,-0.4925,-0.4816,-0.5538,-0.4223,-0.4113,-0.5487,-0.4948,-0.4897,-0.5542,-0.6253,-0.6642,-0.6642,-0.6696,-0.6696,-0.6642,-0.6642,-0.6696,-0.6696,-0.6696,-0.6642,-0.6642,-0.6588,-0.6199,-0.5651,-0.6312,-0.6145,-0.5651,-0.6367,-0.6588,-0.6588,0.0,0.0,0.0,0.0,0.0,0.0,0.0,0.0,0.0,0.0,0.0,0.0,0.0,-0.822,-0.8326,-0.8091,-0.8571,-0.8883,-0.8864,-0.9752,-1.0091,-0.9682,-1.1982,-1.3569,-1.4155,-1.6378,-1.8189,0.0,0.0,-1.9723,-1.8825,-1.7799,-1.5806,-1.3183,-1.4544,-1.447,-1.3214,-1.2442,0.0,0.0,0.0,0.0,0.0,0.0,0.0,0.0,0.0,0.0,-1.2073,-1.0548,-0.9532,-0.8484,-0.6277,-0.4769,-0.3589,-0.2207,0.0,0.0,0.0,0.0,0.0,0.0,0.0,0.0,0.0,-0.6052,-0.616,-0.7025,-0.6927,-0.6649,-0.6526,-0.685,-0.7006,-0.6646,-0.6187,-0.6002,-0.6312,-0.5957,-0.5718,-0.5738,-0.5851,-0.5873,-0.5873,-0.5479,-0.5089,-0.4816,-0.366,-0.3113,-0.339,-0.2894,-0.2841,-0.339,-0.3674,-0.4122,-0.4838,-0.5546,-0.5873,-0.5928,-0.6367,-0.6367,-0.5873,-0.5873,-0.5374,-0.4498,-0.4553,-0.5046,-0.5873,-0.5441,-0.5117,-0.4897,-0.5171,-0.5117,-0.4897,-0.5171,-0.5226,-0.5226,0.0,0.0,0.0,0.0,0.0,0.0,0.0,0.0,0.0,0.0,0.0,0.0,0.0,0.0,-0.8588,-0.85,-0.8777,-0.8711,-0.8213,-0.9223,-0.9431,-0.8513,-1.1044,-1.2874,-1.3718,-1.6096,-1.8108,0.0,0.0,0.0,0.0,-1.6586,-1.4254,-1.1275,-1.2369,-1.235,0.0,0.0,0.0,-1.1431,0.0,0.0,-1.0601,0.0,0.0,0.0,0.0,0.0,0.0,0.0,-0.6694,-0.5619,-0.3522,-0.2121,-0.1082,0.0,0.0,0.0,-0.1226,0.0,0.0,0.0,0.0,0.0,0.0,0.0,-0.5437,-0.5961,-0.5786,-0.5466,-0.5326,-0.5277,-0.5308,-0.5382,-0.5009,-0.4789,-0.5092,-0.4795,-0.4506,-0.4562,-0.4658,-0.4634,-0.4412,-0.3923,-0.367,-0.3655,-0.2504,0.0,-0.2174,-0.1952,-0.1952,-0.2174,-0.2732,-0.3231,-0.3735,-0.4388,-0.4772,-0.4772,-0.5546,-0.5492,-0.4772,-0.4772,-0.411,-0.2954,-0.2954,-0.3671,-0.4718,-0.4009,-0.3901,-0.407,-0.3846,-0.3735,-0.3735,-0.3735,-0.3901,-0.4125,0.0,0.0,0.0,0.0,0.0,0.0,0.0,0.0,0.0,0.0,0.0,0.0,0.0,0.0,0.0,-0.8849,-0.8958,-0.8951,-0.8818,-0.886,-0.8653,-0.8138,-1.0137,-1.1797,-1.2971,-1.5309,-1.724,0.0,0.0,0.0,0.0,0.0,-1.2781,-1.148,-0.9826,-0.8911,-0.8568,0.0,-0.8904,-0.9392,0.0,-1.0119,-0.9817,0.0,0.0,0.0,-0.7688,-0.7099,0.0,-0.3448,0.0,0.0,0.0,0.0,0.0,0.0,0.0,0.0,0.0,0.0,0.0,0.0,0.0,0.0,-0.418,0.0,-0.4202,-0.4943,-0.4612,-0.4012,-0.3594,-0.3052,-0.2918,-0.3602,-0.3149,-0.2751,-0.3024,-0.2962,-0.2934,-0.3048,-0.3063,-0.2854,-0.2265,-0.2169,-0.2147,-0.2166,-0.1505,-0.1395,-0.212,-0.1452,-0.1396,-0.212,-0.2174,-0.2174,-0.2174,-0.2954,-0.3287,-0.3287,-0.407,-0.407,-0.3345,-0.3287,-0.2843,-0.2119,-0.2119,-0.2508,-0.3121,-0.2452,-0.2619,-0.3176,-0.2452,-0.2174,-0.2119,-0.2174,-0.2676,-0.3345,0.0,0.0,0.0,0.0,0.0,0.0,0.0,0.0,0.0,0.0,0.0,0.0,0.0,0.0,-0.9127,-0.8793,-0.9155,-0.8595,-0.6558,-0.7948,-0.7959,-0.5981,-0.8477,-0.9283,-0.7943,-1.2237,-1.4196,0.0,0.0,0.0,0.0,0.0,0.0,0.0,-0.7477,-0.6437,-0.5646,-0.6479,0.0,-0.7591,-0.7844,-0.7817,0.0,0.0,0.0,0.0,0.0,-0.5171,-0.373,0.0,-0.1195,-0.0459,0.0,0.0,0.0,0.0,0.0,0.0,0.1053,0.0,0.0,0.0,0.0,0.0,0.0,0.0,0.0,-0.4519,-0.4049,-0.3525,-0.3392,-0.2626,-0.1984,-0.1756,-0.1887,-0.2068,-0.2163,-0.2205,-0.2239,-0.2313,-0.2374,-0.2373,-0.2194,-0.1737,-0.14,0.0,-0.0701,-0.0382,-0.0615,-0.0392,-0.0615,-0.1396,-0.1396,-0.1675,-0.2174,-0.2954,-0.3065,-0.2508,-0.3287,-0.3234,-0.2508,-0.1944,-0.1333,-0.0556,-0.0056,0.0055,-0.0222,-0.1614,-0.2004,-0.1721,-0.206,-0.1556,-0.0719,-0.1781,-0.2004,-0.1832,0.0,0.0,0.0,0.0,0.0,0.0,0.0,0.0,0.0,0.0,0.0,0.0,0.0,0.0,-1.0085,-0.9472,-0.952,-0.8838,-0.7064,-0.7978,-0.7717,-0.5806,-0.5073,-0.4209,-0.3094,-0.7196,-0.9494,0.0,0.0,0.0,0.0,0.0,0.0,0.0,0.0,0.0,0.0,0.0,0.0,0.0,-0.6085,0.0,0.0,-0.6801,-0.632,0.0,0.0,0.0,-0.1885,-0.1063,-0.0074,0.0,0.0,0.0,0.0,0.0,0.0,0.0,0.0,0.0,0.0,0.0,0.0,0.0,-0.2566,-0.294,-0.3302,0.0,-0.2965,-0.2262,-0.2075,-0.1141,-0.0337,-0.026,-0.0486,-0.0847,-0.134,-0.1506,-0.1529,-0.1529,-0.161,-0.1546,-0.1327,-0.0887,-0.065,-0.0622,-0.026,0.0,0.0,0.0,-0.0224,-0.0615,-0.0615,-0.0833,-0.1258,-0.2075,-0.2184,-0.1748,-0.2511,-0.2307,-0.128,-0.0833,-0.0056,0.0946,0.1389,0.1556,0.1445,0.0167,-0.0278,-0.0222,-0.0333,0.0167,0.0831,-0.0056,-0.0278,-0.0222,0.0,0.0,0.0,0.0,0.0,0.0,0.0,0.0,0.0,0.0,0.0,0.0,0.0,0.0,0.0,0.0,-0.9887,-0.9355,-0.8825,-0.8018,-0.6855,-0.5234,-0.0666,0.1801,0.1718,-0.1302,-0.4098,0.0,0.0,0.0,0.0,0.0,0.0,0.0,0.0,0.0,0.0,0.0,0.0,-0.3075,-0.441,-0.4536,0.0,0.0,-0.4285,-0.3298,-0.1769,-0.113,-0.0861,-0.0172,0.0819,0.0,0.0,0.0,0.0,0.0,0.3502,0.0,0.0,0.0,0.0,0.0,0.0,0.0,-0.1492,-0.1775,-0.2054,0.0,-0.1599,-0.068,-0.0329,0.0748,0.141,0.0879,0.091,0.0578,-0.0626,-0.0806,-0.0806,-0.0806,-0.0806,-0.0591,-0.0047,0.0,0.0048,0.01,0.0151,0.0153,0.0106,0.0109,0.0056,0.0,0.0,0.0,0.0,-0.0745,-0.1063,-0.0961,-0.1699,-0.1347,0.0,0.0167,0.0947,0.223,0.2397,0.2454,0.2454,0.2561,0.2112,0.1387,0.2004,0.2286,0.2454,0.2286,0.1836,0.1331,0.0,0.0,0.0,0.0,0.0,0.0,0.0,0.0,0.0,0.0,0.0,0.0,0.0,0.0,0.0,0.0,-1.0166,-0.9372,-0.7507,-0.4676,-0.0839,0.4198,0.2891,0.3557,0.6781,0.2196,-0.0843,0.0,0.0,0.0,0.0,0.0,0.0,0.0,0.0,0.0,0.0,0.0,0.0,0.009,-0.1875,0.0,-0.2068,-0.2181,-0.22,-0.194,-0.0203,0.0137,-0.0138,0.0372,0.1053,0.1707,0.0,0.0,0.0,0.335,0.0,0.0,0.0,0.0,0.0,0.0,0.0,0.0,-0.034,-0.0683,-0.1014,0.0,-0.06,-0.0136,-0.0072,0.0702,0.1382,0.141,0.1437,0.1076,0.0,-0.018,-0.018,-0.018,-0.018,-0.0135,0.0,0.0,0.0185,0.0672,0.1187,0.1262,0.0764,0.0739,0.0484,0.0,0.0,0.0,0.0,-0.0754,-0.0808,-0.0222,-0.0968,-0.0865,0.0056,0.1228,0.195,0.2286,0.3511,0.407,0.407,0.4608,0.4106,0.2894,0.2397,0.2954,0.3901,0.2676,0.2508,0.2783,0.0,0.0,0.0,0.0,0.0,0.0,0.0,0.0,0.0,0.0,0.0,0.0,0.0,0.0,0.0,0.0,0.0,0.0,0.0,-0.255,0.1998,0.7271,0.697,0.7501,0.9251,0.5579,0.315,0.0,0.0,0.0,0.0,0.0,0.0,0.0,0.0,0.0,0.0,0.0,0.1425,0.1386,0.0,0.0,0.0198,0.0623,0.0542,0.0361,0.1631,0.1652,0.1136,0.1342,0.1693,0.0,0.2379,0.3001,0.3675,0.0,0.3716,0.3675,0.0,0.0,0.0,0.1979,0.0,0.0,0.0,0.0879,0.0677,0.0581,0.1135,0.1629,0.1504,0.1934,0.2187,0.1837,0.1952,0.1719,0.0798,0.0524,0.0359,0.0045,0.0269,0.0448,0.0448,0.0716,0.1038,0.1335,0.1625,0.1517,0.0931,0.0915,0.0783,0.0531,0.0216,0.0164,0.0545,-0.0158,-0.0158,0.0545,0.0158,0.0584,0.1675,0.2454,0.301,0.34,0.4505,0.5003,0.5058,0.5764,0.5651,0.4937,0.4546,0.4659,0.4889,0.411,0.3892,0.3846,1.4676,0.0,0.0,0.0,0.0,0.0,0.0,0.0,0.0,0.0,0.0,0.0,0.0,0.0,0.0,0.0,0.0,0.0,0.0,0.0,0.3355,0.8292,1.0548,1.1354,1.0591,0.8295,0.6441,0.5126,0.0,0.0,0.0,0.0,0.0,0.0,0.0,0.0,0.0,0.0,0.0,0.2315,0.0,0.1709,0.2014,0.2797,0.2736,0.2314,0.2823,0.261,0.2099,0.2139,0.2307,0.2478,0.2707,0.3291,0.0,0.0,0.0,0.0,0.0,0.0,0.0,0.0,0.0,0.2349,0.0,0.0,0.0,0.189,0.2559,0.3159,0.3025,0.3257,0.0,0.0,0.0,0.0,0.0,0.1367,0.0,0.035,0.0705,0.106,0.1191,0.1716,0.2025,0.1939,0.2048,0.1862,0.1268,0.1269,0.1262,0.1246,0.0528,0.053,0.1208,0.0512,0.0566,0.1273,0.1281,0.1934,0.3121,0.3289,0.3735,0.4346,0.5074,0.5433,0.5491,0.6357,0.6711,0.6627,0.6607,0.6258,0.5706,0.5706,0.5382,0.4897,1.5644,1.4728,0.0,0.0,0.0,0.0,0.0,0.0,0.0,0.0,0.0,0.0,0.0,0.0,0.0,0.0,0.0,0.0,0.1303,0.0,0.0,1.0455,1.2291,1.2655,1.1551,0.9301,0.7181,0.528,0.0,0.0,0.0,0.0,0.0,0.0,0.3391,0.0,0.0,0.0,0.438,0.0,0.395,0.3249,0.0,0.2911,0.2823,0.2437,0.2089,0.1835,0.1757,0.0,0.237,0.2347,0.0,0.3198,0.3472,0.4045,0.0,0.0,0.0,0.0,0.0,0.0,0.3017,0.0,0.0,0.0,0.2154,0.1999,0.0,0.2836,0.305,0.0,0.0,0.0,0.0,0.0,0.2438,0.2517,0.229,0.1271,0.1361,0.1687,0.2176,0.2758,0.2933,0.2448,0.2923,0.3025,0.2509,0.2474,0.2247,0.173,0.1132,0.11,0.1721,0.111,0.118,0.1911,0.1895,0.2037,0.2343,0.3065,0.3456,0.3561,0.468,0.5144,0.5245,0.6653,0.7041,0.6766,0.6639,0.6534,0.6475,0.6475,0.6426,0.6372,1.6518,1.5532,0.0,0.0,0.0,0.0,0.0,0.0,0.0,0.0,0.0,0.0,0.0,0.0,0.0,0.0,0.0,0.0114,0.0,0.0,0.0,0.0,1.1635,1.1993,1.1257,0.9893,0.8425,0.6732,0.563,0.0,0.0,0.0,0.0,0.0,0.4456,0.0,0.5235,0.0,0.4851,0.0,0.0,0.0,0.0,0.3829,0.3898,0.4105,0.3894,0.3765,0.3619,0.0,0.3731,0.0,0.0,0.0,0.0,0.4609,0.0,0.0,0.0,0.0,0.0,0.0,0.0,0.0,0.3113,0.0,0.3389,0.0,0.0,0.0,0.0,0.0,0.0,0.0,0.4242,0.0,0.0,0.0,0.2982,0.0,0.0,0.0,0.3241,0.3686,0.3829,0.3605,0.3846,0.3677,0.295,0.2919,0.2794,0.2463,0.1854,0.1859,0.2542,0.1972,0.1986,0.2654,0.2767,0.3002,0.3358,0.4053,0.4473,0.4648,0.5636,0.6177,0.6457,0.7494,0.774,0.7471,0.7613,0.7246,0.6721,0.6919,0.6759,0.6408,1.7263,0.0,0.0,0.0,0.0,0.0,0.0,0.0,0.0,0.0,0.0,0.0,-0.0824,-0.3146,0.0,0.0,0.1775,0.3417,0.0,0.0,0.9778,0.0,0.0,0.0,1.0372,1.0321,0.9659,0.8357,0.0,0.0,0.0,0.0,0.0,0.0,0.0,0.5399,0.5965,0.0,0.5427,0.554,0.5562,0.5567,0.5468,0.4783,0.4822,0.5308,0.529,0.5211,0.5065,0.4744,0.4848,0.0,0.5438,0.527,0.5065,0.0,0.0,0.0,0.5481,0.0,0.0,0.0,0.0,0.0,0.0,0.0,0.0,0.0,0.0,0.0,0.0,0.0,0.4936,0.0,0.0,0.4409,0.0,0.4114,0.0,0.0,0.0,0.0,0.0,0.4195,0.4369,0.4364,0.4327,0.4136,0.3604,0.3574,0.3488,0.3297,0.2788,0.2734,0.3297,0.2935,0.2963,0.3398,0.3758,0.4042,0.4304,0.4827,0.5181,0.5445,0.6449,0.7026,0.7315,0.8207,0.8417,0.8176,0.8572,0.8132,0.7286,0.7703,0.7472,0.6935,1.7808,1.7629,0.0,0.0,0.0,0.0,0.0,0.0,0.0,0.0,0.0,0.0,0.0,0.0,0.0,0.0,0.0,0.6881,0.7183,0.0,0.7842,0.0,0.0,0.9988,0.0,1.0556,1.0848,0.9828,0.0,0.0,0.0,0.0,0.0,0.0,0.5952,0.5972,0.6218,0.6732,0.6651,0.6175,0.6181,0.6174,0.6099,0.0,0.526,0.5303,0.5303,0.0,0.0,0.5212,0.5188,0.0,0.0,0.0,0.0,0.0,0.0,0.0,0.0,0.0,0.0,0.4212,0.0,0.0,0.0,0.0,0.3467,0.0,0.0,0.0,0.5033,0.5213,0.0,0.0,0.0,0.0,0.0,0.0,0.0,0.0,0.0,0.0,0.0,0.4085,0.4362,0.0,0.4211,0.4399,0.4833,0.4857,0.4707,0.4347,0.3938,0.3739,0.3758,0.4026,0.417,0.4194,0.4916,0.5002,0.4505,0.4934,0.5116,0.5203,0.6578,0.718,0.7282,0.8576,0.8911,0.8741,0.9395,0.9093,0.8357,0.9041,0.903,0.8761,0.0,0.0,0.0,0.0,0.0,0.0,0.0,1.5768,0.0,0.0,0.9319,0.0,0.0,0.651,0.6021,0.0,0.0,0.8164,0.883,0.9649,0.0,0.0,0.0,1.1177,0.0,0.0,0.0,0.0,0.0,0.0,0.0,0.0,0.0,0.0,0.0,0.6645,0.0,0.0,0.0,0.0,0.0,0.6843,0.7009,0.0,0.6422,0.6422,0.6422,0.6403,0.0,0.6392,0.6403,0.6383,0.6392,0.6167,0.5916,0.6136,0.6184,0.6184,0.0,0.0,0.5795,0.5374,0.0,0.0,0.0,0.0,0.0,0.0,0.0,0.0,0.0,0.0,0.0,0.0,0.0,0.0,0.0,0.0,0.0,0.0,0.0,0.0,0.0,0.0,0.0,0.0,0.5175,0.5263,0.5176,0.5341,0.5287,0.4995,0.4704,0.4526,0.4525,0.4442,0.4599,0.492,0.5292,0.5526,0.5781,0.6287,0.6753,0.712,0.7695,0.8114,0.8494,0.8901,0.8955,0.8725,0.916,0.8998,0.8685,0.9705,0.9494,0.881,1.6298,0.0,0.0,0.0,0.0,0.0,0.0,0.0,0.0,0.0,1.0418,0.0,0.9761,0.0,0.8541,0.0,0.9237,0.9346,0.9682,1.0316,0.0,0.9587,1.0894,1.0813,0.0,0.0,0.0,0.0,0.0,0.8898,0.0,0.0,0.0,0.0,0.0,0.6979,0.6979,0.6979,0.6979,0.0,0.0,0.7117,0.0,0.0,0.7065,0.7168,0.0,0.6979,0.6979,0.6979,0.6979,0.6979,0.6979,0.6768,0.652,0.6732,0.6647,0.652,0.6732,0.652,0.0,0.5931,0.5705,0.0,0.5287,0.0,0.5741,0.0,0.0,0.0,0.0,0.0,0.0,0.0,0.0,0.0,0.0,0.5533,0.0,0.0,0.0,0.0,0.0,0.0,0.5097,0.4689,0.5371,0.577,0.0,0.589,0.5903,0.5647,0.5597,0.5487,0.5296,0.5523,0.5653,0.5747,0.6133,0.6343,0.6472,0.707,0.7488,0.7841,0.8352,0.8779,0.9109,0.941,0.9418,0.9315,0.9619,0.9571,0.9487,1.0251,1.0178,0.9723,1.6347,1.6251,0.0,0.0,1.5863,0.0,0.0,0.0,1.0864,0.0,1.0312,0.9917,0.9969,1.0712,1.0742,0.9645,1.0349,1.0542,0.9887,0.9665,0.0,0.0,0.9473,0.9183,0.8482,0.0,0.0,0.0,0.0,0.0,0.0,0.0,0.0,0.0,0.7027,0.0,0.7021,0.7021,0.7063,0.7076,0.707,0.707,0.7103,0.7077,0.727,0.7473,0.7128,0.7021,0.7021,0.7021,0.7021,0.7021,0.7021,0.7021,0.7154,0.7746,0.753,0.7189,0.7787,0.7154,0.6289,0.6104,0.5671,0.0,0.0,0.0,0.572,0.0,0.0,0.0,0.0,0.0,0.0,0.0,0.0,0.0,0.0,0.0,0.0,0.0,0.0,0.0,0.0,0.0,0.4723,0.3732,0.4953,0.5915,0.0,0.651,0.6559,0.6343,0.666,0.6594,0.6072,0.7097,0.7289,0.6642,0.7343,0.7343,0.6794,0.7206,0.7443,0.754,0.8671,0.9169,0.924,1.0003,1.0283,1.0322,1.0723,1.0795,1.0677,1.074,1.1148,1.1451,1.5761,1.583,1.5592,0.0,1.4631,1.4,0.0,0.0,0.0,0.0,1.1416,1.1475,1.2058,1.1396,1.1187,1.196,1.1733,0.0,0.0,0.0,0.0,0.9935,1.0889,1.0419,0.8101,0.9915,1.0409,0.9464,0.0,0.0,0.9079,0.0,0.0,0.0,0.0,0.0,0.7021,0.7459,0.7912,0.8238,0.7842,0.8006,0.8495,0.0,0.786,0.8004,0.7256,0.7273,0.7614,0.7147,0.728,0.7572,0.7147,0.7321,0.7704,0.7878,0.807,0.8308,0.8439,0.8267,0.8031,0.7987,0.7876,0.7616,0.0,0.0,0.0,0.0,0.0,0.0,0.0,0.0,0.0,0.0,0.0,0.0,0.0,0.0,0.0,0.6592,0.0,0.0,0.0,0.497,0.4851,0.5664,0.6165,0.6677,0.7229,0.0,0.7465,0.8039,0.7607,0.7348,0.7205,0.6982,0.7074,0.7402,0.761,0.8137,0.8967,0.9106,0.9361,0.9771,1.0088,1.013,1.0033,1.0205,1.0283,1.0293,1.04,1.0855,1.1344,1.0851,1.106,1.1455,1.5439,1.5405,0.0,1.4771,0.0,0.0,1.2957,1.2589,0.0,1.1864,1.1814,0.0,1.2344,1.199,1.1891,1.2393,1.231,0.0,1.2025,0.0,0.0,1.0702,1.1155,1.0516,0.857,0.9744,0.0,0.9017,0.0,0.0,0.905,0.0,0.0,0.0,0.0,0.7942,0.7398,0.7766,0.8203,0.8692,0.839,0.8537,0.0,0.844,0.8328,0.8396,0.793,0.7821,0.787,0.7773,0.7979,0.8193,0.7855,0.7979,0.8275,0.8513,0.8643,0.8756,0.8999,0.8878,0.8716,0.8716,0.8716,0.8577,0.8087,0.7961,0.7889,0.0,0.7279,0.7318,0.0,0.0,0.0,0.0,0.0,0.0,0.0,0.0,0.0,0.0,0.7246,0.0,0.0,0.5906,0.5788,0.6602,0.6998,0.7287,0.7586,0.0,0.8175,0.8675,0.8602,0.8518,0.8518,0.8437,0.8633,0.9065,0.9065,0.9481,1.0269,1.0269,1.0319,1.0435,1.0552,1.0557,1.0478,1.0575,1.0725,1.0975,1.1134,1.1402,1.1662,1.1446,1.1784,1.2172,1.5281,1.5112,0.0,0.0,0.0,0.0,0.0,1.2344,0.0,1.1922,0.0,1.1922,1.1922,1.251,1.2657,1.1972,1.255,1.2616,1.1995,1.1944,1.1798,1.154,1.0965,1.0261,0.9524,0.9571,0.9402,0.0,0.0,0.0,0.0,0.0,0.0,0.0,0.0,0.0,0.0,0.8067,0.8399,0.8901,0.8841,0.8836,0.8901,0.881,0.8791,0.8798,0.8814,0.8521,0.8152,0.8561,0.8756,0.8797,0.8716,0.8756,0.8878,0.9359,0.9239,0.8999,0.9478,0.9279,0.8918,0.8918,0.8918,0.8878,0.8837,0.8797,0.8797,0.8716,0.8459,0.8511,0.9265,0.0,0.0,0.0,0.0,0.0,0.0,0.0,0.0,0.0,0.0,0.0,0.0,0.7285,0.6999,0.6999,0.7503,0.7789,0.7798,0.0,0.8787,0.8918,0.95,0.9831,0.9831,1.045,1.0813,1.0813,1.0813,1.0864,1.0914,1.0872,1.0697,1.0384,1.0651,1.0723,1.0752,1.1012,1.1394,1.1856,1.2233,1.2168,1.1855,1.2246,1.2783,1.3173,1.5355,0.0,0.0,0.0,0.0,1.3622,1.3007,1.2774,1.2715,1.2715,1.2715,1.2715,1.2715,1.2822,1.2832,1.2725,1.2832,0.0,0.0,0.0,0.0,1.2106,1.1939,1.1468,1.0577,1.0982,1.1116,0.0,0.0,0.0,0.0,0.0,0.0,0.0,0.0,0.0,0.9199,0.9044,0.0,0.9961,0.954,0.9628,0.9971,0.9542,0.9359,0.937,0.9359,0.9297,0.9159,0.8797,0.8999,0.9279,0.8837,0.8999,0.9359,0.9478,0.9765,1.004,1.0118,1.0079,1.0,1.0,1.0,0.9922,0.9478,0.9359,0.9239,0.8797,0.8666,0.8669,0.8885,0.0,0.0,0.0,0.0,0.0,0.0,0.0,0.0,0.0,0.0,0.8125,0.0,0.0,0.7569,0.7569,0.7701,0.8084,0.0,0.0,0.9289,0.0,1.0288,1.0427,0.0,0.0,1.0813,1.0813,1.0813,1.1074,1.1584,1.1297,1.1222,1.1366,1.1444,1.1286,1.0961,1.1463,1.1737,1.1859,1.2303,1.2422,1.2374,1.2447,1.3107,1.3754,1.4586,0.0,0.0,0.0,0.0,0.0,0.0,1.2881,1.2881,1.2881,1.2881,1.2881,1.2881,1.2881,1.2881,1.2881,1.2881,1.2881,1.2881,1.2881,1.2803,1.256,1.2584,1.2227,1.1523,1.1792,1.1797,1.1518,0.0,0.0,0.0,0.0,0.0,0.0,0.0,0.9765,0.0,0.0,0.0,1.0283,1.0019,1.0049,1.0293,1.0028,0.9932,0.9924,0.9913,0.9932,0.9883,0.9597,0.9716,0.9883,0.9597,0.9725,0.9922,0.9922,1.0079,1.0283,1.0283,1.0283,1.0283,1.0283,1.0283,1.0235,0.9961,0.9922,0.9843,0.9597,0.9518,0.9612,0.9905,1.0179,0.0,0.0,0.0,0.0,0.0,0.0,0.9584,0.0,0.0,0.0,0.0,0.0,0.0,0.0,0.0,0.0,0.0,0.0,0.974,0.0,0.0,0.0,1.1159,0.0,1.1535,1.1535,1.1742,1.1948,1.1986,1.208,1.195,1.1663,1.1927,1.1943,1.1836,1.2318,1.2389,1.221,1.2685,1.272,1.2579,1.3107,1.3456,1.3478,1.3765,1.3305,0.0,0.0,1.3272,1.2881,1.2881,1.2881,1.2881,1.2881,1.2881,1.2881,1.2881,1.2881,1.2881,1.2881,1.2881,1.2881,1.2881,1.2881,1.2881,1.2881,1.2881,1.2745,1.2357,1.2241,1.2092,0.0,0.0,0.0,0.0,0.0,0.0,0.0,0.0,0.0,0.0,0.0,1.0134,1.0439,1.0518,1.0597,1.0585,1.0478,1.0429,1.0429,1.0332,1.0283,1.0283,1.0283,1.0283,1.0283,1.0283,1.0283,1.0283,1.0283,1.0283,1.0283,1.0283,1.0342,1.041,1.041,1.041,1.0479,1.0726,1.0606,1.0497,1.0586,1.0527,1.0611,1.1094,1.1244,0.0,0.0,0.0,0.0,0.0,0.0,0.0,0.0,0.0,0.0,0.8979,0.0,0.0,0.0,0.0,0.0,0.9732,0.0,0.0,0.0,0.0,1.1429,1.1831,0.0,1.2574,1.2584,1.2936,1.2966,1.2751,1.285,1.2574,1.205,1.2307,1.2559,1.2814,1.3082,1.3047,1.2849,1.3207,1.3138,1.2897,1.3839,1.3899,1.3412,0.0,0.0,0.0,0.0,0.0,1.2881,1.2881,1.2881,1.2881,1.2881,1.2881,1.2881,1.2881,1.2881,1.2881,1.2881,1.2881,1.2881,1.2881,1.2881,1.2881,1.2881,1.2881,1.2881,1.2813,1.2425,1.2387,0.0,0.0,1.2196,0.0,0.0,0.0,0.0,0.0,0.0,0.0,1.1277,1.1207,1.0901,1.1297,1.147,1.1443,1.1018,1.085,1.0801,1.0429,1.0283,1.0283,1.0283,1.0283,1.0283,1.0283,1.0283,1.0283,1.0283,1.0283,1.0283,1.0283,1.0566,1.085,1.085,1.085,1.1112,1.2048,1.1577,1.1058,1.1554,1.1263,1.1094,1.1627,1.2066,1.2389,0.0,0.0,0.0,0.0,0.0,1.0699,1.0284,0.0,0.0,0.9518,0.8782,0.0,0.0,0.9203,0.0,0.0,0.0,0.0,1.17,1.208,1.2296,1.2335,1.3266,1.3751,1.3751,1.3795,1.4027,1.4404,1.3076,1.2667,1.3025,1.2637,1.299,1.3735,1.3357,1.3412,1.3756,1.3835,1.3802,1.3835,1.43,1.4429,1.4374,0.0,0.0,0.0,0.0,0.0,0.0,0.0,1.2881,1.2881,1.2881,1.2881,1.2881,1.2881,1.2881,1.2881,1.2881,1.2881,1.2881,1.2881,1.2881,1.2881,1.2881,1.2881,1.2881,1.2881,1.2735,1.2686,0.0,0.0,0.0,0.0,0.0,0.0,0.0,0.0,1.1616,1.1679,1.1614,1.1484,1.1328,1.1535,1.1616,1.1532,1.1064,1.0902,1.0853,1.0449,1.0283,1.0283,1.0283,1.0283,1.0283,1.0283,1.0283,1.0332,1.0586,1.0654,1.0713,1.1018,1.1214,1.1299,1.1299,1.1586,1.1892,1.2016,1.198,1.1949,1.1812,1.1647,1.1616,1.2138,1.2354,1.2579,1.2873,0.0,0.0,0.0,0.0,0.0,1.1604,0.0,1.0869,1.0816,1.0279,0.0,0.0,0.0,0.0,0.0,0.0,0.0,1.2689,0.0,1.2657,1.2927,1.3656,1.3678,1.3003,1.3604,1.3725,1.3312,1.2958,1.2971,1.3177,1.3009,1.3151,1.348,1.3581,1.3735,1.3927,1.4251,1.4172,1.398,1.4542,1.4302,1.3754,1.2939,0.0,1.2881,0.0,1.2881,1.2881,1.2881,1.2881,1.2881,1.2881,1.2881,1.2881,1.2881,1.2881,1.2881,1.2881,1.2881,1.2881,1.2881,1.2881,1.2881,1.2881,1.2881,0.0,1.2881,1.2881,1.2998,1.3144,1.3144,0.0,0.0,0.0,0.0,0.0,1.2273,1.2041,1.2184,1.2227,1.2053,1.1807,1.2098,1.2151,1.1946,1.1674,1.1439,1.1284,1.1043,1.0876,1.0736,1.0736,1.0736,1.0697,1.04,1.0371,1.0527,1.082,1.0996,1.1204,1.1724,1.1947,1.2091,1.231,1.2657,1.2903,1.2691,1.2704,1.2674,1.2278,1.2102,1.222,1.2854,1.2829,1.2887,1.3376,0.0,0.0,0.0,1.306,0.0,1.2467,1.2016,1.178,1.1821,1.1326,0.0,0.0,0.0,0.0,0.0,0.0,0.0,0.0,0.0,0.0,1.3289,1.3816,1.3686,1.2927,1.3605,1.3732,1.3395,1.3658,1.3853,1.3932,1.3689,1.3773,1.4038,1.4066,1.4149,1.4287,1.4674,1.4721,1.4585,1.5007,1.4777,1.4246,1.3008,1.2881,1.2881,1.2881,1.2881,1.2881,1.2881,1.2881,1.2881,1.2881,1.2881,1.2881,1.2881,1.2881,1.2881,1.2881,1.2881,1.2881,1.2881,1.2881,1.2881,0.0,0.0,1.2881,1.2881,1.2881,1.3203,1.3793,0.0,0.0,1.4688,0.0,1.3468,1.2881,1.2871,1.2609,1.2261,1.3341,1.3164,1.2271,1.3324,1.3406,1.2919,1.3026,1.2733,1.2319,1.2491,1.2226,1.1774,1.1774,1.1774,1.1627,1.0621,1.0566,1.0898,1.0908,1.1221,1.1717,1.2319,1.2773,1.3244,1.3883,1.4068,1.4198,1.4669,1.399,1.3287,1.3206,1.2803,1.2806,1.3899,1.3596,1.3373,1.3984,0.0,0.0,0.0,1.2735,0.0,1.2416,1.1927,1.1814,1.2341,1.1533,0.0,0.0,0.0,0.0,0.0,0.0,0.0,1.321,1.321,0.0,1.321,1.3797,1.4097,1.4085,1.4097,1.4664,1.5655,1.5543,1.5533,1.5615,1.4828,1.5103,1.5981,1.4942,1.4721,1.5074,1.5074,1.5492,1.6062,1.5862,1.6159,1.6576,1.3468,1.3527,1.3399,1.2949,1.2881,1.2881,1.2881,1.2881,1.2881,1.2881,1.2881,1.2881,1.2881,1.2881,1.2881,0.0,1.2881,1.2881,0.0,1.2881,1.2881,1.2881,1.2881,1.2881,1.2881,1.2881,1.321,1.381,0.0,0.0,0.0,1.4915,1.4722,1.4107,1.4114,1.4049,1.3936,1.4261,1.4247,1.395,1.4301,1.4288,1.4111,1.385,1.3695,1.3513,1.3234,1.3026,1.289,1.289,1.289,1.2811,1.2531,1.2251,1.22,1.2891,1.3195,1.3423,1.3883,1.407,1.4236,1.4474,1.4536,1.4638,1.4766,1.4599,1.4399,1.435,1.4225,1.4125,1.4086,1.3946,1.3722,1.3521,1.3311,0.0,1.3198,0.0,1.2935,1.2935,1.2785,1.2747,1.2922,1.2672,0.0,0.0,0.0,0.0,0.0,0.0,0.0,0.0,1.3821,0.0,1.3821,1.4374,1.4636,1.4563,1.4599,1.5006,1.5709,1.5676,1.5878,1.6247,1.5965,1.5809,1.5684,1.5631,1.5398,1.5147,1.5533,1.5866,1.6099,1.6118,1.6028,1.5898,1.4115,1.4139,1.4014,1.3653,1.3564,1.343,1.2978,1.3094,1.317,1.292,1.2881,1.2881,1.2881,1.3084,0.0,1.3243,1.3288,1.3387,1.3573,1.3426,1.3406,1.3548,1.3589,1.3563,1.3563,1.3563,0.0,1.4496,1.4718,1.4911,1.5037,1.5437,1.5286,1.4722,1.4688,1.4677,1.4688,1.4846,1.4846,1.4722,1.5182,1.5105,1.4699,1.4652,1.4522,1.4347,1.4278,1.4123,1.3974,1.3974,1.3974,1.4009,1.4198,1.4045,1.3795,1.4016,1.4203,1.4417,1.4925,1.5062,1.5107,1.5332,1.5274,1.5096,1.489,1.4878,1.4916,1.4916,1.4916,1.4802,1.4462,1.4223,1.3972,1.3596,1.3336,1.3198,1.3198,0.0,1.3198,0.0,0.0,1.3198,0.0,1.3198,1.3348,0.0,0.0,0.0,0.0,0.0,1.3609,1.3783,1.3783,1.3783,1.3783,1.4086,1.4357,1.454,1.517,1.5761,1.6312,1.6459,1.6839,1.7398,1.707,1.6723,1.6336,1.6346,1.5959,1.5388,1.5797,1.625,1.6658,1.6264,1.6313,1.656,1.4851,1.4768,1.4719,1.4656,1.4742,1.4422,1.3228,1.3527,1.3658,1.3027,1.2978,1.3017,1.2968,1.3538,1.39,1.3895,0.0,0.0,1.4663,1.4301,1.4246,1.462,1.4596,1.4571,1.4571,1.4641,1.4959,1.5603,1.6223,1.6225,1.566,1.566,1.535,1.48,1.48,1.4824,1.4835,1.5209,1.5184,1.4901,1.6058,1.5816,1.4913,1.5468,1.5342,1.4988,1.5544,1.5435,1.5029,1.5029,1.5029,1.5117,1.5593,1.5756,1.5538,1.4557,1.4529,1.4971,1.5499,1.5676,1.582,1.638,1.6132,1.5605,1.5092,1.5004,1.5029,1.5029,1.5029,1.5016,1.4979,1.4513,1.4123,1.4097,1.3584,1.3198,1.3198,1.3198,1.3198,1.3198,0.0,0.0,1.3198,1.3198,1.3223,0.0,0.0,0.0,0.0,0.0,1.3905,1.3279,1.3267,1.3267,1.3301,1.3339,1.3677,1.4357,1.5903,1.6921,1.7413,1.7797,1.8331,1.8896,1.817,1.7802,1.7712,1.7055,1.6428,1.5858,1.5829,1.6548,1.7503,1.6338,1.6998,1.8323,1.5313,1.5248,1.4952,1.4362,1.5255,1.576,1.4875,1.4861,1.4643,1.369,1.3979,1.4097,1.3632,1.4372,1.4931,1.4937,1.4699,1.4494,1.4244,1.4025,1.3964,1.4239,1.3637,1.3344,1.3344,1.379,1.4552,1.5624,1.6201,1.6441,1.6305,1.6305,1.6219,1.6058,1.6058,1.6083,1.6064,1.6163,1.6182,1.6114,1.6367,1.6324,1.6114,1.6207,1.6232,1.612,1.628,1.6223,1.6132,1.6132,1.6132,1.6145,1.6283,1.6321,1.6278,1.6009,1.6009,1.6107,1.6238,1.6281,1.6337,1.6466,1.6421,1.6183,1.563,1.5831,1.6132,1.6132,1.6132,1.6007,1.558,1.5053,1.4576,1.4148,1.3584,1.3198,1.3198,1.3198,1.3198,0.0,1.3198,1.3198,1.3198,1.3198,1.3534,0.0,0.0,1.4493,1.4789,1.4923,1.462,1.3762,1.3735,1.3868,1.4181,1.4694,1.5475,1.6559,1.7754,1.8399,1.8512,1.8625,1.8987,1.95,1.931,1.8942,1.8418,1.7727,1.707,1.6428,1.5964,1.6398,1.7191,1.6908,1.7912,1.9316,1.5954,1.5942,1.5727,1.5258,1.5942,1.6373,1.5942,1.5605,1.5186,1.4554,1.4582,1.4494,1.3996,1.4856,1.5389,1.5287,1.5463,1.5404,1.5227,1.5071,1.4971,1.4767,1.4376,1.4154,1.4154,1.4473,1.5087,1.6022,1.6318,1.6522,1.6522,1.6522,1.6522,1.6522,1.6522,1.6522,1.6522,1.6522,1.6522,1.6522,1.6522,1.6522,1.6522,1.6522,1.6522,1.6522,1.6522,1.6522,1.6522,1.6522,1.6522,1.6522,1.6522,1.6522,1.6522,1.6522,1.6522,1.6522,1.6522,1.6522,1.6459,1.6208,1.6333,1.6371,1.5819,1.612,1.6522,1.6522,1.6522,1.6358,1.5793,1.5241,1.4727,1.4173,1.3782,1.3514,1.3514,1.3514,1.3581,1.3769,1.3648,1.3581,1.3769,1.3802,1.4033,1.4574,1.4601,0.0,1.4919,1.5214,1.5023,1.4208,1.4471,1.4752,1.4948,1.5854,1.676,1.7703,1.8516,1.9043,1.9281,1.9281,1.9406,1.969,1.969,1.9316,1.8657,1.7999,1.7294,1.6652,1.6024,1.6278,1.6892,1.6623,1.7372,1.8459,1.6522,1.6522,1.6522,1.6522,1.6522,1.6522,1.6522,1.6089,1.5671,1.5511,1.5194,1.4801,1.4354,1.5186,1.5688,1.549,1.612,1.6522,1.6522,1.6337,1.6008,1.5475,1.5398,1.5309,1.5342,1.5522,1.5901,1.6522,1.6522,1.6522,1.6522,1.6522,1.6522,1.6522,1.6522,1.6522,1.6522,1.6522,1.6522,1.6522,1.6522,1.6522,1.6522,1.6522,1.6522,1.6522,1.6522,1.6522,1.6522,1.6522,1.6522,1.6522,1.6522,1.6522,1.6522,1.6522,1.6522,1.6522,1.6522,1.6522,1.6409,1.5932,1.617,1.6396,1.5919,1.6183,1.6522,1.6522,1.6522,1.6371,1.5906,1.5304,1.479,1.44,1.4101,1.3967,1.4,0.0,1.4252,1.4452,1.423,1.4185,1.4607,1.4493,1.4538,1.486,1.479,1.4808,1.4956,1.5525,1.5567,1.5015,1.5473,1.5814,1.598,1.7022,1.7768,1.8366,1.8796,1.9266,1.9687,1.9752,1.9803,1.9844,1.9874,1.9556,1.8982,1.8266,1.7631,1.7059,1.6322,1.6248,1.6502,1.5979,1.6353,1.7029,1.6522,1.6522,1.6522,1.6522,1.6522,1.6522,1.6522,1.6398,1.6343,1.6337,1.6269,1.5983,1.5443,1.5964,1.6337,1.6337,1.6423,1.6522,1.6522,1.5567,1.4926,1.4856,1.4356,1.4064,1.4057,1.5062,1.5879,1.6522,1.6522,1.6522,1.6522,1.6522,1.6522,1.6522,1.6522,1.6522,1.6522,1.6522,1.6522,1.6522,1.6522,1.6522,1.6522,1.6522,1.6522,1.6522,1.6522,1.6522,1.6522,1.6522,1.6522,1.6522,1.6522,1.6522,1.6522,1.6522,1.6522,1.6522,1.6522,1.6522,1.6497,1.6409,1.6459,1.6497,1.6409,1.6459,1.6522,1.6522,1.6522,1.6497,1.6409,1.5555,1.5029,1.5379,1.4651,1.4197,1.4524,0.0,1.5197,1.4562,1.4594,1.4822,1.5294,1.4544,1.4719,1.6565,1.6164,1.6268,1.7146,1.7312,1.7312,1.7223,1.6953,1.7306,1.817,1.8377,1.8832,1.9453,1.9558,1.9611,1.9699,2.0051,2.0304,2.046,2.0701,2.0733,2.0558,1.9559,1.9072,1.8856,1.756,1.6603,1.5933,1.5829,1.6353,1.6983,1.6522,1.6522,1.6522,1.6522,1.6522,1.6522,1.6522,1.6522,1.6522,1.6522,1.6522,1.638,1.6107,1.6324,1.6522,1.6522,1.6522,1.6522,1.6522,1.5976,1.5511,1.5174,1.4925,1.4751,1.4764,1.5652,1.6205,1.6522,1.6522,1.6522,1.6522,1.6522,1.6522,1.6522,1.6522,1.6522,1.6522,1.6522,1.6522,1.6522,1.6522,1.6522,1.6522,1.6522,1.6522,1.6522,1.6522,1.6522,1.6522,1.6522,1.6522,1.6522,1.6522,1.6522,1.6522,1.6522,1.6522,1.6522,1.6522,1.6522,1.6522,1.6522,1.6522,1.6522,1.6522,1.671,1.6837,1.6552,1.6951,1.7188,1.6595,1.6089,1.5736,1.5696,1.5235,1.5019,1.551,1.5847,1.6054,1.6214,1.6123,1.6191,1.664,1.625,1.6354,1.7361,1.7125,1.7193,1.7667,1.8059,1.8253,1.8253,1.807,1.8382,1.9226,1.9226,1.939,1.969,1.9909,2.0028,2.0042,2.0469,2.0716,2.0815,2.0959,2.0991,2.0943,2.0099,1.961,1.9293,1.8284,1.7621,1.7164,1.6768,1.6991,1.7426,1.6522,1.6522,1.6522,1.6522,1.6522,1.6522,1.6522,1.6522,1.6522,1.6522,1.6522,1.6522,1.6522,1.6522,1.6522,1.6522,1.6522,1.6522,1.6522,1.6522,1.6275,1.584,1.5652,1.561,1.5816,1.6237,1.6522,1.6522,1.6522,1.6522,1.6522,1.6522,1.6522,1.6522,1.6522,1.6522,1.6522,1.6522,1.6522,1.6522,1.6522,1.6522,1.6522,1.6522,1.6522,1.6522,1.6522,1.6522,1.6522,1.6522,1.6522,1.6522,1.6522,1.6522,1.6522,1.6522,1.6595,1.668,1.6522,1.6522,1.6522,1.6637,1.6595,1.6522,1.668,1.6909,1.6993,1.6595,1.7229,1.7666,1.6837,1.6567,1.6455,1.6279,0.0,1.5931,1.6576,1.6808,1.7093,1.7662,1.747,1.749,1.7888,1.7706,1.7736,1.8115,1.8011,1.7981,1.8179,1.8657,1.8927,1.8927,1.8927,1.9166,1.9675,1.969,1.969,1.9711,2.0089,2.0398,2.0579,2.0975,2.1181,2.1291,2.1291,2.1291,2.1243,2.0631,2.0191,1.983,1.9168,1.8839,1.87,1.8053,1.7968,1.8081,1.6522,1.6522,1.6522,1.6522,1.6522,1.6522,1.6522,1.6522,1.6522,1.6522,1.6522,1.6522,1.6522,1.6522,1.6522,1.6522,1.6522,1.6522,1.6522,1.6522,1.6479,1.6436,1.5733,1.5678,1.6405,1.6479,1.6522,1.6522,1.6522,1.6522,1.6522,1.6522,1.6522,1.6522,1.6522,1.6522,1.6522,1.6522,1.6522,1.6522,1.6522,1.6522,1.6522,1.6522,1.6522,1.6522,1.6522,1.6522,1.6522,1.6522,1.6522,1.6522,1.6522,1.6522,1.6522,1.6522,1.6837,1.7105,1.6637,1.6522,1.6637,1.7105,1.6879,1.6637,1.7105,1.6879,1.6552,1.6522,1.6951,1.7353,1.7271,1.6837,1.6809,1.7783,0.0,0.0,1.7654,1.8301,1.8477,1.7766,1.7886,1.8183,1.8593,1.7724,1.7822,1.9415,1.8972,1.8897,1.951,1.9585,1.9615,1.9615,1.9615,1.963,1.969,1.969,1.969,1.9711,2.0089,2.0677,2.1328,2.1481,2.1794,2.2209,2.2209,2.2209,2.218,2.1668,2.1469,2.1374,2.0635,2.0153,1.9851,1.947,1.9165,1.8909,1.8555,1.7451,1.6522,1.6522,1.6522,1.6522,1.6522,1.6522,1.6522,1.6522,1.6522,1.6522,1.6522,1.6522,1.6522,1.6522,1.6522,1.6522,1.6522,1.6522,1.6522,1.6522,1.6225,1.6182,1.6466,1.6522,1.6522,1.6522,1.6522,1.6522,1.6522,1.6522,1.6522,1.6522,1.6522,1.6522,1.6522,1.6522,1.6522,1.6522,1.6522,1.6522,1.6522,1.6522,1.6522,1.6522,1.6522,1.6522,1.6522,1.6522,1.6522,1.6522,1.6522,1.6522,1.6522,1.6522,1.6637,1.6837,1.6951,1.7229,1.7463,1.7353,1.7394,1.7463,1.7353,1.7666,1.7907,1.7544,1.8185,1.8574,1.7907,1.7912,1.8023,1.8104,0.0,1.7722,1.8421,1.8734,1.8906,1.8917,1.9045,1.9159,1.9316,1.8936,1.8995,1.9645,1.945,1.9547,2.0054,2.0345,2.0364,2.0089,2.0054,2.0054,2.0054,2.0364,2.0514,2.0514,2.091,2.126,2.1544,2.1873,2.2135,2.231,2.231,2.231,2.2282,2.2106,2.1853,2.1565,2.1269,2.1111,2.091,2.0348,2.0213,2.0273,1.8907,1.7551,1.6522,1.6522,1.6522,1.6522,1.6522,1.6522,1.6522,1.6522,1.6522,1.6522,1.6522,1.6522,1.6522,1.6522,1.6522,1.6522,1.6522,1.6522,1.6522,1.6522,1.6522,1.6522,1.6522,1.6522,1.6522,1.6522,1.6522,1.6522,1.6522,1.6522,1.6522,1.6522,1.6522,1.6522,1.6522,1.6522,1.6522,1.6522,1.6522,1.6522,1.6522,1.6522,1.6522,1.6522,1.6522,1.6522,1.6522,1.6522,1.6522,1.6522,1.6522,1.6522,1.6522,1.6522,1.6637,1.6879,1.7435,1.7947,1.8263,1.7907,1.7947,1.8066,1.7867,1.8263,1.8535,1.8185,1.8817,1.9207,1.8496,1.865,1.8817,1.8612,1.8458,1.8535,1.908,1.9169,1.9281,1.9639,1.969,1.969,1.969,1.969,1.969,1.969,1.969,1.9874,2.028,2.0764,2.0862,2.0516,2.0634,2.0699,2.0699,2.0748,2.0862,2.0991,2.1399,2.1582,2.1628,2.2077,2.231,2.231,2.231,2.231,2.231,2.231,2.2106,2.1823,2.1823,2.1823,2.1774,2.1259,2.1262,2.1465,1.6974,1.6522,1.6522,1.6522,1.6522,1.6522,1.6522,1.6522,1.6522,1.6522,1.6534,1.6547,1.6547,1.6522,1.6522,1.6522,1.6522,1.6522,1.6522,1.6522,1.6522,1.6522,1.6522,1.6522,1.6522,1.6522,1.6522,1.6522,1.6522,1.6522,1.6522,1.6522,1.6522,1.6522,1.6522,1.6522,1.6522,1.6522,1.6522,1.6522,1.6522,1.6522,1.6522,1.6522,1.6522,1.6522,1.6522,1.6522,1.6522,1.6522,1.6522,1.6522,1.6522,1.6522,1.6522,1.6522,1.6879,1.7435,1.7947,1.8496,1.8893,1.8893,1.8496,1.8263,1.8779,1.8496,1.8106,1.8106,1.8535,1.8893,1.8893,1.8893,1.908,1.9603,1.9244,1.9095,1.9639,1.969,1.969,1.969,1.969,1.969,1.969,1.969,1.969,1.969,1.9726,1.9874,2.028,2.0764,2.1007,2.0991,2.1399,2.1582,2.1628,2.0732,2.055,2.0991,2.1399,2.1628,2.1612,2.2106,2.231,2.231,2.231,2.231,2.231,2.231,2.231,2.231,2.231,2.231,2.231,2.231,2.231,2.231,1.8957,1.7576,1.6522,1.6522,1.6522,1.6522,1.6522,1.6522,1.6522,1.6522,1.7865,1.8832,1.8832,1.7438,1.6522,1.6522,1.6522,1.6522,1.6522,1.6522,1.6522,1.6522,1.6522,1.6522,1.6522,1.6522,1.6522,1.6522,1.6522,1.6522,1.6522,1.6522,1.6522,1.6522,1.6522,1.6522,1.6522,1.6522,1.671,1.7047,1.7059,1.7297,1.7567,1.7183,1.705,1.6995,1.6615,1.6756,1.7053,1.7059,1.7303,1.7626,1.7626,1.7626,1.7626,1.7626,1.7747,1.7987,1.8535,1.8779,1.8893,1.8893,1.9043,1.9169,1.8968,1.908,1.9207,1.9207,1.9369,1.9442,1.9442,1.9442,1.953,1.969,1.9566,1.953,1.969,1.969,1.969,1.969,1.969,1.969,1.969,1.969,1.969,1.969,2.0277,2.0532,2.0314,2.1306,2.1781,2.143,2.1521,2.1764,2.2106,2.184,2.1781,2.1915,2.2032,2.2106,2.2106,2.2237,2.231,2.231,2.231,2.231,2.231,2.231,2.231,2.231,2.231,2.231,2.231,2.231,2.231,2.231,1.9798,1.8731,1.7815,1.7815,1.7815,1.7526,1.6647,1.7229,1.7463,1.6595,1.8442,1.9798,1.9798,1.784,1.6522,1.6522,1.6522,1.6522,1.6522,1.6522,1.6522,1.6522,1.6522,1.6522,1.6522,1.6522,1.6522,1.6522,1.6522,1.6522,1.6522,1.6522,1.6522,1.6522,1.6522,1.6637,1.6837,1.6837,1.7105,1.7639,1.761,1.78,1.8045,1.776,1.7608,1.7583,1.7269,1.7336,1.7621,1.7626,1.7812,1.8113,1.8113,1.809,1.8106,1.8106,1.8106,1.8224,1.8727,1.8893,1.8968,1.9169,1.9442,1.9603,1.9281,1.9649,2.0019,1.9735,2.0109,2.0318,1.9779,1.9914,2.0004,1.9735,1.969,1.969,1.969,1.969,1.969,1.969,1.969,1.969,1.969,1.9839,2.0,2.0208,2.0862,2.1102,2.083,2.1764,2.218,2.1899,2.1899,2.2003,2.231,2.231,2.231,2.231,2.231,2.231,2.231,2.231,2.231,2.231,2.231,2.231,2.231,2.231,2.231,2.231,2.231,2.231,2.231,2.231,2.231,2.231,2.0093,2.0131,2.0131,2.0131,2.0131,1.9341,1.6892,1.8185,1.8688,1.6752,1.8254,1.9585,1.9773,1.8003,1.6735,1.6534,1.668,1.671,1.6522,1.6522,1.6522,1.6522,1.6522,1.6522,1.6522,1.6522,1.6522,1.6522,1.6522,1.6522,1.6522,1.6522,1.6522,1.6522,1.6522,1.6795,1.7312,1.7312,1.7626,1.8171,1.8173,1.8182,1.8258,1.8198,1.8173,1.8171,1.8116,1.8116,1.8163,1.8238,1.8249,1.8218,1.8218,1.8254,1.8263,1.8319,1.8305,1.8341,1.8927,1.9011,1.9095,1.9566,1.9735,1.9779,1.9779,2.0258,2.0557,1.9989,2.0842,2.1306,2.0019,2.0348,2.0557,1.9809,1.9735,1.975,1.969,1.9711,1.9747,1.9747,1.9747,1.9747,1.9747,2.0089,2.0483,2.0959,2.1368,2.1582,2.1582,2.2049,2.231,2.231,2.231,2.231,2.231,2.231,2.231,2.231,2.231,2.231,2.231,2.231,2.231,2.231,2.231,2.231,2.231,2.231,2.231,2.231,2.231,2.231,2.231,2.231,2.231,2.231,2.2363,2.2786,2.2786,2.2786,2.2786,2.1346,1.7127,1.6879,1.7034,1.6552,1.6936,1.789,1.961,1.9371,1.8392,1.6672,1.8027,1.8302,1.6595,1.6522,1.6522,1.6522,1.6522,1.6522,1.6522,1.6522,1.6522,1.6522,1.6522,1.6522,1.6522,1.6522,1.6522,1.6522,1.6522,1.6795,1.7312,1.7312,1.7867,1.8741,1.8745,1.8988,1.931,1.8877,1.8731,1.8668,1.8266,1.8361,1.8772,1.9228,1.936,1.9346,1.9346,1.9339,1.9472,1.9965,1.9744,1.9472,2.0146,1.9931,1.9566,1.969,2.0094,2.0483,2.0483,2.0617,2.0812,2.1186,2.15,2.1455,2.0632,2.1036,2.1081,1.9884,2.0139,2.0303,1.9765,1.9965,2.0158,2.0158,2.0158,2.0158,2.0158,2.0246,2.0483,2.0959,2.1368,2.1582,2.1582,2.2049,2.231,2.231,2.231,2.231,2.231,2.231,2.231,2.231,2.231,2.231,2.231,2.231,2.231,2.231,2.231,2.231,2.231,2.231,2.231,2.231,2.231,2.231,2.231,2.231,2.231,2.231,2.1506,2.2786,2.3595,2.3595,2.3595,2.2759,2.0272,1.8838,1.8027,1.8027,1.91,1.986,1.9751,1.9765,1.8869,1.6696,1.8458,1.8779,1.6637,1.6522,1.6522,1.6522,1.7488,1.757,1.6522,1.6832,1.6832,1.6522,1.6522,1.6522,1.6522,1.6522,1.6522,1.6522,1.6752,1.7188,1.7706,1.7947,1.8535,1.9295,1.9265,1.945,1.9675,1.9403,1.9292,1.9241,1.8971,1.9051,1.9367,1.9975,1.9937,1.975,2.0079,1.9944,1.9824,2.0513,2.0453,2.0318,2.0991,2.0692,2.0243,2.0557,2.0677,2.0722,2.0722,2.1201,2.1665,2.168,2.2173,2.2308,2.135,2.1724,2.1829,2.0812,2.0946,2.1051,2.0692,2.1033,2.129,2.129,2.1537,2.1779,2.1999,2.2032,2.2053,2.2141,2.2355,2.2325,2.1945,2.25,2.2665,2.2327,2.2987,2.3004,2.231,2.2649,2.2649,2.231,2.231,2.231,2.231,2.231,2.231,2.231,2.231,2.231,2.231,2.231,2.231,2.231,2.231,2.231,2.231,2.231,2.231,2.231,2.0471,2.2179,2.3595,2.3595,2.3595,2.3595,2.3595,2.1365,1.969,1.969,2.1575,2.2099,1.9929,1.969,1.8968,1.7188,1.865,1.893,1.7146,1.7034,1.7034,1.7034,1.874,1.8892,1.7089,1.7545,1.7346,1.6522,1.6522,1.6522,1.6522,1.6595,1.668,1.671,1.7188,1.7747,1.8263,1.8688,1.9207,1.969,1.969,1.969,1.969,1.969,1.969,1.969,1.969,1.9765,1.9974,2.0527,2.043,2.0124,2.0707,2.0483,2.0168,2.0857,2.0976,2.1021,2.168,2.138,2.1006,2.156,2.1365,2.1051,2.1051,2.1889,2.2547,2.2113,2.2945,2.3363,2.2109,2.2465,2.2701,2.1854,2.1849,2.1958,2.1853,2.2315,2.2656,2.2656,2.3051,2.345,2.3869,2.3902,2.3815,2.36,2.3579,2.3325,2.2716,2.3257,2.3308,2.2699,2.3849,2.39,2.2699,2.3274,2.3274,2.2682,2.2564,2.2429,2.231,2.231,2.231,2.231,2.231,2.231,2.231,2.231,2.231,2.231,2.231,2.231,2.231,2.231,2.231,2.231,2.3069,2.3363,2.3595,2.3595,2.3595,2.3595,2.3595,2.1365,1.969,1.969,1.9989,2.0079,1.972,1.969,1.9566,1.9281,1.953,1.9566,1.9281,1.9281,1.9281,1.9281,1.9553,1.9568,1.9281,1.8733,1.7814,1.6522,1.6522,1.6522,1.6522,1.6951,1.7271,1.7463,1.7827,1.8302,1.8817,1.8855,1.9207,1.969,1.969,1.969,1.969,1.969,1.969,1.969,1.969,2.0072,2.0563,2.0667,2.1042,2.144,2.1545,2.15,2.156,2.2218,2.2009,2.171,2.2368,2.2069,2.159,2.168,2.2054,2.2413,2.2413,2.2547,2.2802,2.3251,2.3827,2.3928,2.2791,2.3442,2.3621,2.1969,2.2513,2.2964,2.2377,2.3103,2.3686,2.3686,2.3753,2.3836,2.3869,2.3902,2.4031,2.434,2.4371,2.432,2.4218,2.432,2.432,2.4218,2.4404,2.4421,2.4188,2.432,2.432,2.4201,2.3562,2.2919,2.231,2.231,2.231,2.231,2.231,2.231,2.231,2.231,2.231,2.231,2.231,2.231,2.231,2.231,2.231,2.231,2.3595,2.3595,2.3595,2.3595,2.3595,2.3595,2.3595,2.2622,2.1874,2.1874,2.0602,1.969,1.969,1.969,1.969,1.969,1.969,1.969,1.969,1.969,1.969,1.969,1.969,1.9498,1.9081,1.8893,1.8333,1.7378,1.7076,1.7008,1.7105,1.7259,1.7612,1.8185,1.8419,1.8688,1.893,1.9207,1.9479,1.969,1.969,1.969,1.969,1.969,1.969,1.969,1.969,2.0378,2.1267,2.1267,2.1446,2.1754,2.2128,2.1994,2.1829,2.2488,2.2473,2.2383,2.3011,2.2727,2.2323,2.2682,2.2712,2.2813,2.3116,2.3191,2.3266,2.355,2.4032,2.4271,2.3749,2.4324,2.4587,2.3772,2.4069,2.4302,2.3986,2.46,2.5176,2.5414,2.5447,2.5447,2.5447,2.5447,2.5379,2.5135,2.5101,2.4932,2.4523,2.4881,2.4915,2.4523,2.5319,2.5321,2.4523,2.4898,2.4898,2.4506,2.4154,2.3613,2.2902,2.2496,2.231,2.231,2.231,2.231,2.231,2.231,2.231,2.231,2.231,2.231,2.231,2.231,2.231,2.231]}]]